<?xml version="1.0" encoding="UTF-8" standalone="no" ?>
<gpx xmlns="http://www.topografix.com/GPX/1/1" xmlns:xsi="http://www.w3.org/2001/XMLSchema-instance" xsi:schemaLocation="http://www.topografix.com/GPX/1/1 http://www.topografix.com/GPX/1/1/gpx.xsd" version="1.1" creator="VisuGPX - https://www.visugpx.com">
  <metadata>
    <name>De Sénart à la Seine - Boucle 21 km </name>
    <desc><![CDATA[Randonnée effectuée en Novembre 2017 avec le Rando Club Yerrois
Animateur : Jean Louis
Période compliquée - pas mal de boue en forêt de sénart à cette époque de l'année]]></desc>
  </metadata>
  <trk>
    <name><![CDATA[2017-11-15-02]]></name>
    <trkseg>
      <trkpt lat="48.65532" lon="2.4931">
        <ele>85.5</ele>
        <time>2017-11-15T08:30:08Z</time>
      </trkpt>
      <trkpt lat="48.65532" lon="2.49309">
        <ele>85.5</ele>
        <time>2017-11-15T08:30:09Z</time>
      </trkpt>
      <trkpt lat="48.65539" lon="2.49319">
        <ele>85.9</ele>
        <time>2017-11-15T08:30:13Z</time>
      </trkpt>
      <trkpt lat="48.65546" lon="2.49311">
        <ele>84.9</ele>
        <time>2017-11-15T08:32:18Z</time>
      </trkpt>
      <trkpt lat="48.65551" lon="2.49298">
        <ele>84.7</ele>
        <time>2017-11-15T08:34:26Z</time>
      </trkpt>
      <trkpt lat="48.6556" lon="2.49292">
        <ele>84.6</ele>
        <time>2017-11-15T08:34:36Z</time>
      </trkpt>
      <trkpt lat="48.65569" lon="2.49291">
        <ele>84.5</ele>
        <time>2017-11-15T08:34:45Z</time>
      </trkpt>
      <trkpt lat="48.65578" lon="2.4929">
        <ele>84.9</ele>
        <time>2017-11-15T08:34:53Z</time>
      </trkpt>
      <trkpt lat="48.65588" lon="2.49291">
        <ele>84.7</ele>
        <time>2017-11-15T08:35:04Z</time>
      </trkpt>
      <trkpt lat="48.65599" lon="2.49291">
        <ele>84.7</ele>
        <time>2017-11-15T08:35:11Z</time>
      </trkpt>
      <trkpt lat="48.65607" lon="2.49284">
        <ele>84.6</ele>
        <time>2017-11-15T08:35:16Z</time>
      </trkpt>
      <trkpt lat="48.65617" lon="2.49282">
        <ele>84.6</ele>
        <time>2017-11-15T08:35:23Z</time>
      </trkpt>
      <trkpt lat="48.65626" lon="2.49279">
        <ele>84.6</ele>
        <time>2017-11-15T08:35:30Z</time>
      </trkpt>
      <trkpt lat="48.65634" lon="2.49275">
        <ele>84.6</ele>
        <time>2017-11-15T08:35:42Z</time>
      </trkpt>
      <trkpt lat="48.65639" lon="2.49263">
        <ele>84.7</ele>
        <time>2017-11-15T08:35:56Z</time>
      </trkpt>
      <trkpt lat="48.65645" lon="2.49251">
        <ele>84.5</ele>
        <time>2017-11-15T08:36:06Z</time>
      </trkpt>
      <trkpt lat="48.65653" lon="2.49243">
        <ele>84.4</ele>
        <time>2017-11-15T08:36:15Z</time>
      </trkpt>
      <trkpt lat="48.65662" lon="2.49239">
        <ele>84.3</ele>
        <time>2017-11-15T08:36:24Z</time>
      </trkpt>
      <trkpt lat="48.65672" lon="2.49235">
        <ele>84.2</ele>
        <time>2017-11-15T08:36:35Z</time>
      </trkpt>
      <trkpt lat="48.65678" lon="2.49225">
        <ele>83.8</ele>
        <time>2017-11-15T08:36:45Z</time>
      </trkpt>
      <trkpt lat="48.65682" lon="2.49211">
        <ele>83.7</ele>
        <time>2017-11-15T08:36:54Z</time>
      </trkpt>
      <trkpt lat="48.65685" lon="2.49198">
        <ele>83.7</ele>
        <time>2017-11-15T08:37:03Z</time>
      </trkpt>
      <trkpt lat="48.65689" lon="2.49184">
        <ele>82.2</ele>
        <time>2017-11-15T08:37:10Z</time>
      </trkpt>
      <trkpt lat="48.6569" lon="2.49169">
        <ele>83.4</ele>
        <time>2017-11-15T08:37:17Z</time>
      </trkpt>
      <trkpt lat="48.65691" lon="2.49154">
        <ele>83.7</ele>
        <time>2017-11-15T08:37:26Z</time>
      </trkpt>
      <trkpt lat="48.65694" lon="2.49139">
        <ele>83.6</ele>
        <time>2017-11-15T08:37:34Z</time>
      </trkpt>
      <trkpt lat="48.65699" lon="2.49127">
        <ele>83.5</ele>
        <time>2017-11-15T08:37:42Z</time>
      </trkpt>
      <trkpt lat="48.65702" lon="2.49114">
        <ele>83.5</ele>
        <time>2017-11-15T08:37:51Z</time>
      </trkpt>
      <trkpt lat="48.65706" lon="2.491">
        <ele>83.7</ele>
        <time>2017-11-15T08:38:00Z</time>
      </trkpt>
      <trkpt lat="48.6571" lon="2.49087">
        <ele>83.7</ele>
        <time>2017-11-15T08:38:08Z</time>
      </trkpt>
      <trkpt lat="48.65714" lon="2.49074">
        <ele>83.2</ele>
        <time>2017-11-15T08:38:15Z</time>
      </trkpt>
      <trkpt lat="48.65717" lon="2.49061">
        <ele>83.6</ele>
        <time>2017-11-15T08:38:23Z</time>
      </trkpt>
      <trkpt lat="48.6572" lon="2.49046">
        <ele>83.6</ele>
        <time>2017-11-15T08:38:31Z</time>
      </trkpt>
      <trkpt lat="48.65723" lon="2.49031">
        <ele>83.7</ele>
        <time>2017-11-15T08:38:39Z</time>
      </trkpt>
      <trkpt lat="48.65726" lon="2.49016">
        <ele>83.9</ele>
        <time>2017-11-15T08:38:48Z</time>
      </trkpt>
      <trkpt lat="48.65731" lon="2.49003">
        <ele>84.1</ele>
        <time>2017-11-15T08:38:57Z</time>
      </trkpt>
      <trkpt lat="48.65733" lon="2.48988">
        <ele>84.2</ele>
        <time>2017-11-15T08:39:05Z</time>
      </trkpt>
      <trkpt lat="48.65737" lon="2.48975">
        <ele>84.2</ele>
        <time>2017-11-15T08:39:12Z</time>
      </trkpt>
      <trkpt lat="48.6574" lon="2.48961">
        <ele>84.2</ele>
        <time>2017-11-15T08:39:20Z</time>
      </trkpt>
      <trkpt lat="48.65742" lon="2.48947">
        <ele>84.2</ele>
        <time>2017-11-15T08:39:28Z</time>
      </trkpt>
      <trkpt lat="48.65744" lon="2.48934">
        <ele>84.3</ele>
        <time>2017-11-15T08:39:37Z</time>
      </trkpt>
      <trkpt lat="48.65747" lon="2.4892">
        <ele>84.3</ele>
        <time>2017-11-15T08:39:46Z</time>
      </trkpt>
      <trkpt lat="48.6575" lon="2.48906">
        <ele>84.4</ele>
        <time>2017-11-15T08:39:54Z</time>
      </trkpt>
      <trkpt lat="48.65754" lon="2.48893">
        <ele>84.3</ele>
        <time>2017-11-15T08:40:03Z</time>
      </trkpt>
      <trkpt lat="48.65756" lon="2.48877">
        <ele>84.7</ele>
        <time>2017-11-15T08:40:11Z</time>
      </trkpt>
      <trkpt lat="48.65761" lon="2.48862">
        <ele>84</ele>
        <time>2017-11-15T08:40:21Z</time>
      </trkpt>
      <trkpt lat="48.65766" lon="2.4885">
        <ele>84.4</ele>
        <time>2017-11-15T08:40:30Z</time>
      </trkpt>
      <trkpt lat="48.65767" lon="2.48836">
        <ele>84.7</ele>
        <time>2017-11-15T08:40:37Z</time>
      </trkpt>
      <trkpt lat="48.65769" lon="2.48822">
        <ele>84.5</ele>
        <time>2017-11-15T08:40:45Z</time>
      </trkpt>
      <trkpt lat="48.65773" lon="2.48809">
        <ele>84.5</ele>
        <time>2017-11-15T08:40:53Z</time>
      </trkpt>
      <trkpt lat="48.65776" lon="2.48795">
        <ele>84.5</ele>
        <time>2017-11-15T08:41:02Z</time>
      </trkpt>
      <trkpt lat="48.65778" lon="2.4878">
        <ele>84.7</ele>
        <time>2017-11-15T08:41:11Z</time>
      </trkpt>
      <trkpt lat="48.65781" lon="2.48767">
        <ele>84.8</ele>
        <time>2017-11-15T08:41:18Z</time>
      </trkpt>
      <trkpt lat="48.65786" lon="2.48755">
        <ele>84.7</ele>
        <time>2017-11-15T08:41:27Z</time>
      </trkpt>
      <trkpt lat="48.65789" lon="2.48741">
        <ele>84.8</ele>
        <time>2017-11-15T08:41:35Z</time>
      </trkpt>
      <trkpt lat="48.65791" lon="2.48727">
        <ele>84.7</ele>
        <time>2017-11-15T08:41:43Z</time>
      </trkpt>
      <trkpt lat="48.65794" lon="2.48714">
        <ele>84.8</ele>
        <time>2017-11-15T08:41:50Z</time>
      </trkpt>
      <trkpt lat="48.65793" lon="2.487">
        <ele>84.9</ele>
        <time>2017-11-15T08:42:24Z</time>
      </trkpt>
      <trkpt lat="48.65788" lon="2.48712">
        <ele>84.8</ele>
        <time>2017-11-15T08:44:26Z</time>
      </trkpt>
      <trkpt lat="48.65779" lon="2.48719">
        <ele>84.5</ele>
        <time>2017-11-15T08:44:36Z</time>
      </trkpt>
      <trkpt lat="48.65771" lon="2.48726">
        <ele>84.3</ele>
        <time>2017-11-15T08:44:45Z</time>
      </trkpt>
      <trkpt lat="48.65762" lon="2.48734">
        <ele>84.3</ele>
        <time>2017-11-15T08:44:54Z</time>
      </trkpt>
      <trkpt lat="48.65755" lon="2.48743">
        <ele>84.1</ele>
        <time>2017-11-15T08:45:03Z</time>
      </trkpt>
      <trkpt lat="48.65748" lon="2.48753">
        <ele>84.1</ele>
        <time>2017-11-15T08:45:13Z</time>
      </trkpt>
      <trkpt lat="48.6574" lon="2.4876">
        <ele>83.9</ele>
        <time>2017-11-15T08:45:23Z</time>
      </trkpt>
      <trkpt lat="48.65732" lon="2.48769">
        <ele>83.9</ele>
        <time>2017-11-15T08:45:31Z</time>
      </trkpt>
      <trkpt lat="48.65725" lon="2.48778">
        <ele>83.9</ele>
        <time>2017-11-15T08:45:38Z</time>
      </trkpt>
      <trkpt lat="48.65717" lon="2.48786">
        <ele>84</ele>
        <time>2017-11-15T08:45:46Z</time>
      </trkpt>
      <trkpt lat="48.65709" lon="2.48794">
        <ele>84</ele>
        <time>2017-11-15T08:45:54Z</time>
      </trkpt>
      <trkpt lat="48.657" lon="2.48802">
        <ele>84.1</ele>
        <time>2017-11-15T08:46:04Z</time>
      </trkpt>
      <trkpt lat="48.65692" lon="2.4881">
        <ele>84.1</ele>
        <time>2017-11-15T08:46:12Z</time>
      </trkpt>
      <trkpt lat="48.65685" lon="2.48819">
        <ele>84.1</ele>
        <time>2017-11-15T08:46:20Z</time>
      </trkpt>
      <trkpt lat="48.65677" lon="2.48826">
        <ele>83.8</ele>
        <time>2017-11-15T08:46:28Z</time>
      </trkpt>
      <trkpt lat="48.65668" lon="2.48833">
        <ele>83.8</ele>
        <time>2017-11-15T08:46:43Z</time>
      </trkpt>
      <trkpt lat="48.65661" lon="2.48842">
        <ele>83.6</ele>
        <time>2017-11-15T08:46:52Z</time>
      </trkpt>
      <trkpt lat="48.65653" lon="2.48851">
        <ele>83.7</ele>
        <time>2017-11-15T08:46:59Z</time>
      </trkpt>
      <trkpt lat="48.65646" lon="2.4886">
        <ele>83.7</ele>
        <time>2017-11-15T08:47:07Z</time>
      </trkpt>
      <trkpt lat="48.65637" lon="2.48868">
        <ele>83.7</ele>
        <time>2017-11-15T08:47:16Z</time>
      </trkpt>
      <trkpt lat="48.6563" lon="2.48877">
        <ele>83.5</ele>
        <time>2017-11-15T08:47:23Z</time>
      </trkpt>
      <trkpt lat="48.65622" lon="2.48884">
        <ele>83.5</ele>
        <time>2017-11-15T08:47:30Z</time>
      </trkpt>
      <trkpt lat="48.65615" lon="2.48893">
        <ele>83.4</ele>
        <time>2017-11-15T08:47:38Z</time>
      </trkpt>
      <trkpt lat="48.65607" lon="2.48902">
        <ele>83.1</ele>
        <time>2017-11-15T08:47:48Z</time>
      </trkpt>
      <trkpt lat="48.65599" lon="2.48909">
        <ele>83.2</ele>
        <time>2017-11-15T08:47:56Z</time>
      </trkpt>
      <trkpt lat="48.65592" lon="2.48919">
        <ele>83</ele>
        <time>2017-11-15T08:48:06Z</time>
      </trkpt>
      <trkpt lat="48.65584" lon="2.48927">
        <ele>82.9</ele>
        <time>2017-11-15T08:48:15Z</time>
      </trkpt>
      <trkpt lat="48.65577" lon="2.48935">
        <ele>83.2</ele>
        <time>2017-11-15T08:48:22Z</time>
      </trkpt>
      <trkpt lat="48.65569" lon="2.48943">
        <ele>83.2</ele>
        <time>2017-11-15T08:48:31Z</time>
      </trkpt>
      <trkpt lat="48.65561" lon="2.48952">
        <ele>82.9</ele>
        <time>2017-11-15T08:48:40Z</time>
      </trkpt>
      <trkpt lat="48.65553" lon="2.48959">
        <ele>83</ele>
        <time>2017-11-15T08:48:48Z</time>
      </trkpt>
      <trkpt lat="48.65545" lon="2.48968">
        <ele>83.1</ele>
        <time>2017-11-15T08:48:57Z</time>
      </trkpt>
      <trkpt lat="48.65536" lon="2.48976">
        <ele>83</ele>
        <time>2017-11-15T08:49:05Z</time>
      </trkpt>
      <trkpt lat="48.65528" lon="2.48983">
        <ele>82.7</ele>
        <time>2017-11-15T08:49:12Z</time>
      </trkpt>
      <trkpt lat="48.6552" lon="2.48992">
        <ele>82.8</ele>
        <time>2017-11-15T08:49:21Z</time>
      </trkpt>
      <trkpt lat="48.65512" lon="2.48999">
        <ele>82.8</ele>
        <time>2017-11-15T08:49:28Z</time>
      </trkpt>
      <trkpt lat="48.65505" lon="2.49007">
        <ele>83.6</ele>
        <time>2017-11-15T08:49:36Z</time>
      </trkpt>
      <trkpt lat="48.65497" lon="2.49014">
        <ele>82.7</ele>
        <time>2017-11-15T08:49:44Z</time>
      </trkpt>
      <trkpt lat="48.65489" lon="2.49024">
        <ele>82.7</ele>
        <time>2017-11-15T08:49:51Z</time>
      </trkpt>
      <trkpt lat="48.65481" lon="2.4903">
        <ele>82.3</ele>
        <time>2017-11-15T08:49:58Z</time>
      </trkpt>
      <trkpt lat="48.65473" lon="2.49039">
        <ele>82.2</ele>
        <time>2017-11-15T08:50:06Z</time>
      </trkpt>
      <trkpt lat="48.65465" lon="2.49048">
        <ele>82.3</ele>
        <time>2017-11-15T08:50:14Z</time>
      </trkpt>
      <trkpt lat="48.65457" lon="2.49057">
        <ele>82.1</ele>
        <time>2017-11-15T08:50:23Z</time>
      </trkpt>
      <trkpt lat="48.65449" lon="2.49065">
        <ele>82.1</ele>
        <time>2017-11-15T08:50:32Z</time>
      </trkpt>
      <trkpt lat="48.65442" lon="2.49075">
        <ele>81.2</ele>
        <time>2017-11-15T08:50:41Z</time>
      </trkpt>
      <trkpt lat="48.65433" lon="2.49075">
        <ele>82</ele>
        <time>2017-11-15T08:50:53Z</time>
      </trkpt>
      <trkpt lat="48.65432" lon="2.49062">
        <ele>82.1</ele>
        <time>2017-11-15T08:51:10Z</time>
      </trkpt>
      <trkpt lat="48.65436" lon="2.49049">
        <ele>82.1</ele>
        <time>2017-11-15T08:51:25Z</time>
      </trkpt>
      <trkpt lat="48.65438" lon="2.49035">
        <ele>82.5</ele>
        <time>2017-11-15T08:51:40Z</time>
      </trkpt>
      <trkpt lat="48.6544" lon="2.49022">
        <ele>82.2</ele>
        <time>2017-11-15T08:51:53Z</time>
      </trkpt>
      <trkpt lat="48.65441" lon="2.49008">
        <ele>82.6</ele>
        <time>2017-11-15T08:52:04Z</time>
      </trkpt>
      <trkpt lat="48.6544" lon="2.48993">
        <ele>82.6</ele>
        <time>2017-11-15T08:52:15Z</time>
      </trkpt>
      <trkpt lat="48.6544" lon="2.48978">
        <ele>82.7</ele>
        <time>2017-11-15T08:52:26Z</time>
      </trkpt>
      <trkpt lat="48.65445" lon="2.48968">
        <ele>83</ele>
        <time>2017-11-15T08:53:07Z</time>
      </trkpt>
      <trkpt lat="48.65437" lon="2.48971">
        <ele>82.8</ele>
        <time>2017-11-15T08:55:11Z</time>
      </trkpt>
      <trkpt lat="48.65436" lon="2.48984">
        <ele>82.8</ele>
        <time>2017-11-15T08:55:29Z</time>
      </trkpt>
      <trkpt lat="48.65437" lon="2.48999">
        <ele>82.8</ele>
        <time>2017-11-15T08:55:41Z</time>
      </trkpt>
      <trkpt lat="48.65436" lon="2.49012">
        <ele>82.6</ele>
        <time>2017-11-15T08:55:54Z</time>
      </trkpt>
      <trkpt lat="48.65437" lon="2.49027">
        <ele>82.7</ele>
        <time>2017-11-15T08:56:04Z</time>
      </trkpt>
      <trkpt lat="48.65434" lon="2.49041">
        <ele>82.6</ele>
        <time>2017-11-15T08:56:14Z</time>
      </trkpt>
      <trkpt lat="48.65425" lon="2.49038">
        <ele>82.4</ele>
        <time>2017-11-15T08:56:26Z</time>
      </trkpt>
      <trkpt lat="48.6542" lon="2.49026">
        <ele>82.5</ele>
        <time>2017-11-15T08:56:39Z</time>
      </trkpt>
      <trkpt lat="48.65418" lon="2.49012">
        <ele>82.5</ele>
        <time>2017-11-15T08:56:49Z</time>
      </trkpt>
      <trkpt lat="48.65414" lon="2.48997">
        <ele>82.5</ele>
        <time>2017-11-15T08:56:58Z</time>
      </trkpt>
      <trkpt lat="48.65412" lon="2.48984">
        <ele>82.5</ele>
        <time>2017-11-15T08:57:05Z</time>
      </trkpt>
      <trkpt lat="48.65409" lon="2.4897">
        <ele>82.4</ele>
        <time>2017-11-15T08:57:14Z</time>
      </trkpt>
      <trkpt lat="48.65405" lon="2.48958">
        <ele>82.6</ele>
        <time>2017-11-15T08:57:27Z</time>
      </trkpt>
      <trkpt lat="48.65401" lon="2.48944">
        <ele>82.6</ele>
        <time>2017-11-15T08:57:37Z</time>
      </trkpt>
      <trkpt lat="48.65398" lon="2.48931">
        <ele>82.7</ele>
        <time>2017-11-15T08:57:48Z</time>
      </trkpt>
      <trkpt lat="48.65395" lon="2.48917">
        <ele>82.9</ele>
        <time>2017-11-15T08:57:57Z</time>
      </trkpt>
      <trkpt lat="48.65391" lon="2.48904">
        <ele>82.9</ele>
        <time>2017-11-15T08:58:06Z</time>
      </trkpt>
      <trkpt lat="48.65382" lon="2.489">
        <ele>82.5</ele>
        <time>2017-11-15T08:58:31Z</time>
      </trkpt>
      <trkpt lat="48.65378" lon="2.48887">
        <ele>82.6</ele>
        <time>2017-11-15T08:58:45Z</time>
      </trkpt>
      <trkpt lat="48.65371" lon="2.48878">
        <ele>82.9</ele>
        <time>2017-11-15T08:59:06Z</time>
      </trkpt>
      <trkpt lat="48.65363" lon="2.48872">
        <ele>82.9</ele>
        <time>2017-11-15T08:59:39Z</time>
      </trkpt>
      <trkpt lat="48.65373" lon="2.48871">
        <ele>83.5</ele>
        <time>2017-11-15T09:01:45Z</time>
      </trkpt>
      <trkpt lat="48.65381" lon="2.48867">
        <ele>83.2</ele>
        <time>2017-11-15T09:01:59Z</time>
      </trkpt>
      <trkpt lat="48.6538" lon="2.48853">
        <ele>83.3</ele>
        <time>2017-11-15T09:02:11Z</time>
      </trkpt>
      <trkpt lat="48.65377" lon="2.4884">
        <ele>83.4</ele>
        <time>2017-11-15T09:02:21Z</time>
      </trkpt>
      <trkpt lat="48.65374" lon="2.48827">
        <ele>75.6</ele>
        <time>2017-11-15T09:02:30Z</time>
      </trkpt>
      <trkpt lat="48.65371" lon="2.48813">
        <ele>80.5</ele>
        <time>2017-11-15T09:02:40Z</time>
      </trkpt>
      <trkpt lat="48.65367" lon="2.48801">
        <ele>83.5</ele>
        <time>2017-11-15T09:02:48Z</time>
      </trkpt>
      <trkpt lat="48.65364" lon="2.48788">
        <ele>78.2</ele>
        <time>2017-11-15T09:02:57Z</time>
      </trkpt>
      <trkpt lat="48.65361" lon="2.48774">
        <ele>82.6</ele>
        <time>2017-11-15T09:03:04Z</time>
      </trkpt>
      <trkpt lat="48.65358" lon="2.48761">
        <ele>82.7</ele>
        <time>2017-11-15T09:03:13Z</time>
      </trkpt>
      <trkpt lat="48.65354" lon="2.48749">
        <ele>79.2</ele>
        <time>2017-11-15T09:03:22Z</time>
      </trkpt>
      <trkpt lat="48.6535" lon="2.48736">
        <ele>82.8</ele>
        <time>2017-11-15T09:03:31Z</time>
      </trkpt>
      <trkpt lat="48.65347" lon="2.48722">
        <ele>82.7</ele>
        <time>2017-11-15T09:03:40Z</time>
      </trkpt>
      <trkpt lat="48.65344" lon="2.48707">
        <ele>81.8</ele>
        <time>2017-11-15T09:03:49Z</time>
      </trkpt>
      <trkpt lat="48.65341" lon="2.48694">
        <ele>82.3</ele>
        <time>2017-11-15T09:03:58Z</time>
      </trkpt>
      <trkpt lat="48.65338" lon="2.4868">
        <ele>83.1</ele>
        <time>2017-11-15T09:04:06Z</time>
      </trkpt>
      <trkpt lat="48.65335" lon="2.48667">
        <ele>82.3</ele>
        <time>2017-11-15T09:04:14Z</time>
      </trkpt>
      <trkpt lat="48.65331" lon="2.48653">
        <ele>82.4</ele>
        <time>2017-11-15T09:04:23Z</time>
      </trkpt>
      <trkpt lat="48.65327" lon="2.48639">
        <ele>82.5</ele>
        <time>2017-11-15T09:04:32Z</time>
      </trkpt>
      <trkpt lat="48.65324" lon="2.48626">
        <ele>82.1</ele>
        <time>2017-11-15T09:04:42Z</time>
      </trkpt>
      <trkpt lat="48.65321" lon="2.48613">
        <ele>82.5</ele>
        <time>2017-11-15T09:04:50Z</time>
      </trkpt>
      <trkpt lat="48.65317" lon="2.48599">
        <ele>82.2</ele>
        <time>2017-11-15T09:04:59Z</time>
      </trkpt>
      <trkpt lat="48.65313" lon="2.48585">
        <ele>82</ele>
        <time>2017-11-15T09:05:10Z</time>
      </trkpt>
      <trkpt lat="48.6531" lon="2.48572">
        <ele>82</ele>
        <time>2017-11-15T09:05:18Z</time>
      </trkpt>
      <trkpt lat="48.65308" lon="2.48559">
        <ele>82</ele>
        <time>2017-11-15T09:05:26Z</time>
      </trkpt>
      <trkpt lat="48.65304" lon="2.48545">
        <ele>82.8</ele>
        <time>2017-11-15T09:05:34Z</time>
      </trkpt>
      <trkpt lat="48.65301" lon="2.48531">
        <ele>82.5</ele>
        <time>2017-11-15T09:05:42Z</time>
      </trkpt>
      <trkpt lat="48.65298" lon="2.48518">
        <ele>82.8</ele>
        <time>2017-11-15T09:05:50Z</time>
      </trkpt>
      <trkpt lat="48.65295" lon="2.48505">
        <ele>82.5</ele>
        <time>2017-11-15T09:05:58Z</time>
      </trkpt>
      <trkpt lat="48.65292" lon="2.48491">
        <ele>83</ele>
        <time>2017-11-15T09:06:06Z</time>
      </trkpt>
      <trkpt lat="48.65288" lon="2.48478">
        <ele>82.4</ele>
        <time>2017-11-15T09:06:15Z</time>
      </trkpt>
      <trkpt lat="48.65285" lon="2.48465">
        <ele>82.9</ele>
        <time>2017-11-15T09:06:23Z</time>
      </trkpt>
      <trkpt lat="48.65282" lon="2.48451">
        <ele>82.7</ele>
        <time>2017-11-15T09:06:32Z</time>
      </trkpt>
      <trkpt lat="48.65279" lon="2.48439">
        <ele>83</ele>
        <time>2017-11-15T09:06:40Z</time>
      </trkpt>
      <trkpt lat="48.65275" lon="2.48425">
        <ele>82.8</ele>
        <time>2017-11-15T09:06:50Z</time>
      </trkpt>
      <trkpt lat="48.65272" lon="2.48412">
        <ele>82.5</ele>
        <time>2017-11-15T09:06:59Z</time>
      </trkpt>
      <trkpt lat="48.6527" lon="2.48399">
        <ele>82.3</ele>
        <time>2017-11-15T09:07:07Z</time>
      </trkpt>
      <trkpt lat="48.65266" lon="2.48386">
        <ele>83.5</ele>
        <time>2017-11-15T09:07:16Z</time>
      </trkpt>
      <trkpt lat="48.65264" lon="2.48373">
        <ele>83.3</ele>
        <time>2017-11-15T09:07:24Z</time>
      </trkpt>
      <trkpt lat="48.65261" lon="2.48359">
        <ele>82.7</ele>
        <time>2017-11-15T09:07:31Z</time>
      </trkpt>
      <trkpt lat="48.65258" lon="2.48345">
        <ele>83.3</ele>
        <time>2017-11-15T09:07:40Z</time>
      </trkpt>
      <trkpt lat="48.65254" lon="2.48331">
        <ele>82.8</ele>
        <time>2017-11-15T09:07:49Z</time>
      </trkpt>
      <trkpt lat="48.65252" lon="2.48318">
        <ele>82.7</ele>
        <time>2017-11-15T09:07:57Z</time>
      </trkpt>
      <trkpt lat="48.65248" lon="2.48305">
        <ele>83.3</ele>
        <time>2017-11-15T09:08:06Z</time>
      </trkpt>
      <trkpt lat="48.65245" lon="2.48292">
        <ele>83.5</ele>
        <time>2017-11-15T09:08:13Z</time>
      </trkpt>
      <trkpt lat="48.65241" lon="2.48277">
        <ele>83.6</ele>
        <time>2017-11-15T09:08:21Z</time>
      </trkpt>
      <trkpt lat="48.65237" lon="2.48262">
        <ele>83.6</ele>
        <time>2017-11-15T09:08:29Z</time>
      </trkpt>
      <trkpt lat="48.65234" lon="2.48249">
        <ele>83.3</ele>
        <time>2017-11-15T09:08:35Z</time>
      </trkpt>
      <trkpt lat="48.65226" lon="2.48243">
        <ele>83.1</ele>
        <time>2017-11-15T09:08:42Z</time>
      </trkpt>
      <trkpt lat="48.65216" lon="2.48247">
        <ele>83.9</ele>
        <time>2017-11-15T09:08:50Z</time>
      </trkpt>
      <trkpt lat="48.65208" lon="2.48254">
        <ele>83.4</ele>
        <time>2017-11-15T09:08:58Z</time>
      </trkpt>
      <trkpt lat="48.652" lon="2.48261">
        <ele>84.1</ele>
        <time>2017-11-15T09:09:06Z</time>
      </trkpt>
      <trkpt lat="48.65192" lon="2.48268">
        <ele>84.1</ele>
        <time>2017-11-15T09:09:14Z</time>
      </trkpt>
      <trkpt lat="48.65184" lon="2.48276">
        <ele>84.5</ele>
        <time>2017-11-15T09:09:22Z</time>
      </trkpt>
      <trkpt lat="48.65176" lon="2.48284">
        <ele>84.3</ele>
        <time>2017-11-15T09:09:30Z</time>
      </trkpt>
      <trkpt lat="48.65168" lon="2.48291">
        <ele>84.6</ele>
        <time>2017-11-15T09:09:38Z</time>
      </trkpt>
      <trkpt lat="48.6516" lon="2.48299">
        <ele>84.4</ele>
        <time>2017-11-15T09:09:46Z</time>
      </trkpt>
      <trkpt lat="48.65151" lon="2.48306">
        <ele>84</ele>
        <time>2017-11-15T09:09:54Z</time>
      </trkpt>
      <trkpt lat="48.65143" lon="2.48315">
        <ele>84.8</ele>
        <time>2017-11-15T09:10:02Z</time>
      </trkpt>
      <trkpt lat="48.65135" lon="2.48323">
        <ele>85.1</ele>
        <time>2017-11-15T09:10:10Z</time>
      </trkpt>
      <trkpt lat="48.65127" lon="2.48331">
        <ele>84.9</ele>
        <time>2017-11-15T09:10:17Z</time>
      </trkpt>
      <trkpt lat="48.65119" lon="2.48339">
        <ele>85</ele>
        <time>2017-11-15T09:10:25Z</time>
      </trkpt>
      <trkpt lat="48.65111" lon="2.48346">
        <ele>84.5</ele>
        <time>2017-11-15T09:10:32Z</time>
      </trkpt>
      <trkpt lat="48.65102" lon="2.48353">
        <ele>84.8</ele>
        <time>2017-11-15T09:10:40Z</time>
      </trkpt>
      <trkpt lat="48.65095" lon="2.48361">
        <ele>84.6</ele>
        <time>2017-11-15T09:10:48Z</time>
      </trkpt>
      <trkpt lat="48.65086" lon="2.48369">
        <ele>84.7</ele>
        <time>2017-11-15T09:10:56Z</time>
      </trkpt>
      <trkpt lat="48.65078" lon="2.48377">
        <ele>84.6</ele>
        <time>2017-11-15T09:11:04Z</time>
      </trkpt>
      <trkpt lat="48.6507" lon="2.48384">
        <ele>84.6</ele>
        <time>2017-11-15T09:11:12Z</time>
      </trkpt>
      <trkpt lat="48.65062" lon="2.48392">
        <ele>84.3</ele>
        <time>2017-11-15T09:11:20Z</time>
      </trkpt>
      <trkpt lat="48.65053" lon="2.48401">
        <ele>84.1</ele>
        <time>2017-11-15T09:11:28Z</time>
      </trkpt>
      <trkpt lat="48.65045" lon="2.48408">
        <ele>84.4</ele>
        <time>2017-11-15T09:11:36Z</time>
      </trkpt>
      <trkpt lat="48.65037" lon="2.48416">
        <ele>83.6</ele>
        <time>2017-11-15T09:11:44Z</time>
      </trkpt>
      <trkpt lat="48.65029" lon="2.48424">
        <ele>84.1</ele>
        <time>2017-11-15T09:11:52Z</time>
      </trkpt>
      <trkpt lat="48.65021" lon="2.48433">
        <ele>84</ele>
        <time>2017-11-15T09:12:00Z</time>
      </trkpt>
      <trkpt lat="48.65012" lon="2.4844">
        <ele>84</ele>
        <time>2017-11-15T09:12:08Z</time>
      </trkpt>
      <trkpt lat="48.65004" lon="2.48448">
        <ele>83.8</ele>
        <time>2017-11-15T09:12:16Z</time>
      </trkpt>
      <trkpt lat="48.64995" lon="2.48457">
        <ele>84</ele>
        <time>2017-11-15T09:12:24Z</time>
      </trkpt>
      <trkpt lat="48.64987" lon="2.48465">
        <ele>84.1</ele>
        <time>2017-11-15T09:12:32Z</time>
      </trkpt>
      <trkpt lat="48.64979" lon="2.48472">
        <ele>83.9</ele>
        <time>2017-11-15T09:12:39Z</time>
      </trkpt>
      <trkpt lat="48.64971" lon="2.4848">
        <ele>83.9</ele>
        <time>2017-11-15T09:12:47Z</time>
      </trkpt>
      <trkpt lat="48.64963" lon="2.48488">
        <ele>84</ele>
        <time>2017-11-15T09:12:55Z</time>
      </trkpt>
      <trkpt lat="48.64955" lon="2.48497">
        <ele>84.1</ele>
        <time>2017-11-15T09:13:03Z</time>
      </trkpt>
      <trkpt lat="48.64946" lon="2.48505">
        <ele>83.8</ele>
        <time>2017-11-15T09:13:11Z</time>
      </trkpt>
      <trkpt lat="48.64938" lon="2.48514">
        <ele>83.6</ele>
        <time>2017-11-15T09:13:20Z</time>
      </trkpt>
      <trkpt lat="48.6493" lon="2.48522">
        <ele>83.7</ele>
        <time>2017-11-15T09:13:28Z</time>
      </trkpt>
      <trkpt lat="48.64921" lon="2.4853">
        <ele>83.8</ele>
        <time>2017-11-15T09:13:36Z</time>
      </trkpt>
      <trkpt lat="48.64913" lon="2.48538">
        <ele>84.1</ele>
        <time>2017-11-15T09:13:44Z</time>
      </trkpt>
      <trkpt lat="48.64905" lon="2.48546">
        <ele>83.7</ele>
        <time>2017-11-15T09:13:53Z</time>
      </trkpt>
      <trkpt lat="48.64897" lon="2.48553">
        <ele>84.1</ele>
        <time>2017-11-15T09:14:01Z</time>
      </trkpt>
      <trkpt lat="48.64888" lon="2.48561">
        <ele>83.9</ele>
        <time>2017-11-15T09:14:09Z</time>
      </trkpt>
      <trkpt lat="48.6488" lon="2.4857">
        <ele>84.1</ele>
        <time>2017-11-15T09:14:17Z</time>
      </trkpt>
      <trkpt lat="48.64872" lon="2.48579">
        <ele>84.1</ele>
        <time>2017-11-15T09:14:25Z</time>
      </trkpt>
      <trkpt lat="48.64864" lon="2.48586">
        <ele>84</ele>
        <time>2017-11-15T09:14:33Z</time>
      </trkpt>
      <trkpt lat="48.64856" lon="2.48594">
        <ele>83.6</ele>
        <time>2017-11-15T09:14:42Z</time>
      </trkpt>
      <trkpt lat="48.64848" lon="2.48602">
        <ele>83.9</ele>
        <time>2017-11-15T09:14:51Z</time>
      </trkpt>
      <trkpt lat="48.64839" lon="2.48609">
        <ele>83.8</ele>
        <time>2017-11-15T09:15:00Z</time>
      </trkpt>
      <trkpt lat="48.64831" lon="2.48617">
        <ele>84.1</ele>
        <time>2017-11-15T09:15:09Z</time>
      </trkpt>
      <trkpt lat="48.64823" lon="2.48626">
        <ele>83.9</ele>
        <time>2017-11-15T09:15:18Z</time>
      </trkpt>
      <trkpt lat="48.64814" lon="2.48633">
        <ele>84</ele>
        <time>2017-11-15T09:15:26Z</time>
      </trkpt>
      <trkpt lat="48.64806" lon="2.4864">
        <ele>83.9</ele>
        <time>2017-11-15T09:15:34Z</time>
      </trkpt>
      <trkpt lat="48.64798" lon="2.48649">
        <ele>84.1</ele>
        <time>2017-11-15T09:15:43Z</time>
      </trkpt>
      <trkpt lat="48.64791" lon="2.48657">
        <ele>84</ele>
        <time>2017-11-15T09:15:50Z</time>
      </trkpt>
      <trkpt lat="48.64782" lon="2.48665">
        <ele>84.1</ele>
        <time>2017-11-15T09:15:58Z</time>
      </trkpt>
      <trkpt lat="48.64774" lon="2.48673">
        <ele>84.1</ele>
        <time>2017-11-15T09:16:06Z</time>
      </trkpt>
      <trkpt lat="48.64766" lon="2.48681">
        <ele>83.8</ele>
        <time>2017-11-15T09:16:14Z</time>
      </trkpt>
      <trkpt lat="48.64758" lon="2.48689">
        <ele>84.1</ele>
        <time>2017-11-15T09:16:22Z</time>
      </trkpt>
      <trkpt lat="48.6475" lon="2.48697">
        <ele>84</ele>
        <time>2017-11-15T09:16:30Z</time>
      </trkpt>
      <trkpt lat="48.64742" lon="2.48705">
        <ele>84</ele>
        <time>2017-11-15T09:16:38Z</time>
      </trkpt>
      <trkpt lat="48.64733" lon="2.48713">
        <ele>83.9</ele>
        <time>2017-11-15T09:16:46Z</time>
      </trkpt>
      <trkpt lat="48.64725" lon="2.48721">
        <ele>83.7</ele>
        <time>2017-11-15T09:16:54Z</time>
      </trkpt>
      <trkpt lat="48.64716" lon="2.48729">
        <ele>83.8</ele>
        <time>2017-11-15T09:17:03Z</time>
      </trkpt>
      <trkpt lat="48.64707" lon="2.48737">
        <ele>83.6</ele>
        <time>2017-11-15T09:17:12Z</time>
      </trkpt>
      <trkpt lat="48.647" lon="2.48745">
        <ele>83.7</ele>
        <time>2017-11-15T09:17:21Z</time>
      </trkpt>
      <trkpt lat="48.64691" lon="2.48754">
        <ele>83.4</ele>
        <time>2017-11-15T09:17:29Z</time>
      </trkpt>
      <trkpt lat="48.64683" lon="2.48762">
        <ele>83.4</ele>
        <time>2017-11-15T09:17:37Z</time>
      </trkpt>
      <trkpt lat="48.64675" lon="2.4877">
        <ele>83.5</ele>
        <time>2017-11-15T09:17:45Z</time>
      </trkpt>
      <trkpt lat="48.64666" lon="2.48778">
        <ele>83.5</ele>
        <time>2017-11-15T09:17:53Z</time>
      </trkpt>
      <trkpt lat="48.64658" lon="2.48787">
        <ele>83.4</ele>
        <time>2017-11-15T09:18:01Z</time>
      </trkpt>
      <trkpt lat="48.6465" lon="2.48794">
        <ele>83.4</ele>
        <time>2017-11-15T09:18:09Z</time>
      </trkpt>
      <trkpt lat="48.64642" lon="2.48802">
        <ele>83.2</ele>
        <time>2017-11-15T09:18:17Z</time>
      </trkpt>
      <trkpt lat="48.64634" lon="2.4881">
        <ele>82.8</ele>
        <time>2017-11-15T09:18:25Z</time>
      </trkpt>
      <trkpt lat="48.64626" lon="2.48818">
        <ele>82.4</ele>
        <time>2017-11-15T09:18:33Z</time>
      </trkpt>
      <trkpt lat="48.64618" lon="2.48826">
        <ele>82.5</ele>
        <time>2017-11-15T09:18:41Z</time>
      </trkpt>
      <trkpt lat="48.64609" lon="2.48834">
        <ele>82.1</ele>
        <time>2017-11-15T09:18:49Z</time>
      </trkpt>
      <trkpt lat="48.64602" lon="2.48841">
        <ele>82.3</ele>
        <time>2017-11-15T09:18:57Z</time>
      </trkpt>
      <trkpt lat="48.64593" lon="2.48849">
        <ele>82.2</ele>
        <time>2017-11-15T09:19:05Z</time>
      </trkpt>
      <trkpt lat="48.64586" lon="2.48857">
        <ele>82</ele>
        <time>2017-11-15T09:19:12Z</time>
      </trkpt>
      <trkpt lat="48.64578" lon="2.48864">
        <ele>82.1</ele>
        <time>2017-11-15T09:19:20Z</time>
      </trkpt>
      <trkpt lat="48.6457" lon="2.48871">
        <ele>82.3</ele>
        <time>2017-11-15T09:19:28Z</time>
      </trkpt>
      <trkpt lat="48.64561" lon="2.48878">
        <ele>81.5</ele>
        <time>2017-11-15T09:19:41Z</time>
      </trkpt>
      <trkpt lat="48.64555" lon="2.48868">
        <ele>81.7</ele>
        <time>2017-11-15T09:19:58Z</time>
      </trkpt>
      <trkpt lat="48.64553" lon="2.48854">
        <ele>81.9</ele>
        <time>2017-11-15T09:20:10Z</time>
      </trkpt>
      <trkpt lat="48.6455" lon="2.48841">
        <ele>81.9</ele>
        <time>2017-11-15T09:20:24Z</time>
      </trkpt>
      <trkpt lat="48.64549" lon="2.48827">
        <ele>81.8</ele>
        <time>2017-11-15T09:21:04Z</time>
      </trkpt>
      <trkpt lat="48.64546" lon="2.48813">
        <ele>81.8</ele>
        <time>2017-11-15T09:25:52Z</time>
      </trkpt>
      <trkpt lat="48.64541" lon="2.48802">
        <ele>81.5</ele>
        <time>2017-11-15T09:26:05Z</time>
      </trkpt>
      <trkpt lat="48.64537" lon="2.4879">
        <ele>81.3</ele>
        <time>2017-11-15T09:26:20Z</time>
      </trkpt>
      <trkpt lat="48.64532" lon="2.48777">
        <ele>81.4</ele>
        <time>2017-11-15T09:26:34Z</time>
      </trkpt>
      <trkpt lat="48.64527" lon="2.48766">
        <ele>81.3</ele>
        <time>2017-11-15T09:26:45Z</time>
      </trkpt>
      <trkpt lat="48.64522" lon="2.48754">
        <ele>81.2</ele>
        <time>2017-11-15T09:26:58Z</time>
      </trkpt>
      <trkpt lat="48.64517" lon="2.48742">
        <ele>81.8</ele>
        <time>2017-11-15T09:27:18Z</time>
      </trkpt>
      <trkpt lat="48.6451" lon="2.48733">
        <ele>81.3</ele>
        <time>2017-11-15T09:27:45Z</time>
      </trkpt>
      <trkpt lat="48.64514" lon="2.48721">
        <ele>80.7</ele>
        <time>2017-11-15T09:29:03Z</time>
      </trkpt>
      <trkpt lat="48.64512" lon="2.48706">
        <ele>81.3</ele>
        <time>2017-11-15T09:29:15Z</time>
      </trkpt>
      <trkpt lat="48.64508" lon="2.48694">
        <ele>80.8</ele>
        <time>2017-11-15T09:29:25Z</time>
      </trkpt>
      <trkpt lat="48.64506" lon="2.48679">
        <ele>80.9</ele>
        <time>2017-11-15T09:29:34Z</time>
      </trkpt>
      <trkpt lat="48.64502" lon="2.48665">
        <ele>81.3</ele>
        <time>2017-11-15T09:29:43Z</time>
      </trkpt>
      <trkpt lat="48.64499" lon="2.4865">
        <ele>81.2</ele>
        <time>2017-11-15T09:29:56Z</time>
      </trkpt>
      <trkpt lat="48.64494" lon="2.48636">
        <ele>81.4</ele>
        <time>2017-11-15T09:30:06Z</time>
      </trkpt>
      <trkpt lat="48.64491" lon="2.48622">
        <ele>81</ele>
        <time>2017-11-15T09:30:15Z</time>
      </trkpt>
      <trkpt lat="48.64487" lon="2.48608">
        <ele>80.9</ele>
        <time>2017-11-15T09:30:26Z</time>
      </trkpt>
      <trkpt lat="48.64485" lon="2.48594">
        <ele>81.2</ele>
        <time>2017-11-15T09:30:35Z</time>
      </trkpt>
      <trkpt lat="48.64482" lon="2.48581">
        <ele>81.4</ele>
        <time>2017-11-15T09:30:45Z</time>
      </trkpt>
      <trkpt lat="48.64478" lon="2.48567">
        <ele>81.4</ele>
        <time>2017-11-15T09:30:54Z</time>
      </trkpt>
      <trkpt lat="48.64475" lon="2.48554">
        <ele>80.1</ele>
        <time>2017-11-15T09:31:02Z</time>
      </trkpt>
      <trkpt lat="48.64473" lon="2.4854">
        <ele>77.7</ele>
        <time>2017-11-15T09:31:11Z</time>
      </trkpt>
      <trkpt lat="48.6447" lon="2.48527">
        <ele>85.5</ele>
        <time>2017-11-15T09:31:19Z</time>
      </trkpt>
      <trkpt lat="48.64469" lon="2.48512">
        <ele>82.8</ele>
        <time>2017-11-15T09:31:32Z</time>
      </trkpt>
      <trkpt lat="48.64466" lon="2.48497">
        <ele>82.5</ele>
        <time>2017-11-15T09:31:40Z</time>
      </trkpt>
      <trkpt lat="48.64461" lon="2.48486">
        <ele>82.4</ele>
        <time>2017-11-15T09:31:48Z</time>
      </trkpt>
      <trkpt lat="48.64458" lon="2.48472">
        <ele>82.4</ele>
        <time>2017-11-15T09:31:55Z</time>
      </trkpt>
      <trkpt lat="48.64456" lon="2.48456">
        <ele>82.6</ele>
        <time>2017-11-15T09:32:03Z</time>
      </trkpt>
      <trkpt lat="48.64449" lon="2.48445">
        <ele>82.9</ele>
        <time>2017-11-15T09:32:12Z</time>
      </trkpt>
      <trkpt lat="48.64445" lon="2.48431">
        <ele>82.7</ele>
        <time>2017-11-15T09:32:19Z</time>
      </trkpt>
      <trkpt lat="48.64441" lon="2.48419">
        <ele>82.9</ele>
        <time>2017-11-15T09:32:27Z</time>
      </trkpt>
      <trkpt lat="48.64438" lon="2.48404">
        <ele>83.1</ele>
        <time>2017-11-15T09:32:35Z</time>
      </trkpt>
      <trkpt lat="48.64434" lon="2.48391">
        <ele>83.1</ele>
        <time>2017-11-15T09:32:42Z</time>
      </trkpt>
      <trkpt lat="48.64431" lon="2.48377">
        <ele>83.1</ele>
        <time>2017-11-15T09:32:50Z</time>
      </trkpt>
      <trkpt lat="48.64427" lon="2.48364">
        <ele>83.1</ele>
        <time>2017-11-15T09:32:59Z</time>
      </trkpt>
      <trkpt lat="48.64424" lon="2.4835">
        <ele>83</ele>
        <time>2017-11-15T09:33:07Z</time>
      </trkpt>
      <trkpt lat="48.64421" lon="2.48336">
        <ele>82.8</ele>
        <time>2017-11-15T09:33:15Z</time>
      </trkpt>
      <trkpt lat="48.64419" lon="2.48322">
        <ele>83</ele>
        <time>2017-11-15T09:33:25Z</time>
      </trkpt>
      <trkpt lat="48.64416" lon="2.48309">
        <ele>83.1</ele>
        <time>2017-11-15T09:33:32Z</time>
      </trkpt>
      <trkpt lat="48.64412" lon="2.48295">
        <ele>83</ele>
        <time>2017-11-15T09:33:40Z</time>
      </trkpt>
      <trkpt lat="48.6441" lon="2.48282">
        <ele>83</ele>
        <time>2017-11-15T09:33:49Z</time>
      </trkpt>
      <trkpt lat="48.64407" lon="2.48268">
        <ele>83.1</ele>
        <time>2017-11-15T09:33:56Z</time>
      </trkpt>
      <trkpt lat="48.64404" lon="2.48253">
        <ele>83.1</ele>
        <time>2017-11-15T09:34:04Z</time>
      </trkpt>
      <trkpt lat="48.64401" lon="2.4824">
        <ele>83.1</ele>
        <time>2017-11-15T09:34:10Z</time>
      </trkpt>
      <trkpt lat="48.64397" lon="2.48225">
        <ele>83.2</ele>
        <time>2017-11-15T09:34:19Z</time>
      </trkpt>
      <trkpt lat="48.64389" lon="2.48218">
        <ele>83.4</ele>
        <time>2017-11-15T09:34:33Z</time>
      </trkpt>
      <trkpt lat="48.64378" lon="2.48216">
        <ele>83.4</ele>
        <time>2017-11-15T09:34:48Z</time>
      </trkpt>
      <trkpt lat="48.6437" lon="2.48211">
        <ele>83.3</ele>
        <time>2017-11-15T09:34:59Z</time>
      </trkpt>
      <trkpt lat="48.64362" lon="2.48203">
        <ele>83.2</ele>
        <time>2017-11-15T09:35:10Z</time>
      </trkpt>
      <trkpt lat="48.64353" lon="2.48196">
        <ele>83</ele>
        <time>2017-11-15T09:35:24Z</time>
      </trkpt>
      <trkpt lat="48.64344" lon="2.48194">
        <ele>82.9</ele>
        <time>2017-11-15T09:35:34Z</time>
      </trkpt>
      <trkpt lat="48.64334" lon="2.48193">
        <ele>82.8</ele>
        <time>2017-11-15T09:35:44Z</time>
      </trkpt>
      <trkpt lat="48.64326" lon="2.4819">
        <ele>82.7</ele>
        <time>2017-11-15T09:35:56Z</time>
      </trkpt>
      <trkpt lat="48.64316" lon="2.48188">
        <ele>82.6</ele>
        <time>2017-11-15T09:36:07Z</time>
      </trkpt>
      <trkpt lat="48.64307" lon="2.48185">
        <ele>82.7</ele>
        <time>2017-11-15T09:36:17Z</time>
      </trkpt>
      <trkpt lat="48.64297" lon="2.48181">
        <ele>82.7</ele>
        <time>2017-11-15T09:36:25Z</time>
      </trkpt>
      <trkpt lat="48.64288" lon="2.48179">
        <ele>82.8</ele>
        <time>2017-11-15T09:36:34Z</time>
      </trkpt>
      <trkpt lat="48.64279" lon="2.48176">
        <ele>82.6</ele>
        <time>2017-11-15T09:36:43Z</time>
      </trkpt>
      <trkpt lat="48.6427" lon="2.4817">
        <ele>82.6</ele>
        <time>2017-11-15T09:36:50Z</time>
      </trkpt>
      <trkpt lat="48.6426" lon="2.48166">
        <ele>82.4</ele>
        <time>2017-11-15T09:37:00Z</time>
      </trkpt>
      <trkpt lat="48.64251" lon="2.48163">
        <ele>82.6</ele>
        <time>2017-11-15T09:37:11Z</time>
      </trkpt>
      <trkpt lat="48.64241" lon="2.48163">
        <ele>82.5</ele>
        <time>2017-11-15T09:37:23Z</time>
      </trkpt>
      <trkpt lat="48.64232" lon="2.48161">
        <ele>82.6</ele>
        <time>2017-11-15T09:37:36Z</time>
      </trkpt>
      <trkpt lat="48.64223" lon="2.48157">
        <ele>82.4</ele>
        <time>2017-11-15T09:37:46Z</time>
      </trkpt>
      <trkpt lat="48.64221" lon="2.48171">
        <ele>82.3</ele>
        <time>2017-11-15T09:38:00Z</time>
      </trkpt>
      <trkpt lat="48.64224" lon="2.48185">
        <ele>82.4</ele>
        <time>2017-11-15T09:38:11Z</time>
      </trkpt>
      <trkpt lat="48.64223" lon="2.48198">
        <ele>82.4</ele>
        <time>2017-11-15T09:38:17Z</time>
      </trkpt>
      <trkpt lat="48.64222" lon="2.48212">
        <ele>82.2</ele>
        <time>2017-11-15T09:38:24Z</time>
      </trkpt>
      <trkpt lat="48.64221" lon="2.48226">
        <ele>82</ele>
        <time>2017-11-15T09:38:33Z</time>
      </trkpt>
      <trkpt lat="48.6422" lon="2.4824">
        <ele>82.1</ele>
        <time>2017-11-15T09:38:40Z</time>
      </trkpt>
      <trkpt lat="48.6422" lon="2.48254">
        <ele>82.2</ele>
        <time>2017-11-15T09:38:47Z</time>
      </trkpt>
      <trkpt lat="48.64219" lon="2.48267">
        <ele>82.3</ele>
        <time>2017-11-15T09:38:53Z</time>
      </trkpt>
      <trkpt lat="48.64217" lon="2.48281">
        <ele>82.2</ele>
        <time>2017-11-15T09:39:01Z</time>
      </trkpt>
      <trkpt lat="48.64216" lon="2.48297">
        <ele>81.9</ele>
        <time>2017-11-15T09:39:11Z</time>
      </trkpt>
      <trkpt lat="48.64218" lon="2.4831">
        <ele>82</ele>
        <time>2017-11-15T09:39:19Z</time>
      </trkpt>
      <trkpt lat="48.64219" lon="2.48325">
        <ele>81.9</ele>
        <time>2017-11-15T09:39:28Z</time>
      </trkpt>
      <trkpt lat="48.6422" lon="2.48338">
        <ele>82</ele>
        <time>2017-11-15T09:39:35Z</time>
      </trkpt>
      <trkpt lat="48.64219" lon="2.48353">
        <ele>81.8</ele>
        <time>2017-11-15T09:39:42Z</time>
      </trkpt>
      <trkpt lat="48.64218" lon="2.48367">
        <ele>81.8</ele>
        <time>2017-11-15T09:39:49Z</time>
      </trkpt>
      <trkpt lat="48.64218" lon="2.48383">
        <ele>82.1</ele>
        <time>2017-11-15T09:39:59Z</time>
      </trkpt>
      <trkpt lat="48.64219" lon="2.48397">
        <ele>81.7</ele>
        <time>2017-11-15T09:40:08Z</time>
      </trkpt>
      <trkpt lat="48.6422" lon="2.48412">
        <ele>81.7</ele>
        <time>2017-11-15T09:40:15Z</time>
      </trkpt>
      <trkpt lat="48.64221" lon="2.48426">
        <ele>81.7</ele>
        <time>2017-11-15T09:40:22Z</time>
      </trkpt>
      <trkpt lat="48.6422" lon="2.48441">
        <ele>81.1</ele>
        <time>2017-11-15T09:40:31Z</time>
      </trkpt>
      <trkpt lat="48.64222" lon="2.48454">
        <ele>81</ele>
        <time>2017-11-15T09:40:39Z</time>
      </trkpt>
      <trkpt lat="48.64223" lon="2.48469">
        <ele>80.9</ele>
        <time>2017-11-15T09:40:47Z</time>
      </trkpt>
      <trkpt lat="48.64222" lon="2.48483">
        <ele>80.9</ele>
        <time>2017-11-15T09:40:54Z</time>
      </trkpt>
      <trkpt lat="48.64222" lon="2.48497">
        <ele>80.9</ele>
        <time>2017-11-15T09:41:01Z</time>
      </trkpt>
      <trkpt lat="48.64222" lon="2.4851">
        <ele>80.8</ele>
        <time>2017-11-15T09:41:10Z</time>
      </trkpt>
      <trkpt lat="48.64225" lon="2.48524">
        <ele>80.5</ele>
        <time>2017-11-15T09:41:21Z</time>
      </trkpt>
      <trkpt lat="48.64224" lon="2.48539">
        <ele>80.6</ele>
        <time>2017-11-15T09:41:30Z</time>
      </trkpt>
      <trkpt lat="48.64224" lon="2.48553">
        <ele>80.5</ele>
        <time>2017-11-15T09:41:38Z</time>
      </trkpt>
      <trkpt lat="48.64227" lon="2.48568">
        <ele>80.5</ele>
        <time>2017-11-15T09:41:47Z</time>
      </trkpt>
      <trkpt lat="48.64228" lon="2.48583">
        <ele>80.2</ele>
        <time>2017-11-15T09:41:56Z</time>
      </trkpt>
      <trkpt lat="48.6423" lon="2.48597">
        <ele>80.4</ele>
        <time>2017-11-15T09:42:04Z</time>
      </trkpt>
      <trkpt lat="48.64234" lon="2.48611">
        <ele>80.3</ele>
        <time>2017-11-15T09:42:12Z</time>
      </trkpt>
      <trkpt lat="48.64238" lon="2.48624">
        <ele>80</ele>
        <time>2017-11-15T09:42:21Z</time>
      </trkpt>
      <trkpt lat="48.64241" lon="2.48639">
        <ele>79.7</ele>
        <time>2017-11-15T09:42:30Z</time>
      </trkpt>
      <trkpt lat="48.64244" lon="2.48652">
        <ele>79.8</ele>
        <time>2017-11-15T09:42:37Z</time>
      </trkpt>
      <trkpt lat="48.64246" lon="2.48667">
        <ele>79.7</ele>
        <time>2017-11-15T09:42:46Z</time>
      </trkpt>
      <trkpt lat="48.64251" lon="2.48678">
        <ele>79.6</ele>
        <time>2017-11-15T09:42:55Z</time>
      </trkpt>
      <trkpt lat="48.64254" lon="2.48692">
        <ele>79.4</ele>
        <time>2017-11-15T09:43:03Z</time>
      </trkpt>
      <trkpt lat="48.64259" lon="2.48705">
        <ele>79.3</ele>
        <time>2017-11-15T09:43:11Z</time>
      </trkpt>
      <trkpt lat="48.64264" lon="2.48717">
        <ele>79.2</ele>
        <time>2017-11-15T09:43:20Z</time>
      </trkpt>
      <trkpt lat="48.64267" lon="2.48731">
        <ele>79.1</ele>
        <time>2017-11-15T09:43:30Z</time>
      </trkpt>
      <trkpt lat="48.64272" lon="2.48745">
        <ele>79.1</ele>
        <time>2017-11-15T09:43:39Z</time>
      </trkpt>
      <trkpt lat="48.64275" lon="2.48757">
        <ele>79</ele>
        <time>2017-11-15T09:43:47Z</time>
      </trkpt>
      <trkpt lat="48.64279" lon="2.48771">
        <ele>79</ele>
        <time>2017-11-15T09:43:57Z</time>
      </trkpt>
      <trkpt lat="48.64282" lon="2.48784">
        <ele>79</ele>
        <time>2017-11-15T09:44:05Z</time>
      </trkpt>
      <trkpt lat="48.64285" lon="2.48797">
        <ele>78.9</ele>
        <time>2017-11-15T09:44:17Z</time>
      </trkpt>
      <trkpt lat="48.64287" lon="2.48811">
        <ele>78.7</ele>
        <time>2017-11-15T09:44:27Z</time>
      </trkpt>
      <trkpt lat="48.64293" lon="2.48823">
        <ele>78.7</ele>
        <time>2017-11-15T09:44:35Z</time>
      </trkpt>
      <trkpt lat="48.64297" lon="2.48835">
        <ele>78.6</ele>
        <time>2017-11-15T09:44:44Z</time>
      </trkpt>
      <trkpt lat="48.64301" lon="2.48848">
        <ele>78.5</ele>
        <time>2017-11-15T09:44:53Z</time>
      </trkpt>
      <trkpt lat="48.64307" lon="2.48859">
        <ele>78.3</ele>
        <time>2017-11-15T09:45:01Z</time>
      </trkpt>
      <trkpt lat="48.64311" lon="2.48871">
        <ele>78.2</ele>
        <time>2017-11-15T09:45:11Z</time>
      </trkpt>
      <trkpt lat="48.64314" lon="2.48884">
        <ele>78.3</ele>
        <time>2017-11-15T09:45:19Z</time>
      </trkpt>
      <trkpt lat="48.64317" lon="2.48899">
        <ele>78.5</ele>
        <time>2017-11-15T09:45:27Z</time>
      </trkpt>
      <trkpt lat="48.64323" lon="2.48909">
        <ele>78.4</ele>
        <time>2017-11-15T09:45:41Z</time>
      </trkpt>
      <trkpt lat="48.64326" lon="2.48924">
        <ele>78.4</ele>
        <time>2017-11-15T09:45:54Z</time>
      </trkpt>
      <trkpt lat="48.64329" lon="2.48938">
        <ele>78.2</ele>
        <time>2017-11-15T09:46:06Z</time>
      </trkpt>
      <trkpt lat="48.64335" lon="2.48949">
        <ele>78.3</ele>
        <time>2017-11-15T09:46:16Z</time>
      </trkpt>
      <trkpt lat="48.64339" lon="2.48961">
        <ele>78.2</ele>
        <time>2017-11-15T09:46:25Z</time>
      </trkpt>
      <trkpt lat="48.64341" lon="2.48975">
        <ele>78</ele>
        <time>2017-11-15T09:46:35Z</time>
      </trkpt>
      <trkpt lat="48.64335" lon="2.48985">
        <ele>78.2</ele>
        <time>2017-11-15T09:46:44Z</time>
      </trkpt>
      <trkpt lat="48.64327" lon="2.48993">
        <ele>77.7</ele>
        <time>2017-11-15T09:46:53Z</time>
      </trkpt>
      <trkpt lat="48.64317" lon="2.48996">
        <ele>77.2</ele>
        <time>2017-11-15T09:47:00Z</time>
      </trkpt>
      <trkpt lat="48.64308" lon="2.48999">
        <ele>76.5</ele>
        <time>2017-11-15T09:47:07Z</time>
      </trkpt>
      <trkpt lat="48.64299" lon="2.49006">
        <ele>76.3</ele>
        <time>2017-11-15T09:47:15Z</time>
      </trkpt>
      <trkpt lat="48.6429" lon="2.4901">
        <ele>75.5</ele>
        <time>2017-11-15T09:47:23Z</time>
      </trkpt>
      <trkpt lat="48.64279" lon="2.49009">
        <ele>75.1</ele>
        <time>2017-11-15T09:47:32Z</time>
      </trkpt>
      <trkpt lat="48.64269" lon="2.49011">
        <ele>74.6</ele>
        <time>2017-11-15T09:47:42Z</time>
      </trkpt>
      <trkpt lat="48.6426" lon="2.49009">
        <ele>74</ele>
        <time>2017-11-15T09:47:50Z</time>
      </trkpt>
      <trkpt lat="48.6425" lon="2.49006">
        <ele>73.7</ele>
        <time>2017-11-15T09:47:56Z</time>
      </trkpt>
      <trkpt lat="48.64241" lon="2.49007">
        <ele>73.3</ele>
        <time>2017-11-15T09:48:02Z</time>
      </trkpt>
      <trkpt lat="48.64232" lon="2.4901">
        <ele>72.5</ele>
        <time>2017-11-15T09:48:09Z</time>
      </trkpt>
      <trkpt lat="48.64223" lon="2.4901">
        <ele>72.2</ele>
        <time>2017-11-15T09:48:15Z</time>
      </trkpt>
      <trkpt lat="48.64213" lon="2.49009">
        <ele>71.7</ele>
        <time>2017-11-15T09:48:23Z</time>
      </trkpt>
      <trkpt lat="48.64203" lon="2.4901">
        <ele>71.3</ele>
        <time>2017-11-15T09:48:32Z</time>
      </trkpt>
      <trkpt lat="48.64193" lon="2.49012">
        <ele>70.8</ele>
        <time>2017-11-15T09:48:39Z</time>
      </trkpt>
      <trkpt lat="48.64185" lon="2.49015">
        <ele>69.9</ele>
        <time>2017-11-15T09:48:52Z</time>
      </trkpt>
      <trkpt lat="48.64177" lon="2.49025">
        <ele>69.3</ele>
        <time>2017-11-15T09:49:09Z</time>
      </trkpt>
      <trkpt lat="48.64168" lon="2.4903">
        <ele>68.3</ele>
        <time>2017-11-15T09:49:23Z</time>
      </trkpt>
      <trkpt lat="48.64161" lon="2.49039">
        <ele>67.5</ele>
        <time>2017-11-15T09:49:33Z</time>
      </trkpt>
      <trkpt lat="48.64152" lon="2.49044">
        <ele>66.5</ele>
        <time>2017-11-15T09:49:45Z</time>
      </trkpt>
      <trkpt lat="48.64144" lon="2.4905">
        <ele>64.8</ele>
        <time>2017-11-15T09:49:56Z</time>
      </trkpt>
      <trkpt lat="48.64135" lon="2.49057">
        <ele>63.4</ele>
        <time>2017-11-15T09:50:05Z</time>
      </trkpt>
      <trkpt lat="48.64129" lon="2.49068">
        <ele>61.9</ele>
        <time>2017-11-15T09:50:14Z</time>
      </trkpt>
      <trkpt lat="48.64122" lon="2.49077">
        <ele>61.4</ele>
        <time>2017-11-15T09:50:21Z</time>
      </trkpt>
      <trkpt lat="48.64112" lon="2.4908">
        <ele>61</ele>
        <time>2017-11-15T09:50:29Z</time>
      </trkpt>
      <trkpt lat="48.64104" lon="2.4909">
        <ele>60.2</ele>
        <time>2017-11-15T09:50:39Z</time>
      </trkpt>
      <trkpt lat="48.64095" lon="2.49095">
        <ele>59.4</ele>
        <time>2017-11-15T09:50:47Z</time>
      </trkpt>
      <trkpt lat="48.64085" lon="2.49096">
        <ele>58.8</ele>
        <time>2017-11-15T09:50:56Z</time>
      </trkpt>
      <trkpt lat="48.64077" lon="2.49103">
        <ele>58.1</ele>
        <time>2017-11-15T09:51:06Z</time>
      </trkpt>
      <trkpt lat="48.64068" lon="2.49108">
        <ele>57.3</ele>
        <time>2017-11-15T09:51:18Z</time>
      </trkpt>
      <trkpt lat="48.64065" lon="2.49123">
        <ele>56.9</ele>
        <time>2017-11-15T09:51:27Z</time>
      </trkpt>
      <trkpt lat="48.64056" lon="2.49126">
        <ele>57.3</ele>
        <time>2017-11-15T09:51:37Z</time>
      </trkpt>
      <trkpt lat="48.64047" lon="2.49129">
        <ele>56.7</ele>
        <time>2017-11-15T09:51:50Z</time>
      </trkpt>
      <trkpt lat="48.64041" lon="2.4914">
        <ele>57.7</ele>
        <time>2017-11-15T09:52:09Z</time>
      </trkpt>
      <trkpt lat="48.64032" lon="2.49135">
        <ele>57.5</ele>
        <time>2017-11-15T09:52:44Z</time>
      </trkpt>
      <trkpt lat="48.64023" lon="2.49139">
        <ele>57.5</ele>
        <time>2017-11-15T09:52:59Z</time>
      </trkpt>
      <trkpt lat="48.64014" lon="2.4914">
        <ele>57.5</ele>
        <time>2017-11-15T09:53:10Z</time>
      </trkpt>
      <trkpt lat="48.64005" lon="2.49141">
        <ele>57.8</ele>
        <time>2017-11-15T09:53:21Z</time>
      </trkpt>
      <trkpt lat="48.63996" lon="2.49146">
        <ele>58.1</ele>
        <time>2017-11-15T09:53:31Z</time>
      </trkpt>
      <trkpt lat="48.63987" lon="2.49149">
        <ele>58.6</ele>
        <time>2017-11-15T09:53:44Z</time>
      </trkpt>
      <trkpt lat="48.63979" lon="2.49157">
        <ele>59.1</ele>
        <time>2017-11-15T09:53:54Z</time>
      </trkpt>
      <trkpt lat="48.6397" lon="2.49159">
        <ele>59.4</ele>
        <time>2017-11-15T09:54:02Z</time>
      </trkpt>
      <trkpt lat="48.6396" lon="2.49165">
        <ele>60</ele>
        <time>2017-11-15T09:54:10Z</time>
      </trkpt>
      <trkpt lat="48.63952" lon="2.49171">
        <ele>60.8</ele>
        <time>2017-11-15T09:54:19Z</time>
      </trkpt>
      <trkpt lat="48.63942" lon="2.49173">
        <ele>61.6</ele>
        <time>2017-11-15T09:54:28Z</time>
      </trkpt>
      <trkpt lat="48.63934" lon="2.49177">
        <ele>62.5</ele>
        <time>2017-11-15T09:54:37Z</time>
      </trkpt>
      <trkpt lat="48.63924" lon="2.49177">
        <ele>63.2</ele>
        <time>2017-11-15T09:54:44Z</time>
      </trkpt>
      <trkpt lat="48.63918" lon="2.49189">
        <ele>64</ele>
        <time>2017-11-15T09:54:53Z</time>
      </trkpt>
      <trkpt lat="48.63908" lon="2.49188">
        <ele>64.5</ele>
        <time>2017-11-15T09:55:02Z</time>
      </trkpt>
      <trkpt lat="48.63901" lon="2.49197">
        <ele>65.3</ele>
        <time>2017-11-15T09:55:11Z</time>
      </trkpt>
      <trkpt lat="48.63891" lon="2.492">
        <ele>66</ele>
        <time>2017-11-15T09:55:21Z</time>
      </trkpt>
      <trkpt lat="48.63883" lon="2.49204">
        <ele>66.3</ele>
        <time>2017-11-15T09:55:29Z</time>
      </trkpt>
      <trkpt lat="48.63873" lon="2.49206">
        <ele>67</ele>
        <time>2017-11-15T09:55:37Z</time>
      </trkpt>
      <trkpt lat="48.63864" lon="2.4921">
        <ele>67.6</ele>
        <time>2017-11-15T09:55:48Z</time>
      </trkpt>
      <trkpt lat="48.6386" lon="2.49224">
        <ele>64.9</ele>
        <time>2017-11-15T09:55:54Z</time>
      </trkpt>
      <trkpt lat="48.63852" lon="2.49231">
        <ele>69</ele>
        <time>2017-11-15T09:56:05Z</time>
      </trkpt>
      <trkpt lat="48.63845" lon="2.4924">
        <ele>69.7</ele>
        <time>2017-11-15T09:56:16Z</time>
      </trkpt>
      <trkpt lat="48.63837" lon="2.49248">
        <ele>70.2</ele>
        <time>2017-11-15T09:56:25Z</time>
      </trkpt>
      <trkpt lat="48.63831" lon="2.49259">
        <ele>70.6</ele>
        <time>2017-11-15T09:56:34Z</time>
      </trkpt>
      <trkpt lat="48.63823" lon="2.49264">
        <ele>71.4</ele>
        <time>2017-11-15T09:56:44Z</time>
      </trkpt>
      <trkpt lat="48.63814" lon="2.4927">
        <ele>71.8</ele>
        <time>2017-11-15T09:56:54Z</time>
      </trkpt>
      <trkpt lat="48.63806" lon="2.49277">
        <ele>72.3</ele>
        <time>2017-11-15T09:57:03Z</time>
      </trkpt>
      <trkpt lat="48.63797" lon="2.49281">
        <ele>73</ele>
        <time>2017-11-15T09:57:13Z</time>
      </trkpt>
      <trkpt lat="48.63788" lon="2.49284">
        <ele>73.7</ele>
        <time>2017-11-15T09:57:23Z</time>
      </trkpt>
      <trkpt lat="48.63778" lon="2.49289">
        <ele>74.2</ele>
        <time>2017-11-15T09:57:30Z</time>
      </trkpt>
      <trkpt lat="48.6377" lon="2.49295">
        <ele>74.6</ele>
        <time>2017-11-15T09:57:39Z</time>
      </trkpt>
      <trkpt lat="48.63761" lon="2.49296">
        <ele>75.1</ele>
        <time>2017-11-15T09:57:45Z</time>
      </trkpt>
      <trkpt lat="48.63752" lon="2.49299">
        <ele>75.6</ele>
        <time>2017-11-15T09:57:54Z</time>
      </trkpt>
      <trkpt lat="48.63742" lon="2.49301">
        <ele>76.1</ele>
        <time>2017-11-15T09:58:02Z</time>
      </trkpt>
      <trkpt lat="48.63733" lon="2.49301">
        <ele>76.8</ele>
        <time>2017-11-15T09:58:14Z</time>
      </trkpt>
      <trkpt lat="48.63727" lon="2.49292">
        <ele>77.2</ele>
        <time>2017-11-15T09:58:33Z</time>
      </trkpt>
      <trkpt lat="48.63717" lon="2.49287">
        <ele>77.2</ele>
        <time>2017-11-15T09:58:49Z</time>
      </trkpt>
      <trkpt lat="48.63711" lon="2.49276">
        <ele>77.3</ele>
        <time>2017-11-15T09:59:01Z</time>
      </trkpt>
      <trkpt lat="48.63706" lon="2.49264">
        <ele>77.4</ele>
        <time>2017-11-15T09:59:09Z</time>
      </trkpt>
      <trkpt lat="48.63702" lon="2.49251">
        <ele>77.5</ele>
        <time>2017-11-15T09:59:16Z</time>
      </trkpt>
      <trkpt lat="48.63697" lon="2.49239">
        <ele>77.3</ele>
        <time>2017-11-15T09:59:23Z</time>
      </trkpt>
      <trkpt lat="48.63691" lon="2.49227">
        <ele>77.2</ele>
        <time>2017-11-15T09:59:30Z</time>
      </trkpt>
      <trkpt lat="48.63686" lon="2.49213">
        <ele>77.2</ele>
        <time>2017-11-15T09:59:38Z</time>
      </trkpt>
      <trkpt lat="48.63682" lon="2.49201">
        <ele>77.3</ele>
        <time>2017-11-15T09:59:46Z</time>
      </trkpt>
      <trkpt lat="48.63677" lon="2.49188">
        <ele>77.3</ele>
        <time>2017-11-15T09:59:55Z</time>
      </trkpt>
      <trkpt lat="48.63673" lon="2.49174">
        <ele>77.5</ele>
        <time>2017-11-15T10:00:03Z</time>
      </trkpt>
      <trkpt lat="48.63668" lon="2.49162">
        <ele>77.3</ele>
        <time>2017-11-15T10:00:12Z</time>
      </trkpt>
      <trkpt lat="48.63663" lon="2.49147">
        <ele>77.2</ele>
        <time>2017-11-15T10:00:20Z</time>
      </trkpt>
      <trkpt lat="48.63661" lon="2.49132">
        <ele>77.2</ele>
        <time>2017-11-15T10:00:27Z</time>
      </trkpt>
      <trkpt lat="48.63657" lon="2.49118">
        <ele>77</ele>
        <time>2017-11-15T10:00:35Z</time>
      </trkpt>
      <trkpt lat="48.63654" lon="2.49105">
        <ele>77</ele>
        <time>2017-11-15T10:00:42Z</time>
      </trkpt>
      <trkpt lat="48.6365" lon="2.4909">
        <ele>77</ele>
        <time>2017-11-15T10:00:49Z</time>
      </trkpt>
      <trkpt lat="48.63648" lon="2.49077">
        <ele>76.7</ele>
        <time>2017-11-15T10:00:57Z</time>
      </trkpt>
      <trkpt lat="48.63643" lon="2.49064">
        <ele>76.3</ele>
        <time>2017-11-15T10:01:11Z</time>
      </trkpt>
      <trkpt lat="48.63639" lon="2.4905">
        <ele>76.1</ele>
        <time>2017-11-15T10:01:20Z</time>
      </trkpt>
      <trkpt lat="48.63636" lon="2.49037">
        <ele>76</ele>
        <time>2017-11-15T10:01:28Z</time>
      </trkpt>
      <trkpt lat="48.63634" lon="2.49023">
        <ele>76</ele>
        <time>2017-11-15T10:01:36Z</time>
      </trkpt>
      <trkpt lat="48.6363" lon="2.49008">
        <ele>75.8</ele>
        <time>2017-11-15T10:01:45Z</time>
      </trkpt>
      <trkpt lat="48.63627" lon="2.48994">
        <ele>75.7</ele>
        <time>2017-11-15T10:01:54Z</time>
      </trkpt>
      <trkpt lat="48.63626" lon="2.4898">
        <ele>75.6</ele>
        <time>2017-11-15T10:02:01Z</time>
      </trkpt>
      <trkpt lat="48.63624" lon="2.48965">
        <ele>75.4</ele>
        <time>2017-11-15T10:02:10Z</time>
      </trkpt>
      <trkpt lat="48.63621" lon="2.48951">
        <ele>75.2</ele>
        <time>2017-11-15T10:02:17Z</time>
      </trkpt>
      <trkpt lat="48.63619" lon="2.48936">
        <ele>74.9</ele>
        <time>2017-11-15T10:02:26Z</time>
      </trkpt>
      <trkpt lat="48.63618" lon="2.48921">
        <ele>74.7</ele>
        <time>2017-11-15T10:02:34Z</time>
      </trkpt>
      <trkpt lat="48.63615" lon="2.48906">
        <ele>74.5</ele>
        <time>2017-11-15T10:02:43Z</time>
      </trkpt>
      <trkpt lat="48.63614" lon="2.48891">
        <ele>74.4</ele>
        <time>2017-11-15T10:02:51Z</time>
      </trkpt>
      <trkpt lat="48.63611" lon="2.48878">
        <ele>74.2</ele>
        <time>2017-11-15T10:02:58Z</time>
      </trkpt>
      <trkpt lat="48.63611" lon="2.48864">
        <ele>74.4</ele>
        <time>2017-11-15T10:03:05Z</time>
      </trkpt>
      <trkpt lat="48.6361" lon="2.4885">
        <ele>74.2</ele>
        <time>2017-11-15T10:03:13Z</time>
      </trkpt>
      <trkpt lat="48.63608" lon="2.48836">
        <ele>74.1</ele>
        <time>2017-11-15T10:03:21Z</time>
      </trkpt>
      <trkpt lat="48.63604" lon="2.48822">
        <ele>74.1</ele>
        <time>2017-11-15T10:03:30Z</time>
      </trkpt>
      <trkpt lat="48.63603" lon="2.48806">
        <ele>74.1</ele>
        <time>2017-11-15T10:03:39Z</time>
      </trkpt>
      <trkpt lat="48.63601" lon="2.48792">
        <ele>74.1</ele>
        <time>2017-11-15T10:03:47Z</time>
      </trkpt>
      <trkpt lat="48.636" lon="2.48778">
        <ele>74.2</ele>
        <time>2017-11-15T10:03:55Z</time>
      </trkpt>
      <trkpt lat="48.63598" lon="2.48764">
        <ele>74.3</ele>
        <time>2017-11-15T10:04:03Z</time>
      </trkpt>
      <trkpt lat="48.63595" lon="2.48749">
        <ele>74.4</ele>
        <time>2017-11-15T10:04:12Z</time>
      </trkpt>
      <trkpt lat="48.63592" lon="2.48736">
        <ele>74.6</ele>
        <time>2017-11-15T10:04:20Z</time>
      </trkpt>
      <trkpt lat="48.63589" lon="2.48722">
        <ele>74.7</ele>
        <time>2017-11-15T10:04:28Z</time>
      </trkpt>
      <trkpt lat="48.63587" lon="2.48708">
        <ele>74.8</ele>
        <time>2017-11-15T10:04:35Z</time>
      </trkpt>
      <trkpt lat="48.63585" lon="2.48692">
        <ele>74.8</ele>
        <time>2017-11-15T10:04:43Z</time>
      </trkpt>
      <trkpt lat="48.63586" lon="2.48679">
        <ele>74.6</ele>
        <time>2017-11-15T10:04:50Z</time>
      </trkpt>
      <trkpt lat="48.63584" lon="2.48664">
        <ele>74.5</ele>
        <time>2017-11-15T10:04:58Z</time>
      </trkpt>
      <trkpt lat="48.63581" lon="2.4865">
        <ele>74.7</ele>
        <time>2017-11-15T10:05:05Z</time>
      </trkpt>
      <trkpt lat="48.63578" lon="2.48636">
        <ele>74.8</ele>
        <time>2017-11-15T10:05:13Z</time>
      </trkpt>
      <trkpt lat="48.63578" lon="2.48622">
        <ele>74.8</ele>
        <time>2017-11-15T10:05:20Z</time>
      </trkpt>
      <trkpt lat="48.63574" lon="2.48608">
        <ele>74.9</ele>
        <time>2017-11-15T10:05:28Z</time>
      </trkpt>
      <trkpt lat="48.63572" lon="2.48594">
        <ele>74.9</ele>
        <time>2017-11-15T10:05:37Z</time>
      </trkpt>
      <trkpt lat="48.6357" lon="2.4858">
        <ele>74.9</ele>
        <time>2017-11-15T10:05:45Z</time>
      </trkpt>
      <trkpt lat="48.63569" lon="2.48565">
        <ele>74.9</ele>
        <time>2017-11-15T10:05:53Z</time>
      </trkpt>
      <trkpt lat="48.63566" lon="2.48552">
        <ele>75</ele>
        <time>2017-11-15T10:06:00Z</time>
      </trkpt>
      <trkpt lat="48.63564" lon="2.48539">
        <ele>75.1</ele>
        <time>2017-11-15T10:06:07Z</time>
      </trkpt>
      <trkpt lat="48.63561" lon="2.48525">
        <ele>75.3</ele>
        <time>2017-11-15T10:06:15Z</time>
      </trkpt>
      <trkpt lat="48.63558" lon="2.48511">
        <ele>75.3</ele>
        <time>2017-11-15T10:06:23Z</time>
      </trkpt>
      <trkpt lat="48.63554" lon="2.48496">
        <ele>75.1</ele>
        <time>2017-11-15T10:06:32Z</time>
      </trkpt>
      <trkpt lat="48.6355" lon="2.48483">
        <ele>75.2</ele>
        <time>2017-11-15T10:06:41Z</time>
      </trkpt>
      <trkpt lat="48.63548" lon="2.48469">
        <ele>75.2</ele>
        <time>2017-11-15T10:06:49Z</time>
      </trkpt>
      <trkpt lat="48.63545" lon="2.48455">
        <ele>75.2</ele>
        <time>2017-11-15T10:06:57Z</time>
      </trkpt>
      <trkpt lat="48.63541" lon="2.48441">
        <ele>75.3</ele>
        <time>2017-11-15T10:07:05Z</time>
      </trkpt>
      <trkpt lat="48.63538" lon="2.48427">
        <ele>75.3</ele>
        <time>2017-11-15T10:07:14Z</time>
      </trkpt>
      <trkpt lat="48.63534" lon="2.48413">
        <ele>75.6</ele>
        <time>2017-11-15T10:07:22Z</time>
      </trkpt>
      <trkpt lat="48.6353" lon="2.48398">
        <ele>75.5</ele>
        <time>2017-11-15T10:07:31Z</time>
      </trkpt>
      <trkpt lat="48.63526" lon="2.48385">
        <ele>75.8</ele>
        <time>2017-11-15T10:07:39Z</time>
      </trkpt>
      <trkpt lat="48.63522" lon="2.48372">
        <ele>76.1</ele>
        <time>2017-11-15T10:07:46Z</time>
      </trkpt>
      <trkpt lat="48.63517" lon="2.48359">
        <ele>76.4</ele>
        <time>2017-11-15T10:07:54Z</time>
      </trkpt>
      <trkpt lat="48.63513" lon="2.48346">
        <ele>76.7</ele>
        <time>2017-11-15T10:08:01Z</time>
      </trkpt>
      <trkpt lat="48.6351" lon="2.48332">
        <ele>76.8</ele>
        <time>2017-11-15T10:08:09Z</time>
      </trkpt>
      <trkpt lat="48.63507" lon="2.48319">
        <ele>76.9</ele>
        <time>2017-11-15T10:08:17Z</time>
      </trkpt>
      <trkpt lat="48.63504" lon="2.48306">
        <ele>77</ele>
        <time>2017-11-15T10:08:24Z</time>
      </trkpt>
      <trkpt lat="48.635" lon="2.48293">
        <ele>76.9</ele>
        <time>2017-11-15T10:08:31Z</time>
      </trkpt>
      <trkpt lat="48.63497" lon="2.48279">
        <ele>77.1</ele>
        <time>2017-11-15T10:08:39Z</time>
      </trkpt>
      <trkpt lat="48.63495" lon="2.48266">
        <ele>77.3</ele>
        <time>2017-11-15T10:08:47Z</time>
      </trkpt>
      <trkpt lat="48.63492" lon="2.48251">
        <ele>77.3</ele>
        <time>2017-11-15T10:08:55Z</time>
      </trkpt>
      <trkpt lat="48.63489" lon="2.48237">
        <ele>77.4</ele>
        <time>2017-11-15T10:09:02Z</time>
      </trkpt>
      <trkpt lat="48.63487" lon="2.48223">
        <ele>77.2</ele>
        <time>2017-11-15T10:09:09Z</time>
      </trkpt>
      <trkpt lat="48.63483" lon="2.48209">
        <ele>77.3</ele>
        <time>2017-11-15T10:09:17Z</time>
      </trkpt>
      <trkpt lat="48.63481" lon="2.48196">
        <ele>77.3</ele>
        <time>2017-11-15T10:09:25Z</time>
      </trkpt>
      <trkpt lat="48.63478" lon="2.48182">
        <ele>77.5</ele>
        <time>2017-11-15T10:09:32Z</time>
      </trkpt>
      <trkpt lat="48.63476" lon="2.48168">
        <ele>77.4</ele>
        <time>2017-11-15T10:09:39Z</time>
      </trkpt>
      <trkpt lat="48.63474" lon="2.48154">
        <ele>77.6</ele>
        <time>2017-11-15T10:09:47Z</time>
      </trkpt>
      <trkpt lat="48.63472" lon="2.48139">
        <ele>77.5</ele>
        <time>2017-11-15T10:09:55Z</time>
      </trkpt>
      <trkpt lat="48.63471" lon="2.48125">
        <ele>77.4</ele>
        <time>2017-11-15T10:10:03Z</time>
      </trkpt>
      <trkpt lat="48.63471" lon="2.48111">
        <ele>77</ele>
        <time>2017-11-15T10:10:11Z</time>
      </trkpt>
      <trkpt lat="48.6347" lon="2.48096">
        <ele>76.6</ele>
        <time>2017-11-15T10:10:22Z</time>
      </trkpt>
      <trkpt lat="48.63471" lon="2.48081">
        <ele>76.5</ele>
        <time>2017-11-15T10:10:31Z</time>
      </trkpt>
      <trkpt lat="48.63472" lon="2.48066">
        <ele>76.1</ele>
        <time>2017-11-15T10:10:39Z</time>
      </trkpt>
      <trkpt lat="48.63472" lon="2.48051">
        <ele>76</ele>
        <time>2017-11-15T10:10:47Z</time>
      </trkpt>
      <trkpt lat="48.63468" lon="2.48038">
        <ele>76</ele>
        <time>2017-11-15T10:12:07Z</time>
      </trkpt>
      <trkpt lat="48.63461" lon="2.48029">
        <ele>75.8</ele>
        <time>2017-11-15T10:12:17Z</time>
      </trkpt>
      <trkpt lat="48.63464" lon="2.48013">
        <ele>75.5</ele>
        <time>2017-11-15T10:12:44Z</time>
      </trkpt>
      <trkpt lat="48.63469" lon="2.48001">
        <ele>75.4</ele>
        <time>2017-11-15T10:12:52Z</time>
      </trkpt>
      <trkpt lat="48.63469" lon="2.47986">
        <ele>75</ele>
        <time>2017-11-15T10:13:01Z</time>
      </trkpt>
      <trkpt lat="48.6347" lon="2.47972">
        <ele>74.6</ele>
        <time>2017-11-15T10:13:13Z</time>
      </trkpt>
      <trkpt lat="48.63464" lon="2.47961">
        <ele>74.5</ele>
        <time>2017-11-15T10:13:57Z</time>
      </trkpt>
      <trkpt lat="48.63468" lon="2.47949">
        <ele>74.8</ele>
        <time>2017-11-15T10:20:23Z</time>
      </trkpt>
      <trkpt lat="48.63478" lon="2.47954">
        <ele>75</ele>
        <time>2017-11-15T10:25:24Z</time>
      </trkpt>
      <trkpt lat="48.63477" lon="2.47939">
        <ele>74.7</ele>
        <time>2017-11-15T10:25:41Z</time>
      </trkpt>
      <trkpt lat="48.63475" lon="2.47926">
        <ele>74.1</ele>
        <time>2017-11-15T10:25:50Z</time>
      </trkpt>
      <trkpt lat="48.63476" lon="2.4791">
        <ele>73.7</ele>
        <time>2017-11-15T10:26:01Z</time>
      </trkpt>
      <trkpt lat="48.63473" lon="2.47896">
        <ele>72.9</ele>
        <time>2017-11-15T10:26:11Z</time>
      </trkpt>
      <trkpt lat="48.63473" lon="2.47881">
        <ele>72</ele>
        <time>2017-11-15T10:26:19Z</time>
      </trkpt>
      <trkpt lat="48.63474" lon="2.47867">
        <ele>71.9</ele>
        <time>2017-11-15T10:26:25Z</time>
      </trkpt>
      <trkpt lat="48.63474" lon="2.47853">
        <ele>71.2</ele>
        <time>2017-11-15T10:26:35Z</time>
      </trkpt>
      <trkpt lat="48.63475" lon="2.47837">
        <ele>70.8</ele>
        <time>2017-11-15T10:26:42Z</time>
      </trkpt>
      <trkpt lat="48.63479" lon="2.47824">
        <ele>70.5</ele>
        <time>2017-11-15T10:26:51Z</time>
      </trkpt>
      <trkpt lat="48.63482" lon="2.4781">
        <ele>70.2</ele>
        <time>2017-11-15T10:27:02Z</time>
      </trkpt>
      <trkpt lat="48.63484" lon="2.47797">
        <ele>69.9</ele>
        <time>2017-11-15T10:27:11Z</time>
      </trkpt>
      <trkpt lat="48.63488" lon="2.47784">
        <ele>69.6</ele>
        <time>2017-11-15T10:27:19Z</time>
      </trkpt>
      <trkpt lat="48.6349" lon="2.4777">
        <ele>69.2</ele>
        <time>2017-11-15T10:27:29Z</time>
      </trkpt>
      <trkpt lat="48.6349" lon="2.47756">
        <ele>68.9</ele>
        <time>2017-11-15T10:27:35Z</time>
      </trkpt>
      <trkpt lat="48.63494" lon="2.47744">
        <ele>68.7</ele>
        <time>2017-11-15T10:27:43Z</time>
      </trkpt>
      <trkpt lat="48.63498" lon="2.47732">
        <ele>68.3</ele>
        <time>2017-11-15T10:27:49Z</time>
      </trkpt>
      <trkpt lat="48.63504" lon="2.47721">
        <ele>67.7</ele>
        <time>2017-11-15T10:27:56Z</time>
      </trkpt>
      <trkpt lat="48.6351" lon="2.47707">
        <ele>66.5</ele>
        <time>2017-11-15T10:28:08Z</time>
      </trkpt>
      <trkpt lat="48.63515" lon="2.47696">
        <ele>65.7</ele>
        <time>2017-11-15T10:28:16Z</time>
      </trkpt>
      <trkpt lat="48.63518" lon="2.47681">
        <ele>64.4</ele>
        <time>2017-11-15T10:28:27Z</time>
      </trkpt>
      <trkpt lat="48.63525" lon="2.4767">
        <ele>63.7</ele>
        <time>2017-11-15T10:28:35Z</time>
      </trkpt>
      <trkpt lat="48.63533" lon="2.47663">
        <ele>62.8</ele>
        <time>2017-11-15T10:28:44Z</time>
      </trkpt>
      <trkpt lat="48.63539" lon="2.47651">
        <ele>62.1</ele>
        <time>2017-11-15T10:28:52Z</time>
      </trkpt>
      <trkpt lat="48.63546" lon="2.47642">
        <ele>61.3</ele>
        <time>2017-11-15T10:29:01Z</time>
      </trkpt>
      <trkpt lat="48.63553" lon="2.47631">
        <ele>60.2</ele>
        <time>2017-11-15T10:29:10Z</time>
      </trkpt>
      <trkpt lat="48.63561" lon="2.4762">
        <ele>58.4</ele>
        <time>2017-11-15T10:29:21Z</time>
      </trkpt>
      <trkpt lat="48.63564" lon="2.47607">
        <ele>57.8</ele>
        <time>2017-11-15T10:29:27Z</time>
      </trkpt>
      <trkpt lat="48.63569" lon="2.47595">
        <ele>56.6</ele>
        <time>2017-11-15T10:29:36Z</time>
      </trkpt>
      <trkpt lat="48.63573" lon="2.47581">
        <ele>55.4</ele>
        <time>2017-11-15T10:29:43Z</time>
      </trkpt>
      <trkpt lat="48.63579" lon="2.4757">
        <ele>54</ele>
        <time>2017-11-15T10:29:50Z</time>
      </trkpt>
      <trkpt lat="48.63584" lon="2.47558">
        <ele>53.4</ele>
        <time>2017-11-15T10:29:58Z</time>
      </trkpt>
      <trkpt lat="48.63589" lon="2.47546">
        <ele>52.2</ele>
        <time>2017-11-15T10:30:05Z</time>
      </trkpt>
      <trkpt lat="48.63595" lon="2.47536">
        <ele>51.4</ele>
        <time>2017-11-15T10:30:11Z</time>
      </trkpt>
      <trkpt lat="48.63599" lon="2.47523">
        <ele>50.4</ele>
        <time>2017-11-15T10:30:20Z</time>
      </trkpt>
      <trkpt lat="48.63607" lon="2.47516">
        <ele>49.8</ele>
        <time>2017-11-15T10:30:26Z</time>
      </trkpt>
      <trkpt lat="48.63614" lon="2.47504">
        <ele>48.9</ele>
        <time>2017-11-15T10:30:35Z</time>
      </trkpt>
      <trkpt lat="48.63621" lon="2.47496">
        <ele>48.2</ele>
        <time>2017-11-15T10:30:43Z</time>
      </trkpt>
      <trkpt lat="48.63629" lon="2.47486">
        <ele>47.4</ele>
        <time>2017-11-15T10:30:51Z</time>
      </trkpt>
      <trkpt lat="48.63633" lon="2.47472">
        <ele>46.8</ele>
        <time>2017-11-15T10:30:59Z</time>
      </trkpt>
      <trkpt lat="48.63639" lon="2.47461">
        <ele>46.1</ele>
        <time>2017-11-15T10:31:09Z</time>
      </trkpt>
      <trkpt lat="48.63646" lon="2.47451">
        <ele>45.8</ele>
        <time>2017-11-15T10:31:17Z</time>
      </trkpt>
      <trkpt lat="48.63653" lon="2.47441">
        <ele>45.5</ele>
        <time>2017-11-15T10:31:25Z</time>
      </trkpt>
      <trkpt lat="48.63657" lon="2.47427">
        <ele>45.6</ele>
        <time>2017-11-15T10:31:32Z</time>
      </trkpt>
      <trkpt lat="48.63661" lon="2.47414">
        <ele>46</ele>
        <time>2017-11-15T10:31:39Z</time>
      </trkpt>
      <trkpt lat="48.63666" lon="2.474">
        <ele>46.5</ele>
        <time>2017-11-15T10:31:47Z</time>
      </trkpt>
      <trkpt lat="48.6367" lon="2.47386">
        <ele>47.1</ele>
        <time>2017-11-15T10:31:54Z</time>
      </trkpt>
      <trkpt lat="48.6367" lon="2.47372">
        <ele>47.7</ele>
        <time>2017-11-15T10:32:01Z</time>
      </trkpt>
      <trkpt lat="48.63665" lon="2.47357">
        <ele>48.5</ele>
        <time>2017-11-15T10:32:08Z</time>
      </trkpt>
      <trkpt lat="48.63662" lon="2.47344">
        <ele>49.3</ele>
        <time>2017-11-15T10:32:16Z</time>
      </trkpt>
      <trkpt lat="48.63662" lon="2.4733">
        <ele>50.5</ele>
        <time>2017-11-15T10:32:43Z</time>
      </trkpt>
      <trkpt lat="48.63661" lon="2.47314">
        <ele>50.7</ele>
        <time>2017-11-15T10:32:58Z</time>
      </trkpt>
      <trkpt lat="48.63664" lon="2.47299">
        <ele>51.2</ele>
        <time>2017-11-15T10:33:13Z</time>
      </trkpt>
      <trkpt lat="48.63671" lon="2.4729">
        <ele>51.4</ele>
        <time>2017-11-15T10:33:23Z</time>
      </trkpt>
      <trkpt lat="48.63678" lon="2.47279">
        <ele>52</ele>
        <time>2017-11-15T10:33:33Z</time>
      </trkpt>
      <trkpt lat="48.63681" lon="2.47265">
        <ele>52.6</ele>
        <time>2017-11-15T10:33:42Z</time>
      </trkpt>
      <trkpt lat="48.63684" lon="2.47252">
        <ele>53</ele>
        <time>2017-11-15T10:33:52Z</time>
      </trkpt>
      <trkpt lat="48.63684" lon="2.47238">
        <ele>53.1</ele>
        <time>2017-11-15T10:34:01Z</time>
      </trkpt>
      <trkpt lat="48.63683" lon="2.47224">
        <ele>53.1</ele>
        <time>2017-11-15T10:34:07Z</time>
      </trkpt>
      <trkpt lat="48.63683" lon="2.47209">
        <ele>53.1</ele>
        <time>2017-11-15T10:34:14Z</time>
      </trkpt>
      <trkpt lat="48.63684" lon="2.47195">
        <ele>53.2</ele>
        <time>2017-11-15T10:34:21Z</time>
      </trkpt>
      <trkpt lat="48.63686" lon="2.47181">
        <ele>53.1</ele>
        <time>2017-11-15T10:34:30Z</time>
      </trkpt>
      <trkpt lat="48.63685" lon="2.47166">
        <ele>53</ele>
        <time>2017-11-15T10:34:40Z</time>
      </trkpt>
      <trkpt lat="48.63683" lon="2.47153">
        <ele>53.2</ele>
        <time>2017-11-15T10:34:46Z</time>
      </trkpt>
      <trkpt lat="48.63688" lon="2.47142">
        <ele>53.3</ele>
        <time>2017-11-15T10:35:08Z</time>
      </trkpt>
      <trkpt lat="48.63697" lon="2.47148">
        <ele>54.1</ele>
        <time>2017-11-15T10:35:24Z</time>
      </trkpt>
      <trkpt lat="48.63706" lon="2.47147">
        <ele>54.8</ele>
        <time>2017-11-15T10:35:36Z</time>
      </trkpt>
      <trkpt lat="48.63715" lon="2.47147">
        <ele>55.5</ele>
        <time>2017-11-15T10:35:44Z</time>
      </trkpt>
      <trkpt lat="48.63725" lon="2.47144">
        <ele>56.4</ele>
        <time>2017-11-15T10:35:53Z</time>
      </trkpt>
      <trkpt lat="48.63734" lon="2.47139">
        <ele>57.4</ele>
        <time>2017-11-15T10:36:02Z</time>
      </trkpt>
      <trkpt lat="48.63742" lon="2.47131">
        <ele>57.9</ele>
        <time>2017-11-15T10:36:11Z</time>
      </trkpt>
      <trkpt lat="48.63752" lon="2.4713">
        <ele>58.5</ele>
        <time>2017-11-15T10:36:19Z</time>
      </trkpt>
      <trkpt lat="48.6376" lon="2.47122">
        <ele>59</ele>
        <time>2017-11-15T10:36:27Z</time>
      </trkpt>
      <trkpt lat="48.63766" lon="2.47112">
        <ele>59.6</ele>
        <time>2017-11-15T10:36:34Z</time>
      </trkpt>
      <trkpt lat="48.63774" lon="2.47102">
        <ele>60.1</ele>
        <time>2017-11-15T10:36:43Z</time>
      </trkpt>
      <trkpt lat="48.63781" lon="2.47092">
        <ele>60.9</ele>
        <time>2017-11-15T10:36:50Z</time>
      </trkpt>
      <trkpt lat="48.6379" lon="2.47085">
        <ele>61.3</ele>
        <time>2017-11-15T10:36:59Z</time>
      </trkpt>
      <trkpt lat="48.63798" lon="2.47075">
        <ele>61.8</ele>
        <time>2017-11-15T10:37:07Z</time>
      </trkpt>
      <trkpt lat="48.63807" lon="2.47071">
        <ele>62.7</ele>
        <time>2017-11-15T10:37:19Z</time>
      </trkpt>
      <trkpt lat="48.63815" lon="2.47065">
        <ele>63.5</ele>
        <time>2017-11-15T10:37:30Z</time>
      </trkpt>
      <trkpt lat="48.63824" lon="2.47058">
        <ele>64.2</ele>
        <time>2017-11-15T10:37:41Z</time>
      </trkpt>
      <trkpt lat="48.6383" lon="2.47049">
        <ele>64.9</ele>
        <time>2017-11-15T10:37:49Z</time>
      </trkpt>
      <trkpt lat="48.63839" lon="2.47041">
        <ele>65.5</ele>
        <time>2017-11-15T10:37:59Z</time>
      </trkpt>
      <trkpt lat="48.63847" lon="2.47031">
        <ele>66.3</ele>
        <time>2017-11-15T10:38:09Z</time>
      </trkpt>
      <trkpt lat="48.63855" lon="2.47027">
        <ele>66.6</ele>
        <time>2017-11-15T10:38:15Z</time>
      </trkpt>
      <trkpt lat="48.63864" lon="2.47021">
        <ele>67.2</ele>
        <time>2017-11-15T10:38:21Z</time>
      </trkpt>
      <trkpt lat="48.63872" lon="2.47014">
        <ele>67.8</ele>
        <time>2017-11-15T10:38:28Z</time>
      </trkpt>
      <trkpt lat="48.63881" lon="2.47008">
        <ele>68.3</ele>
        <time>2017-11-15T10:38:35Z</time>
      </trkpt>
      <trkpt lat="48.6389" lon="2.47002">
        <ele>69</ele>
        <time>2017-11-15T10:38:42Z</time>
      </trkpt>
      <trkpt lat="48.63898" lon="2.46995">
        <ele>69.5</ele>
        <time>2017-11-15T10:38:50Z</time>
      </trkpt>
      <trkpt lat="48.63907" lon="2.46987">
        <ele>70</ele>
        <time>2017-11-15T10:38:57Z</time>
      </trkpt>
      <trkpt lat="48.63916" lon="2.46978">
        <ele>70.7</ele>
        <time>2017-11-15T10:39:05Z</time>
      </trkpt>
      <trkpt lat="48.63923" lon="2.4697">
        <ele>71.2</ele>
        <time>2017-11-15T10:39:12Z</time>
      </trkpt>
      <trkpt lat="48.63932" lon="2.46963">
        <ele>71.6</ele>
        <time>2017-11-15T10:39:19Z</time>
      </trkpt>
      <trkpt lat="48.6394" lon="2.46956">
        <ele>72</ele>
        <time>2017-11-15T10:39:26Z</time>
      </trkpt>
      <trkpt lat="48.63947" lon="2.46948">
        <ele>72.7</ele>
        <time>2017-11-15T10:39:35Z</time>
      </trkpt>
      <trkpt lat="48.63954" lon="2.46939">
        <ele>73.3</ele>
        <time>2017-11-15T10:39:42Z</time>
      </trkpt>
      <trkpt lat="48.63963" lon="2.46934">
        <ele>73.8</ele>
        <time>2017-11-15T10:39:51Z</time>
      </trkpt>
      <trkpt lat="48.6397" lon="2.46925">
        <ele>74.2</ele>
        <time>2017-11-15T10:40:00Z</time>
      </trkpt>
      <trkpt lat="48.63978" lon="2.46917">
        <ele>74.7</ele>
        <time>2017-11-15T10:40:09Z</time>
      </trkpt>
      <trkpt lat="48.63985" lon="2.46907">
        <ele>75.5</ele>
        <time>2017-11-15T10:40:19Z</time>
      </trkpt>
      <trkpt lat="48.63992" lon="2.46897">
        <ele>75.7</ele>
        <time>2017-11-15T10:40:26Z</time>
      </trkpt>
      <trkpt lat="48.64001" lon="2.46892">
        <ele>75.8</ele>
        <time>2017-11-15T10:40:34Z</time>
      </trkpt>
      <trkpt lat="48.6401" lon="2.46887">
        <ele>76.1</ele>
        <time>2017-11-15T10:40:42Z</time>
      </trkpt>
      <trkpt lat="48.64018" lon="2.46881">
        <ele>76.6</ele>
        <time>2017-11-15T10:40:50Z</time>
      </trkpt>
      <trkpt lat="48.64027" lon="2.46876">
        <ele>76.8</ele>
        <time>2017-11-15T10:40:57Z</time>
      </trkpt>
      <trkpt lat="48.64036" lon="2.4687">
        <ele>77.2</ele>
        <time>2017-11-15T10:41:06Z</time>
      </trkpt>
      <trkpt lat="48.64042" lon="2.46858">
        <ele>77.4</ele>
        <time>2017-11-15T10:41:14Z</time>
      </trkpt>
      <trkpt lat="48.6405" lon="2.46853">
        <ele>77.7</ele>
        <time>2017-11-15T10:41:22Z</time>
      </trkpt>
      <trkpt lat="48.64059" lon="2.46847">
        <ele>77.7</ele>
        <time>2017-11-15T10:41:29Z</time>
      </trkpt>
      <trkpt lat="48.64069" lon="2.46846">
        <ele>77.9</ele>
        <time>2017-11-15T10:41:35Z</time>
      </trkpt>
      <trkpt lat="48.64078" lon="2.46842">
        <ele>78.1</ele>
        <time>2017-11-15T10:41:42Z</time>
      </trkpt>
      <trkpt lat="48.64087" lon="2.46837">
        <ele>78.1</ele>
        <time>2017-11-15T10:41:49Z</time>
      </trkpt>
      <trkpt lat="48.64096" lon="2.46836">
        <ele>78.2</ele>
        <time>2017-11-15T10:41:56Z</time>
      </trkpt>
      <trkpt lat="48.64105" lon="2.46832">
        <ele>78.7</ele>
        <time>2017-11-15T10:42:04Z</time>
      </trkpt>
      <trkpt lat="48.64113" lon="2.46825">
        <ele>78.9</ele>
        <time>2017-11-15T10:42:12Z</time>
      </trkpt>
      <trkpt lat="48.64121" lon="2.46816">
        <ele>79</ele>
        <time>2017-11-15T10:42:20Z</time>
      </trkpt>
      <trkpt lat="48.64129" lon="2.4681">
        <ele>79</ele>
        <time>2017-11-15T10:42:27Z</time>
      </trkpt>
      <trkpt lat="48.64137" lon="2.46802">
        <ele>78.6</ele>
        <time>2017-11-15T10:42:35Z</time>
      </trkpt>
      <trkpt lat="48.64145" lon="2.46793">
        <ele>78.8</ele>
        <time>2017-11-15T10:42:43Z</time>
      </trkpt>
      <trkpt lat="48.64151" lon="2.46782">
        <ele>79.7</ele>
        <time>2017-11-15T10:42:51Z</time>
      </trkpt>
      <trkpt lat="48.6416" lon="2.46775">
        <ele>79.5</ele>
        <time>2017-11-15T10:42:58Z</time>
      </trkpt>
      <trkpt lat="48.64167" lon="2.46767">
        <ele>79.5</ele>
        <time>2017-11-15T10:43:05Z</time>
      </trkpt>
      <trkpt lat="48.64176" lon="2.46759">
        <ele>79.5</ele>
        <time>2017-11-15T10:43:13Z</time>
      </trkpt>
      <trkpt lat="48.64185" lon="2.46752">
        <ele>79.6</ele>
        <time>2017-11-15T10:43:20Z</time>
      </trkpt>
      <trkpt lat="48.64193" lon="2.46747">
        <ele>79.8</ele>
        <time>2017-11-15T10:43:28Z</time>
      </trkpt>
      <trkpt lat="48.64204" lon="2.46742">
        <ele>80.1</ele>
        <time>2017-11-15T10:43:37Z</time>
      </trkpt>
      <trkpt lat="48.64212" lon="2.46736">
        <ele>80.1</ele>
        <time>2017-11-15T10:43:46Z</time>
      </trkpt>
      <trkpt lat="48.64221" lon="2.46734">
        <ele>80.3</ele>
        <time>2017-11-15T10:43:54Z</time>
      </trkpt>
      <trkpt lat="48.64229" lon="2.46727">
        <ele>80.4</ele>
        <time>2017-11-15T10:44:02Z</time>
      </trkpt>
      <trkpt lat="48.64238" lon="2.46723">
        <ele>80.7</ele>
        <time>2017-11-15T10:44:10Z</time>
      </trkpt>
      <trkpt lat="48.64248" lon="2.4672">
        <ele>81.1</ele>
        <time>2017-11-15T10:44:18Z</time>
      </trkpt>
      <trkpt lat="48.64256" lon="2.46713">
        <ele>81.1</ele>
        <time>2017-11-15T10:44:25Z</time>
      </trkpt>
      <trkpt lat="48.64262" lon="2.46703">
        <ele>81.5</ele>
        <time>2017-11-15T10:44:32Z</time>
      </trkpt>
      <trkpt lat="48.64264" lon="2.46689">
        <ele>81.6</ele>
        <time>2017-11-15T10:44:41Z</time>
      </trkpt>
      <trkpt lat="48.64265" lon="2.46674">
        <ele>81.4</ele>
        <time>2017-11-15T10:44:51Z</time>
      </trkpt>
      <trkpt lat="48.64264" lon="2.4666">
        <ele>80.7</ele>
        <time>2017-11-15T10:45:11Z</time>
      </trkpt>
      <trkpt lat="48.64273" lon="2.46656">
        <ele>79.8</ele>
        <time>2017-11-15T10:45:40Z</time>
      </trkpt>
      <trkpt lat="48.64283" lon="2.46655">
        <ele>80.7</ele>
        <time>2017-11-15T10:45:51Z</time>
      </trkpt>
      <trkpt lat="48.64293" lon="2.46654">
        <ele>81.1</ele>
        <time>2017-11-15T10:46:00Z</time>
      </trkpt>
      <trkpt lat="48.64302" lon="2.46651">
        <ele>81.5</ele>
        <time>2017-11-15T10:46:10Z</time>
      </trkpt>
      <trkpt lat="48.64311" lon="2.4665">
        <ele>81.7</ele>
        <time>2017-11-15T10:46:17Z</time>
      </trkpt>
      <trkpt lat="48.6432" lon="2.46649">
        <ele>81.8</ele>
        <time>2017-11-15T10:46:27Z</time>
      </trkpt>
      <trkpt lat="48.6433" lon="2.46648">
        <ele>81.8</ele>
        <time>2017-11-15T10:46:36Z</time>
      </trkpt>
      <trkpt lat="48.6434" lon="2.46651">
        <ele>82.1</ele>
        <time>2017-11-15T10:46:47Z</time>
      </trkpt>
      <trkpt lat="48.64349" lon="2.46648">
        <ele>82.2</ele>
        <time>2017-11-15T10:46:57Z</time>
      </trkpt>
      <trkpt lat="48.64357" lon="2.46641">
        <ele>82.1</ele>
        <time>2017-11-15T10:47:07Z</time>
      </trkpt>
      <trkpt lat="48.64365" lon="2.46634">
        <ele>82.3</ele>
        <time>2017-11-15T10:47:15Z</time>
      </trkpt>
      <trkpt lat="48.64373" lon="2.46626">
        <ele>82.5</ele>
        <time>2017-11-15T10:47:23Z</time>
      </trkpt>
      <trkpt lat="48.64381" lon="2.4662">
        <ele>82.7</ele>
        <time>2017-11-15T10:47:31Z</time>
      </trkpt>
      <trkpt lat="48.64389" lon="2.4661">
        <ele>82.6</ele>
        <time>2017-11-15T10:47:40Z</time>
      </trkpt>
      <trkpt lat="48.64397" lon="2.46602">
        <ele>82.7</ele>
        <time>2017-11-15T10:47:48Z</time>
      </trkpt>
      <trkpt lat="48.64404" lon="2.46591">
        <ele>82.9</ele>
        <time>2017-11-15T10:47:57Z</time>
      </trkpt>
      <trkpt lat="48.64409" lon="2.4658">
        <ele>83.1</ele>
        <time>2017-11-15T10:48:05Z</time>
      </trkpt>
      <trkpt lat="48.64416" lon="2.4657">
        <ele>83.2</ele>
        <time>2017-11-15T10:48:12Z</time>
      </trkpt>
      <trkpt lat="48.64421" lon="2.46559">
        <ele>83.1</ele>
        <time>2017-11-15T10:48:21Z</time>
      </trkpt>
      <trkpt lat="48.64428" lon="2.46551">
        <ele>83.6</ele>
        <time>2017-11-15T10:48:29Z</time>
      </trkpt>
      <trkpt lat="48.64436" lon="2.46542">
        <ele>84</ele>
        <time>2017-11-15T10:48:37Z</time>
      </trkpt>
      <trkpt lat="48.64442" lon="2.46531">
        <ele>83.7</ele>
        <time>2017-11-15T10:48:44Z</time>
      </trkpt>
      <trkpt lat="48.64449" lon="2.46522">
        <ele>83.8</ele>
        <time>2017-11-15T10:48:51Z</time>
      </trkpt>
      <trkpt lat="48.64454" lon="2.4651">
        <ele>83.9</ele>
        <time>2017-11-15T10:48:59Z</time>
      </trkpt>
      <trkpt lat="48.64459" lon="2.46498">
        <ele>84.1</ele>
        <time>2017-11-15T10:49:07Z</time>
      </trkpt>
      <trkpt lat="48.64465" lon="2.46486">
        <ele>84.2</ele>
        <time>2017-11-15T10:49:16Z</time>
      </trkpt>
      <trkpt lat="48.64471" lon="2.46473">
        <ele>84.1</ele>
        <time>2017-11-15T10:49:23Z</time>
      </trkpt>
      <trkpt lat="48.64474" lon="2.46459">
        <ele>84.6</ele>
        <time>2017-11-15T10:49:31Z</time>
      </trkpt>
      <trkpt lat="48.64482" lon="2.4645">
        <ele>84.6</ele>
        <time>2017-11-15T10:49:39Z</time>
      </trkpt>
      <trkpt lat="48.64487" lon="2.46437">
        <ele>84.2</ele>
        <time>2017-11-15T10:49:47Z</time>
      </trkpt>
      <trkpt lat="48.64492" lon="2.46425">
        <ele>84.6</ele>
        <time>2017-11-15T10:49:54Z</time>
      </trkpt>
      <trkpt lat="48.64496" lon="2.46411">
        <ele>84.7</ele>
        <time>2017-11-15T10:50:02Z</time>
      </trkpt>
      <trkpt lat="48.645" lon="2.46398">
        <ele>84.9</ele>
        <time>2017-11-15T10:50:09Z</time>
      </trkpt>
      <trkpt lat="48.64505" lon="2.46385">
        <ele>85.1</ele>
        <time>2017-11-15T10:50:16Z</time>
      </trkpt>
      <trkpt lat="48.64509" lon="2.46372">
        <ele>85.1</ele>
        <time>2017-11-15T10:50:24Z</time>
      </trkpt>
      <trkpt lat="48.64515" lon="2.4636">
        <ele>85</ele>
        <time>2017-11-15T10:50:33Z</time>
      </trkpt>
      <trkpt lat="48.64519" lon="2.46348">
        <ele>85.3</ele>
        <time>2017-11-15T10:50:40Z</time>
      </trkpt>
      <trkpt lat="48.64524" lon="2.46336">
        <ele>85.6</ele>
        <time>2017-11-15T10:50:48Z</time>
      </trkpt>
      <trkpt lat="48.6453" lon="2.46325">
        <ele>85.3</ele>
        <time>2017-11-15T10:50:55Z</time>
      </trkpt>
      <trkpt lat="48.64535" lon="2.46314">
        <ele>85.7</ele>
        <time>2017-11-15T10:51:02Z</time>
      </trkpt>
      <trkpt lat="48.6454" lon="2.46301">
        <ele>85.5</ele>
        <time>2017-11-15T10:51:09Z</time>
      </trkpt>
      <trkpt lat="48.64547" lon="2.4629">
        <ele>85.5</ele>
        <time>2017-11-15T10:51:15Z</time>
      </trkpt>
      <trkpt lat="48.64555" lon="2.4628">
        <ele>85.8</ele>
        <time>2017-11-15T10:51:23Z</time>
      </trkpt>
      <trkpt lat="48.64562" lon="2.46271">
        <ele>85.6</ele>
        <time>2017-11-15T10:51:29Z</time>
      </trkpt>
      <trkpt lat="48.64567" lon="2.4626">
        <ele>85.6</ele>
        <time>2017-11-15T10:51:36Z</time>
      </trkpt>
      <trkpt lat="48.64572" lon="2.46246">
        <ele>85.5</ele>
        <time>2017-11-15T10:51:44Z</time>
      </trkpt>
      <trkpt lat="48.64575" lon="2.46233">
        <ele>85.5</ele>
        <time>2017-11-15T10:51:52Z</time>
      </trkpt>
      <trkpt lat="48.64584" lon="2.46227">
        <ele>85.5</ele>
        <time>2017-11-15T10:52:01Z</time>
      </trkpt>
      <trkpt lat="48.64591" lon="2.46218">
        <ele>85.6</ele>
        <time>2017-11-15T10:52:08Z</time>
      </trkpt>
      <trkpt lat="48.64599" lon="2.46208">
        <ele>85.3</ele>
        <time>2017-11-15T10:52:16Z</time>
      </trkpt>
      <trkpt lat="48.64605" lon="2.46197">
        <ele>85.8</ele>
        <time>2017-11-15T10:52:25Z</time>
      </trkpt>
      <trkpt lat="48.6461" lon="2.46186">
        <ele>85.6</ele>
        <time>2017-11-15T10:52:35Z</time>
      </trkpt>
      <trkpt lat="48.64617" lon="2.46175">
        <ele>85.7</ele>
        <time>2017-11-15T10:52:44Z</time>
      </trkpt>
      <trkpt lat="48.64623" lon="2.46166">
        <ele>85.9</ele>
        <time>2017-11-15T10:52:53Z</time>
      </trkpt>
      <trkpt lat="48.6463" lon="2.46157">
        <ele>85.7</ele>
        <time>2017-11-15T10:53:02Z</time>
      </trkpt>
      <trkpt lat="48.64637" lon="2.46148">
        <ele>85.5</ele>
        <time>2017-11-15T10:53:10Z</time>
      </trkpt>
      <trkpt lat="48.64644" lon="2.46137">
        <ele>85.8</ele>
        <time>2017-11-15T10:53:18Z</time>
      </trkpt>
      <trkpt lat="48.64651" lon="2.46129">
        <ele>85.7</ele>
        <time>2017-11-15T10:53:25Z</time>
      </trkpt>
      <trkpt lat="48.64658" lon="2.4612">
        <ele>85.5</ele>
        <time>2017-11-15T10:53:32Z</time>
      </trkpt>
      <trkpt lat="48.64665" lon="2.4611">
        <ele>85.3</ele>
        <time>2017-11-15T10:53:39Z</time>
      </trkpt>
      <trkpt lat="48.64672" lon="2.46099">
        <ele>85.3</ele>
        <time>2017-11-15T10:53:47Z</time>
      </trkpt>
      <trkpt lat="48.64679" lon="2.46091">
        <ele>85.1</ele>
        <time>2017-11-15T10:53:55Z</time>
      </trkpt>
      <trkpt lat="48.64685" lon="2.46078">
        <ele>84.9</ele>
        <time>2017-11-15T10:54:03Z</time>
      </trkpt>
      <trkpt lat="48.64691" lon="2.46066">
        <ele>84.6</ele>
        <time>2017-11-15T10:54:11Z</time>
      </trkpt>
      <trkpt lat="48.64697" lon="2.46055">
        <ele>84.2</ele>
        <time>2017-11-15T10:54:19Z</time>
      </trkpt>
      <trkpt lat="48.64701" lon="2.46042">
        <ele>84.2</ele>
        <time>2017-11-15T10:54:26Z</time>
      </trkpt>
      <trkpt lat="48.64706" lon="2.46031">
        <ele>83.9</ele>
        <time>2017-11-15T10:54:33Z</time>
      </trkpt>
      <trkpt lat="48.64712" lon="2.4602">
        <ele>83.5</ele>
        <time>2017-11-15T10:54:40Z</time>
      </trkpt>
      <trkpt lat="48.64717" lon="2.46008">
        <ele>83.2</ele>
        <time>2017-11-15T10:54:48Z</time>
      </trkpt>
      <trkpt lat="48.64721" lon="2.45996">
        <ele>83.4</ele>
        <time>2017-11-15T10:54:55Z</time>
      </trkpt>
      <trkpt lat="48.64717" lon="2.45983">
        <ele>83.1</ele>
        <time>2017-11-15T10:55:04Z</time>
      </trkpt>
      <trkpt lat="48.64712" lon="2.45971">
        <ele>83.1</ele>
        <time>2017-11-15T10:55:12Z</time>
      </trkpt>
      <trkpt lat="48.64704" lon="2.45965">
        <ele>83.1</ele>
        <time>2017-11-15T10:55:22Z</time>
      </trkpt>
      <trkpt lat="48.64696" lon="2.45954">
        <ele>83.1</ele>
        <time>2017-11-15T10:55:30Z</time>
      </trkpt>
      <trkpt lat="48.64689" lon="2.45946">
        <ele>83.2</ele>
        <time>2017-11-15T10:55:37Z</time>
      </trkpt>
      <trkpt lat="48.64682" lon="2.45937">
        <ele>83</ele>
        <time>2017-11-15T10:55:44Z</time>
      </trkpt>
      <trkpt lat="48.64673" lon="2.45931">
        <ele>82.8</ele>
        <time>2017-11-15T10:55:53Z</time>
      </trkpt>
      <trkpt lat="48.64672" lon="2.45917">
        <ele>82.2</ele>
        <time>2017-11-15T10:56:04Z</time>
      </trkpt>
      <trkpt lat="48.64667" lon="2.45905">
        <ele>81.5</ele>
        <time>2017-11-15T10:56:14Z</time>
      </trkpt>
      <trkpt lat="48.64659" lon="2.45898">
        <ele>80.8</ele>
        <time>2017-11-15T10:56:22Z</time>
      </trkpt>
      <trkpt lat="48.64652" lon="2.4589">
        <ele>80.5</ele>
        <time>2017-11-15T10:56:31Z</time>
      </trkpt>
      <trkpt lat="48.64646" lon="2.45879">
        <ele>80</ele>
        <time>2017-11-15T10:56:39Z</time>
      </trkpt>
      <trkpt lat="48.64638" lon="2.45872">
        <ele>79.2</ele>
        <time>2017-11-15T10:56:48Z</time>
      </trkpt>
      <trkpt lat="48.6463" lon="2.45864">
        <ele>78.3</ele>
        <time>2017-11-15T10:56:54Z</time>
      </trkpt>
      <trkpt lat="48.64621" lon="2.45857">
        <ele>77.9</ele>
        <time>2017-11-15T10:57:01Z</time>
      </trkpt>
      <trkpt lat="48.64613" lon="2.45847">
        <ele>77.2</ele>
        <time>2017-11-15T10:57:10Z</time>
      </trkpt>
      <trkpt lat="48.64603" lon="2.4584">
        <ele>76.5</ele>
        <time>2017-11-15T10:57:17Z</time>
      </trkpt>
      <trkpt lat="48.64595" lon="2.45834">
        <ele>75.6</ele>
        <time>2017-11-15T10:57:35Z</time>
      </trkpt>
      <trkpt lat="48.64586" lon="2.45833">
        <ele>75.6</ele>
        <time>2017-11-15T10:57:49Z</time>
      </trkpt>
      <trkpt lat="48.64576" lon="2.45832">
        <ele>75.2</ele>
        <time>2017-11-15T10:57:57Z</time>
      </trkpt>
      <trkpt lat="48.64566" lon="2.45834">
        <ele>74.6</ele>
        <time>2017-11-15T10:58:05Z</time>
      </trkpt>
      <trkpt lat="48.64558" lon="2.4584">
        <ele>74.4</ele>
        <time>2017-11-15T10:58:11Z</time>
      </trkpt>
      <trkpt lat="48.64549" lon="2.4584">
        <ele>74</ele>
        <time>2017-11-15T10:58:19Z</time>
      </trkpt>
      <trkpt lat="48.64542" lon="2.45831">
        <ele>72.7</ele>
        <time>2017-11-15T10:58:30Z</time>
      </trkpt>
      <trkpt lat="48.64536" lon="2.45821">
        <ele>71.6</ele>
        <time>2017-11-15T10:58:40Z</time>
      </trkpt>
      <trkpt lat="48.64529" lon="2.4581">
        <ele>70.4</ele>
        <time>2017-11-15T10:58:48Z</time>
      </trkpt>
      <trkpt lat="48.64523" lon="2.45798">
        <ele>69.5</ele>
        <time>2017-11-15T10:58:56Z</time>
      </trkpt>
      <trkpt lat="48.64518" lon="2.45787">
        <ele>68.2</ele>
        <time>2017-11-15T10:59:05Z</time>
      </trkpt>
      <trkpt lat="48.64513" lon="2.45774">
        <ele>67.2</ele>
        <time>2017-11-15T10:59:13Z</time>
      </trkpt>
      <trkpt lat="48.64508" lon="2.45762">
        <ele>65.3</ele>
        <time>2017-11-15T10:59:22Z</time>
      </trkpt>
      <trkpt lat="48.64502" lon="2.45752">
        <ele>64.6</ele>
        <time>2017-11-15T10:59:30Z</time>
      </trkpt>
      <trkpt lat="48.64495" lon="2.4574">
        <ele>63.3</ele>
        <time>2017-11-15T10:59:37Z</time>
      </trkpt>
      <trkpt lat="48.6449" lon="2.45728">
        <ele>62.3</ele>
        <time>2017-11-15T10:59:46Z</time>
      </trkpt>
      <trkpt lat="48.64483" lon="2.45717">
        <ele>60.9</ele>
        <time>2017-11-15T10:59:56Z</time>
      </trkpt>
      <trkpt lat="48.64478" lon="2.45707">
        <ele>58.9</ele>
        <time>2017-11-15T11:00:04Z</time>
      </trkpt>
      <trkpt lat="48.64472" lon="2.45693">
        <ele>58.1</ele>
        <time>2017-11-15T11:00:13Z</time>
      </trkpt>
      <trkpt lat="48.64466" lon="2.45683">
        <ele>57</ele>
        <time>2017-11-15T11:00:20Z</time>
      </trkpt>
      <trkpt lat="48.64459" lon="2.45671">
        <ele>56.1</ele>
        <time>2017-11-15T11:00:28Z</time>
      </trkpt>
      <trkpt lat="48.64453" lon="2.4566">
        <ele>55.3</ele>
        <time>2017-11-15T11:00:36Z</time>
      </trkpt>
      <trkpt lat="48.64447" lon="2.45649">
        <ele>54.1</ele>
        <time>2017-11-15T11:00:45Z</time>
      </trkpt>
      <trkpt lat="48.64441" lon="2.45638">
        <ele>53.1</ele>
        <time>2017-11-15T11:00:52Z</time>
      </trkpt>
      <trkpt lat="48.64437" lon="2.45625">
        <ele>52.2</ele>
        <time>2017-11-15T11:01:01Z</time>
      </trkpt>
      <trkpt lat="48.6443" lon="2.45614">
        <ele>51.3</ele>
        <time>2017-11-15T11:01:09Z</time>
      </trkpt>
      <trkpt lat="48.64423" lon="2.45605">
        <ele>50.7</ele>
        <time>2017-11-15T11:01:15Z</time>
      </trkpt>
      <trkpt lat="48.64418" lon="2.45593">
        <ele>49.9</ele>
        <time>2017-11-15T11:01:26Z</time>
      </trkpt>
      <trkpt lat="48.64411" lon="2.45582">
        <ele>49.2</ele>
        <time>2017-11-15T11:01:35Z</time>
      </trkpt>
      <trkpt lat="48.64404" lon="2.45571">
        <ele>48.7</ele>
        <time>2017-11-15T11:01:44Z</time>
      </trkpt>
      <trkpt lat="48.64397" lon="2.45559">
        <ele>47.9</ele>
        <time>2017-11-15T11:01:52Z</time>
      </trkpt>
      <trkpt lat="48.6439" lon="2.45547">
        <ele>47.2</ele>
        <time>2017-11-15T11:01:59Z</time>
      </trkpt>
      <trkpt lat="48.64385" lon="2.45535">
        <ele>47</ele>
        <time>2017-11-15T11:02:05Z</time>
      </trkpt>
      <trkpt lat="48.64379" lon="2.45523">
        <ele>46.7</ele>
        <time>2017-11-15T11:02:13Z</time>
      </trkpt>
      <trkpt lat="48.64373" lon="2.45513">
        <ele>46.5</ele>
        <time>2017-11-15T11:02:20Z</time>
      </trkpt>
      <trkpt lat="48.64367" lon="2.45502">
        <ele>45.7</ele>
        <time>2017-11-15T11:02:28Z</time>
      </trkpt>
      <trkpt lat="48.64361" lon="2.45491">
        <ele>45.3</ele>
        <time>2017-11-15T11:02:36Z</time>
      </trkpt>
      <trkpt lat="48.64355" lon="2.4548">
        <ele>45.2</ele>
        <time>2017-11-15T11:02:44Z</time>
      </trkpt>
      <trkpt lat="48.64348" lon="2.45469">
        <ele>44.8</ele>
        <time>2017-11-15T11:02:51Z</time>
      </trkpt>
      <trkpt lat="48.64342" lon="2.45458">
        <ele>44.4</ele>
        <time>2017-11-15T11:02:58Z</time>
      </trkpt>
      <trkpt lat="48.64336" lon="2.45446">
        <ele>44.3</ele>
        <time>2017-11-15T11:03:05Z</time>
      </trkpt>
      <trkpt lat="48.6433" lon="2.45435">
        <ele>43.9</ele>
        <time>2017-11-15T11:03:13Z</time>
      </trkpt>
      <trkpt lat="48.64323" lon="2.45424">
        <ele>43.8</ele>
        <time>2017-11-15T11:03:23Z</time>
      </trkpt>
      <trkpt lat="48.64323" lon="2.45411">
        <ele>43.8</ele>
        <time>2017-11-15T11:03:33Z</time>
      </trkpt>
      <trkpt lat="48.64314" lon="2.45406">
        <ele>43.7</ele>
        <time>2017-11-15T11:03:41Z</time>
      </trkpt>
      <trkpt lat="48.64308" lon="2.45396">
        <ele>43.3</ele>
        <time>2017-11-15T11:03:55Z</time>
      </trkpt>
      <trkpt lat="48.64302" lon="2.45385">
        <ele>42.6</ele>
        <time>2017-11-15T11:04:09Z</time>
      </trkpt>
      <trkpt lat="48.64294" lon="2.45377">
        <ele>42.3</ele>
        <time>2017-11-15T11:04:22Z</time>
      </trkpt>
      <trkpt lat="48.64289" lon="2.45366">
        <ele>41.9</ele>
        <time>2017-11-15T11:05:24Z</time>
      </trkpt>
      <trkpt lat="48.64282" lon="2.45355">
        <ele>41.5</ele>
        <time>2017-11-15T11:05:42Z</time>
      </trkpt>
      <trkpt lat="48.64277" lon="2.45344">
        <ele>41.4</ele>
        <time>2017-11-15T11:05:51Z</time>
      </trkpt>
      <trkpt lat="48.64271" lon="2.45332">
        <ele>41</ele>
        <time>2017-11-15T11:06:01Z</time>
      </trkpt>
      <trkpt lat="48.64264" lon="2.45321">
        <ele>40.7</ele>
        <time>2017-11-15T11:06:10Z</time>
      </trkpt>
      <trkpt lat="48.64258" lon="2.45309">
        <ele>40.5</ele>
        <time>2017-11-15T11:06:17Z</time>
      </trkpt>
      <trkpt lat="48.64253" lon="2.45298">
        <ele>40.4</ele>
        <time>2017-11-15T11:06:26Z</time>
      </trkpt>
      <trkpt lat="48.64247" lon="2.45287">
        <ele>40.4</ele>
        <time>2017-11-15T11:06:33Z</time>
      </trkpt>
      <trkpt lat="48.64242" lon="2.45275">
        <ele>40.1</ele>
        <time>2017-11-15T11:06:41Z</time>
      </trkpt>
      <trkpt lat="48.64236" lon="2.45263">
        <ele>40</ele>
        <time>2017-11-15T11:06:49Z</time>
      </trkpt>
      <trkpt lat="48.6423" lon="2.45252">
        <ele>39.7</ele>
        <time>2017-11-15T11:06:59Z</time>
      </trkpt>
      <trkpt lat="48.64223" lon="2.45242">
        <ele>39.5</ele>
        <time>2017-11-15T11:07:07Z</time>
      </trkpt>
      <trkpt lat="48.64218" lon="2.45232">
        <ele>39.7</ele>
        <time>2017-11-15T11:07:14Z</time>
      </trkpt>
      <trkpt lat="48.64214" lon="2.45219">
        <ele>39.5</ele>
        <time>2017-11-15T11:07:24Z</time>
      </trkpt>
      <trkpt lat="48.64208" lon="2.45208">
        <ele>39.3</ele>
        <time>2017-11-15T11:07:33Z</time>
      </trkpt>
      <trkpt lat="48.64201" lon="2.45198">
        <ele>38.8</ele>
        <time>2017-11-15T11:07:40Z</time>
      </trkpt>
      <trkpt lat="48.64194" lon="2.45187">
        <ele>38.5</ele>
        <time>2017-11-15T11:07:49Z</time>
      </trkpt>
      <trkpt lat="48.64188" lon="2.45178">
        <ele>39</ele>
        <time>2017-11-15T11:07:57Z</time>
      </trkpt>
      <trkpt lat="48.64182" lon="2.45167">
        <ele>38.9</ele>
        <time>2017-11-15T11:08:04Z</time>
      </trkpt>
      <trkpt lat="48.64175" lon="2.45156">
        <ele>38.9</ele>
        <time>2017-11-15T11:08:10Z</time>
      </trkpt>
      <trkpt lat="48.6417" lon="2.45144">
        <ele>38.7</ele>
        <time>2017-11-15T11:08:18Z</time>
      </trkpt>
      <trkpt lat="48.64163" lon="2.45133">
        <ele>38.6</ele>
        <time>2017-11-15T11:08:26Z</time>
      </trkpt>
      <trkpt lat="48.64157" lon="2.45121">
        <ele>38.7</ele>
        <time>2017-11-15T11:08:33Z</time>
      </trkpt>
      <trkpt lat="48.64151" lon="2.4511">
        <ele>38.6</ele>
        <time>2017-11-15T11:08:42Z</time>
      </trkpt>
      <trkpt lat="48.64145" lon="2.45098">
        <ele>38.1</ele>
        <time>2017-11-15T11:08:49Z</time>
      </trkpt>
      <trkpt lat="48.64139" lon="2.45087">
        <ele>38.1</ele>
        <time>2017-11-15T11:08:57Z</time>
      </trkpt>
      <trkpt lat="48.64132" lon="2.45076">
        <ele>38.5</ele>
        <time>2017-11-15T11:09:04Z</time>
      </trkpt>
      <trkpt lat="48.64125" lon="2.45064">
        <ele>38.5</ele>
        <time>2017-11-15T11:09:12Z</time>
      </trkpt>
      <trkpt lat="48.64119" lon="2.45053">
        <ele>38.3</ele>
        <time>2017-11-15T11:09:20Z</time>
      </trkpt>
      <trkpt lat="48.64113" lon="2.45042">
        <ele>38.3</ele>
        <time>2017-11-15T11:09:29Z</time>
      </trkpt>
      <trkpt lat="48.64107" lon="2.45031">
        <ele>38.3</ele>
        <time>2017-11-15T11:09:38Z</time>
      </trkpt>
      <trkpt lat="48.64102" lon="2.45019">
        <ele>38.2</ele>
        <time>2017-11-15T11:09:45Z</time>
      </trkpt>
      <trkpt lat="48.64095" lon="2.4501">
        <ele>38.4</ele>
        <time>2017-11-15T11:09:51Z</time>
      </trkpt>
      <trkpt lat="48.64089" lon="2.44999">
        <ele>38.2</ele>
        <time>2017-11-15T11:09:59Z</time>
      </trkpt>
      <trkpt lat="48.64083" lon="2.44988">
        <ele>38.4</ele>
        <time>2017-11-15T11:10:07Z</time>
      </trkpt>
      <trkpt lat="48.64076" lon="2.44978">
        <ele>38.4</ele>
        <time>2017-11-15T11:10:15Z</time>
      </trkpt>
      <trkpt lat="48.6407" lon="2.44965">
        <ele>38.1</ele>
        <time>2017-11-15T11:10:22Z</time>
      </trkpt>
      <trkpt lat="48.64065" lon="2.44953">
        <ele>38.2</ele>
        <time>2017-11-15T11:10:29Z</time>
      </trkpt>
      <trkpt lat="48.64058" lon="2.44942">
        <ele>38</ele>
        <time>2017-11-15T11:10:36Z</time>
      </trkpt>
      <trkpt lat="48.64051" lon="2.44932">
        <ele>38.4</ele>
        <time>2017-11-15T11:10:44Z</time>
      </trkpt>
      <trkpt lat="48.64045" lon="2.44921">
        <ele>38.3</ele>
        <time>2017-11-15T11:10:53Z</time>
      </trkpt>
      <trkpt lat="48.64039" lon="2.44911">
        <ele>38.2</ele>
        <time>2017-11-15T11:11:01Z</time>
      </trkpt>
      <trkpt lat="48.64037" lon="2.44897">
        <ele>38.2</ele>
        <time>2017-11-15T11:11:07Z</time>
      </trkpt>
      <trkpt lat="48.64043" lon="2.44885">
        <ele>38.5</ele>
        <time>2017-11-15T11:11:17Z</time>
      </trkpt>
      <trkpt lat="48.64049" lon="2.44874">
        <ele>38.6</ele>
        <time>2017-11-15T11:11:28Z</time>
      </trkpt>
      <trkpt lat="48.64057" lon="2.44865">
        <ele>38.4</ele>
        <time>2017-11-15T11:11:36Z</time>
      </trkpt>
      <trkpt lat="48.64066" lon="2.44862">
        <ele>38.3</ele>
        <time>2017-11-15T11:11:43Z</time>
      </trkpt>
      <trkpt lat="48.64075" lon="2.44859">
        <ele>38.2</ele>
        <time>2017-11-15T11:11:53Z</time>
      </trkpt>
      <trkpt lat="48.64084" lon="2.44855">
        <ele>38.2</ele>
        <time>2017-11-15T11:12:05Z</time>
      </trkpt>
      <trkpt lat="48.64092" lon="2.44848">
        <ele>38.3</ele>
        <time>2017-11-15T11:12:13Z</time>
      </trkpt>
      <trkpt lat="48.64099" lon="2.44837">
        <ele>38.2</ele>
        <time>2017-11-15T11:12:22Z</time>
      </trkpt>
      <trkpt lat="48.64107" lon="2.44829">
        <ele>38.2</ele>
        <time>2017-11-15T11:12:29Z</time>
      </trkpt>
      <trkpt lat="48.64112" lon="2.44817">
        <ele>38.3</ele>
        <time>2017-11-15T11:12:36Z</time>
      </trkpt>
      <trkpt lat="48.64119" lon="2.44808">
        <ele>38.4</ele>
        <time>2017-11-15T11:12:44Z</time>
      </trkpt>
      <trkpt lat="48.64128" lon="2.44801">
        <ele>38.4</ele>
        <time>2017-11-15T11:12:52Z</time>
      </trkpt>
      <trkpt lat="48.64136" lon="2.44795">
        <ele>38.4</ele>
        <time>2017-11-15T11:13:02Z</time>
      </trkpt>
      <trkpt lat="48.64145" lon="2.44791">
        <ele>38.3</ele>
        <time>2017-11-15T11:13:12Z</time>
      </trkpt>
      <trkpt lat="48.64154" lon="2.44787">
        <ele>38.5</ele>
        <time>2017-11-15T11:13:22Z</time>
      </trkpt>
      <trkpt lat="48.64163" lon="2.44781">
        <ele>38.5</ele>
        <time>2017-11-15T11:13:30Z</time>
      </trkpt>
      <trkpt lat="48.64171" lon="2.44776">
        <ele>38.6</ele>
        <time>2017-11-15T11:13:37Z</time>
      </trkpt>
      <trkpt lat="48.64179" lon="2.44767">
        <ele>38.8</ele>
        <time>2017-11-15T11:13:47Z</time>
      </trkpt>
      <trkpt lat="48.64186" lon="2.44757">
        <ele>38.6</ele>
        <time>2017-11-15T11:13:56Z</time>
      </trkpt>
      <trkpt lat="48.64193" lon="2.44749">
        <ele>38.6</ele>
        <time>2017-11-15T11:14:04Z</time>
      </trkpt>
      <trkpt lat="48.64202" lon="2.44746">
        <ele>39</ele>
        <time>2017-11-15T11:14:14Z</time>
      </trkpt>
      <trkpt lat="48.64211" lon="2.44745">
        <ele>39.4</ele>
        <time>2017-11-15T11:14:25Z</time>
      </trkpt>
      <trkpt lat="48.6422" lon="2.44742">
        <ele>39.5</ele>
        <time>2017-11-15T11:14:37Z</time>
      </trkpt>
      <trkpt lat="48.64228" lon="2.44733">
        <ele>39.4</ele>
        <time>2017-11-15T11:14:47Z</time>
      </trkpt>
      <trkpt lat="48.64232" lon="2.4472">
        <ele>39.2</ele>
        <time>2017-11-15T11:14:57Z</time>
      </trkpt>
      <trkpt lat="48.6424" lon="2.4471">
        <ele>39.4</ele>
        <time>2017-11-15T11:15:07Z</time>
      </trkpt>
      <trkpt lat="48.64236" lon="2.44698">
        <ele>38.9</ele>
        <time>2017-11-15T11:19:37Z</time>
      </trkpt>
      <trkpt lat="48.64235" lon="2.44712">
        <ele>39.3</ele>
        <time>2017-11-15T11:21:35Z</time>
      </trkpt>
      <trkpt lat="48.64244" lon="2.4471">
        <ele>41.2</ele>
        <time>2017-11-15T11:31:47Z</time>
      </trkpt>
      <trkpt lat="48.64235" lon="2.44713">
        <ele>41.6</ele>
        <time>2017-11-15T11:45:25Z</time>
      </trkpt>
      <trkpt lat="48.64244" lon="2.44711">
        <ele>41.7</ele>
        <time>2017-11-15T11:47:25Z</time>
      </trkpt>
      <trkpt lat="48.64236" lon="2.44715">
        <ele>41.4</ele>
        <time>2017-11-15T11:50:20Z</time>
      </trkpt>
      <trkpt lat="48.64244" lon="2.44709">
        <ele>42</ele>
        <time>2017-11-15T11:51:48Z</time>
      </trkpt>
      <trkpt lat="48.64239" lon="2.44721">
        <ele>43.1</ele>
        <time>2017-11-15T11:58:59Z</time>
      </trkpt>
      <trkpt lat="48.6424" lon="2.44707">
        <ele>42.7</ele>
        <time>2017-11-15T12:00:40Z</time>
      </trkpt>
      <trkpt lat="48.64242" lon="2.44692">
        <ele>42.6</ele>
        <time>2017-11-15T12:00:52Z</time>
      </trkpt>
      <trkpt lat="48.64249" lon="2.44682">
        <ele>42.1</ele>
        <time>2017-11-15T12:01:02Z</time>
      </trkpt>
      <trkpt lat="48.64257" lon="2.44675">
        <ele>42.3</ele>
        <time>2017-11-15T12:01:12Z</time>
      </trkpt>
      <trkpt lat="48.64265" lon="2.44667">
        <ele>42.3</ele>
        <time>2017-11-15T12:01:24Z</time>
      </trkpt>
      <trkpt lat="48.64272" lon="2.44659">
        <ele>42.1</ele>
        <time>2017-11-15T12:01:38Z</time>
      </trkpt>
      <trkpt lat="48.6428" lon="2.44651">
        <ele>42.1</ele>
        <time>2017-11-15T12:01:51Z</time>
      </trkpt>
      <trkpt lat="48.64288" lon="2.44644">
        <ele>41.7</ele>
        <time>2017-11-15T12:02:04Z</time>
      </trkpt>
      <trkpt lat="48.64295" lon="2.44636">
        <ele>41.9</ele>
        <time>2017-11-15T12:02:16Z</time>
      </trkpt>
      <trkpt lat="48.64303" lon="2.44627">
        <ele>41.8</ele>
        <time>2017-11-15T12:02:26Z</time>
      </trkpt>
      <trkpt lat="48.64311" lon="2.44618">
        <ele>41.8</ele>
        <time>2017-11-15T12:02:38Z</time>
      </trkpt>
      <trkpt lat="48.64319" lon="2.4461">
        <ele>42.1</ele>
        <time>2017-11-15T12:02:49Z</time>
      </trkpt>
      <trkpt lat="48.64326" lon="2.44601">
        <ele>42.1</ele>
        <time>2017-11-15T12:03:00Z</time>
      </trkpt>
      <trkpt lat="48.64334" lon="2.44593">
        <ele>42.2</ele>
        <time>2017-11-15T12:03:14Z</time>
      </trkpt>
      <trkpt lat="48.64343" lon="2.44595">
        <ele>42.3</ele>
        <time>2017-11-15T12:03:27Z</time>
      </trkpt>
      <trkpt lat="48.64352" lon="2.44603">
        <ele>42.4</ele>
        <time>2017-11-15T12:03:36Z</time>
      </trkpt>
      <trkpt lat="48.64359" lon="2.44611">
        <ele>42.3</ele>
        <time>2017-11-15T12:03:48Z</time>
      </trkpt>
      <trkpt lat="48.64365" lon="2.44623">
        <ele>42.5</ele>
        <time>2017-11-15T12:03:58Z</time>
      </trkpt>
      <trkpt lat="48.64371" lon="2.44634">
        <ele>42.6</ele>
        <time>2017-11-15T12:04:08Z</time>
      </trkpt>
      <trkpt lat="48.64377" lon="2.44646">
        <ele>42.6</ele>
        <time>2017-11-15T12:04:19Z</time>
      </trkpt>
      <trkpt lat="48.64384" lon="2.44656">
        <ele>42.7</ele>
        <time>2017-11-15T12:04:29Z</time>
      </trkpt>
      <trkpt lat="48.64389" lon="2.44667">
        <ele>43</ele>
        <time>2017-11-15T12:04:40Z</time>
      </trkpt>
      <trkpt lat="48.64393" lon="2.4468">
        <ele>43.1</ele>
        <time>2017-11-15T12:04:49Z</time>
      </trkpt>
      <trkpt lat="48.644" lon="2.4469">
        <ele>43.2</ele>
        <time>2017-11-15T12:04:58Z</time>
      </trkpt>
      <trkpt lat="48.64405" lon="2.44702">
        <ele>43.2</ele>
        <time>2017-11-15T12:05:07Z</time>
      </trkpt>
      <trkpt lat="48.64411" lon="2.44714">
        <ele>43.5</ele>
        <time>2017-11-15T12:05:16Z</time>
      </trkpt>
      <trkpt lat="48.64419" lon="2.44723">
        <ele>43.5</ele>
        <time>2017-11-15T12:05:24Z</time>
      </trkpt>
      <trkpt lat="48.64425" lon="2.44735">
        <ele>43.7</ele>
        <time>2017-11-15T12:05:33Z</time>
      </trkpt>
      <trkpt lat="48.64432" lon="2.44745">
        <ele>43.9</ele>
        <time>2017-11-15T12:05:43Z</time>
      </trkpt>
      <trkpt lat="48.64438" lon="2.44756">
        <ele>44.1</ele>
        <time>2017-11-15T12:05:53Z</time>
      </trkpt>
      <trkpt lat="48.64445" lon="2.44766">
        <ele>44.2</ele>
        <time>2017-11-15T12:06:03Z</time>
      </trkpt>
      <trkpt lat="48.6445" lon="2.44779">
        <ele>44.3</ele>
        <time>2017-11-15T12:06:11Z</time>
      </trkpt>
      <trkpt lat="48.64455" lon="2.44792">
        <ele>44.5</ele>
        <time>2017-11-15T12:06:20Z</time>
      </trkpt>
      <trkpt lat="48.64462" lon="2.44803">
        <ele>44.8</ele>
        <time>2017-11-15T12:06:30Z</time>
      </trkpt>
      <trkpt lat="48.64468" lon="2.44814">
        <ele>45</ele>
        <time>2017-11-15T12:06:38Z</time>
      </trkpt>
      <trkpt lat="48.64475" lon="2.44825">
        <ele>45.1</ele>
        <time>2017-11-15T12:06:49Z</time>
      </trkpt>
      <trkpt lat="48.64481" lon="2.44836">
        <ele>45.4</ele>
        <time>2017-11-15T12:06:59Z</time>
      </trkpt>
      <trkpt lat="48.64486" lon="2.44848">
        <ele>45.5</ele>
        <time>2017-11-15T12:07:07Z</time>
      </trkpt>
      <trkpt lat="48.64491" lon="2.44859">
        <ele>45.6</ele>
        <time>2017-11-15T12:07:15Z</time>
      </trkpt>
      <trkpt lat="48.64498" lon="2.4487">
        <ele>45.6</ele>
        <time>2017-11-15T12:07:24Z</time>
      </trkpt>
      <trkpt lat="48.64504" lon="2.44882">
        <ele>45.8</ele>
        <time>2017-11-15T12:07:33Z</time>
      </trkpt>
      <trkpt lat="48.6451" lon="2.44894">
        <ele>46.1</ele>
        <time>2017-11-15T12:07:42Z</time>
      </trkpt>
      <trkpt lat="48.64516" lon="2.44905">
        <ele>46.2</ele>
        <time>2017-11-15T12:07:49Z</time>
      </trkpt>
      <trkpt lat="48.64521" lon="2.44915">
        <ele>46.3</ele>
        <time>2017-11-15T12:07:58Z</time>
      </trkpt>
      <trkpt lat="48.64525" lon="2.44929">
        <ele>46.1</ele>
        <time>2017-11-15T12:08:07Z</time>
      </trkpt>
      <trkpt lat="48.64531" lon="2.44941">
        <ele>46.8</ele>
        <time>2017-11-15T12:08:17Z</time>
      </trkpt>
      <trkpt lat="48.64535" lon="2.44953">
        <ele>47.2</ele>
        <time>2017-11-15T12:08:25Z</time>
      </trkpt>
      <trkpt lat="48.64539" lon="2.44968">
        <ele>47.4</ele>
        <time>2017-11-15T12:08:33Z</time>
      </trkpt>
      <trkpt lat="48.64544" lon="2.44981">
        <ele>47.4</ele>
        <time>2017-11-15T12:08:42Z</time>
      </trkpt>
      <trkpt lat="48.64549" lon="2.44993">
        <ele>47.6</ele>
        <time>2017-11-15T12:08:50Z</time>
      </trkpt>
      <trkpt lat="48.64554" lon="2.45005">
        <ele>48</ele>
        <time>2017-11-15T12:08:58Z</time>
      </trkpt>
      <trkpt lat="48.64559" lon="2.45016">
        <ele>48</ele>
        <time>2017-11-15T12:09:06Z</time>
      </trkpt>
      <trkpt lat="48.64566" lon="2.45025">
        <ele>48.1</ele>
        <time>2017-11-15T12:09:12Z</time>
      </trkpt>
      <trkpt lat="48.64565" lon="2.45039">
        <ele>48.3</ele>
        <time>2017-11-15T12:09:21Z</time>
      </trkpt>
      <trkpt lat="48.64562" lon="2.45052">
        <ele>48.4</ele>
        <time>2017-11-15T12:09:32Z</time>
      </trkpt>
      <trkpt lat="48.64565" lon="2.45066">
        <ele>48.3</ele>
        <time>2017-11-15T12:09:41Z</time>
      </trkpt>
      <trkpt lat="48.64569" lon="2.45078">
        <ele>48.4</ele>
        <time>2017-11-15T12:09:53Z</time>
      </trkpt>
      <trkpt lat="48.64576" lon="2.45087">
        <ele>48.7</ele>
        <time>2017-11-15T12:10:31Z</time>
      </trkpt>
      <trkpt lat="48.64581" lon="2.45099">
        <ele>49</ele>
        <time>2017-11-15T12:10:46Z</time>
      </trkpt>
      <trkpt lat="48.64582" lon="2.45113">
        <ele>49.3</ele>
        <time>2017-11-15T12:10:56Z</time>
      </trkpt>
      <trkpt lat="48.64582" lon="2.45127">
        <ele>49.3</ele>
        <time>2017-11-15T12:11:07Z</time>
      </trkpt>
      <trkpt lat="48.64581" lon="2.45141">
        <ele>49.6</ele>
        <time>2017-11-15T12:11:17Z</time>
      </trkpt>
      <trkpt lat="48.64582" lon="2.45156">
        <ele>49.5</ele>
        <time>2017-11-15T12:11:26Z</time>
      </trkpt>
      <trkpt lat="48.64587" lon="2.45169">
        <ele>49.7</ele>
        <time>2017-11-15T12:11:35Z</time>
      </trkpt>
      <trkpt lat="48.64595" lon="2.45178">
        <ele>49.8</ele>
        <time>2017-11-15T12:11:44Z</time>
      </trkpt>
      <trkpt lat="48.64604" lon="2.45183">
        <ele>50.1</ele>
        <time>2017-11-15T12:11:57Z</time>
      </trkpt>
      <trkpt lat="48.64612" lon="2.45191">
        <ele>50.3</ele>
        <time>2017-11-15T12:12:08Z</time>
      </trkpt>
      <trkpt lat="48.64621" lon="2.45196">
        <ele>50.6</ele>
        <time>2017-11-15T12:12:17Z</time>
      </trkpt>
      <trkpt lat="48.64629" lon="2.45202">
        <ele>51</ele>
        <time>2017-11-15T12:12:35Z</time>
      </trkpt>
      <trkpt lat="48.64638" lon="2.45207">
        <ele>51.5</ele>
        <time>2017-11-15T12:12:50Z</time>
      </trkpt>
      <trkpt lat="48.64647" lon="2.45213">
        <ele>51.7</ele>
        <time>2017-11-15T12:13:00Z</time>
      </trkpt>
      <trkpt lat="48.64655" lon="2.45221">
        <ele>52</ele>
        <time>2017-11-15T12:13:09Z</time>
      </trkpt>
      <trkpt lat="48.64663" lon="2.45229">
        <ele>52.3</ele>
        <time>2017-11-15T12:13:19Z</time>
      </trkpt>
      <trkpt lat="48.6467" lon="2.45237">
        <ele>53.1</ele>
        <time>2017-11-15T12:13:32Z</time>
      </trkpt>
      <trkpt lat="48.64678" lon="2.45247">
        <ele>53.4</ele>
        <time>2017-11-15T12:13:41Z</time>
      </trkpt>
      <trkpt lat="48.64685" lon="2.45256">
        <ele>54</ele>
        <time>2017-11-15T12:13:52Z</time>
      </trkpt>
      <trkpt lat="48.64691" lon="2.45267">
        <ele>54.7</ele>
        <time>2017-11-15T12:14:01Z</time>
      </trkpt>
      <trkpt lat="48.64697" lon="2.45278">
        <ele>55.8</ele>
        <time>2017-11-15T12:14:12Z</time>
      </trkpt>
      <trkpt lat="48.64704" lon="2.45288">
        <ele>56.6</ele>
        <time>2017-11-15T12:14:21Z</time>
      </trkpt>
      <trkpt lat="48.64708" lon="2.45301">
        <ele>57.9</ele>
        <time>2017-11-15T12:14:32Z</time>
      </trkpt>
      <trkpt lat="48.6471" lon="2.45315">
        <ele>58.7</ele>
        <time>2017-11-15T12:14:42Z</time>
      </trkpt>
      <trkpt lat="48.64716" lon="2.45326">
        <ele>59.7</ele>
        <time>2017-11-15T12:14:50Z</time>
      </trkpt>
      <trkpt lat="48.64718" lon="2.4534">
        <ele>60.3</ele>
        <time>2017-11-15T12:14:58Z</time>
      </trkpt>
      <trkpt lat="48.64723" lon="2.45352">
        <ele>61.1</ele>
        <time>2017-11-15T12:15:10Z</time>
      </trkpt>
      <trkpt lat="48.64722" lon="2.45366">
        <ele>62.2</ele>
        <time>2017-11-15T12:15:19Z</time>
      </trkpt>
      <trkpt lat="48.64719" lon="2.45379">
        <ele>63.2</ele>
        <time>2017-11-15T12:15:34Z</time>
      </trkpt>
      <trkpt lat="48.64711" lon="2.45388">
        <ele>63.8</ele>
        <time>2017-11-15T12:15:44Z</time>
      </trkpt>
      <trkpt lat="48.64709" lon="2.45402">
        <ele>64.3</ele>
        <time>2017-11-15T12:15:51Z</time>
      </trkpt>
      <trkpt lat="48.64713" lon="2.45415">
        <ele>65</ele>
        <time>2017-11-15T12:15:59Z</time>
      </trkpt>
      <trkpt lat="48.64714" lon="2.45429">
        <ele>66</ele>
        <time>2017-11-15T12:16:08Z</time>
      </trkpt>
      <trkpt lat="48.6472" lon="2.45441">
        <ele>66.7</ele>
        <time>2017-11-15T12:16:17Z</time>
      </trkpt>
      <trkpt lat="48.6473" lon="2.45444">
        <ele>67.1</ele>
        <time>2017-11-15T12:16:25Z</time>
      </trkpt>
      <trkpt lat="48.64739" lon="2.45444">
        <ele>67.5</ele>
        <time>2017-11-15T12:16:32Z</time>
      </trkpt>
      <trkpt lat="48.64748" lon="2.45449">
        <ele>67.9</ele>
        <time>2017-11-15T12:16:43Z</time>
      </trkpt>
      <trkpt lat="48.64754" lon="2.45459">
        <ele>68.5</ele>
        <time>2017-11-15T12:16:51Z</time>
      </trkpt>
      <trkpt lat="48.64751" lon="2.45472">
        <ele>68.9</ele>
        <time>2017-11-15T12:17:02Z</time>
      </trkpt>
      <trkpt lat="48.64743" lon="2.45482">
        <ele>69</ele>
        <time>2017-11-15T12:17:10Z</time>
      </trkpt>
      <trkpt lat="48.64741" lon="2.45496">
        <ele>69.3</ele>
        <time>2017-11-15T12:17:17Z</time>
      </trkpt>
      <trkpt lat="48.64731" lon="2.45501">
        <ele>69.4</ele>
        <time>2017-11-15T12:17:30Z</time>
      </trkpt>
      <trkpt lat="48.64727" lon="2.45514">
        <ele>69.6</ele>
        <time>2017-11-15T12:17:42Z</time>
      </trkpt>
      <trkpt lat="48.64724" lon="2.45528">
        <ele>70</ele>
        <time>2017-11-15T12:17:53Z</time>
      </trkpt>
      <trkpt lat="48.64722" lon="2.45542">
        <ele>70.2</ele>
        <time>2017-11-15T12:18:03Z</time>
      </trkpt>
      <trkpt lat="48.64723" lon="2.45556">
        <ele>70.9</ele>
        <time>2017-11-15T12:18:13Z</time>
      </trkpt>
      <trkpt lat="48.64724" lon="2.4557">
        <ele>71.6</ele>
        <time>2017-11-15T12:18:34Z</time>
      </trkpt>
      <trkpt lat="48.64722" lon="2.45583">
        <ele>72.5</ele>
        <time>2017-11-15T12:19:03Z</time>
      </trkpt>
      <trkpt lat="48.64729" lon="2.45593">
        <ele>73.3</ele>
        <time>2017-11-15T12:20:34Z</time>
      </trkpt>
      <trkpt lat="48.64735" lon="2.45603">
        <ele>73.9</ele>
        <time>2017-11-15T12:20:54Z</time>
      </trkpt>
      <trkpt lat="48.64742" lon="2.45612">
        <ele>74.3</ele>
        <time>2017-11-15T12:21:05Z</time>
      </trkpt>
      <trkpt lat="48.6475" lon="2.4562">
        <ele>74.6</ele>
        <time>2017-11-15T12:21:16Z</time>
      </trkpt>
      <trkpt lat="48.64758" lon="2.4563">
        <ele>75.4</ele>
        <time>2017-11-15T12:21:26Z</time>
      </trkpt>
      <trkpt lat="48.64764" lon="2.45641">
        <ele>75.9</ele>
        <time>2017-11-15T12:21:34Z</time>
      </trkpt>
      <trkpt lat="48.64768" lon="2.45653">
        <ele>76.7</ele>
        <time>2017-11-15T12:21:43Z</time>
      </trkpt>
      <trkpt lat="48.64774" lon="2.45665">
        <ele>77.4</ele>
        <time>2017-11-15T12:21:54Z</time>
      </trkpt>
      <trkpt lat="48.64778" lon="2.45679">
        <ele>77.8</ele>
        <time>2017-11-15T12:22:03Z</time>
      </trkpt>
      <trkpt lat="48.64783" lon="2.45691">
        <ele>78.3</ele>
        <time>2017-11-15T12:22:13Z</time>
      </trkpt>
      <trkpt lat="48.64786" lon="2.45705">
        <ele>78.9</ele>
        <time>2017-11-15T12:22:23Z</time>
      </trkpt>
      <trkpt lat="48.64791" lon="2.45715">
        <ele>79.8</ele>
        <time>2017-11-15T12:22:36Z</time>
      </trkpt>
      <trkpt lat="48.64791" lon="2.45729">
        <ele>81.1</ele>
        <time>2017-11-15T12:23:02Z</time>
      </trkpt>
      <trkpt lat="48.64798" lon="2.45721">
        <ele>80.9</ele>
        <time>2017-11-15T12:23:45Z</time>
      </trkpt>
      <trkpt lat="48.648" lon="2.45734">
        <ele>81.2</ele>
        <time>2017-11-15T12:24:12Z</time>
      </trkpt>
      <trkpt lat="48.64803" lon="2.45747">
        <ele>81.6</ele>
        <time>2017-11-15T12:24:24Z</time>
      </trkpt>
      <trkpt lat="48.6481" lon="2.45758">
        <ele>81.8</ele>
        <time>2017-11-15T12:24:33Z</time>
      </trkpt>
      <trkpt lat="48.64815" lon="2.45771">
        <ele>82.3</ele>
        <time>2017-11-15T12:24:42Z</time>
      </trkpt>
      <trkpt lat="48.64819" lon="2.45785">
        <ele>82.5</ele>
        <time>2017-11-15T12:24:49Z</time>
      </trkpt>
      <trkpt lat="48.6482" lon="2.458">
        <ele>83</ele>
        <time>2017-11-15T12:24:57Z</time>
      </trkpt>
      <trkpt lat="48.64821" lon="2.45815">
        <ele>83.5</ele>
        <time>2017-11-15T12:25:04Z</time>
      </trkpt>
      <trkpt lat="48.64828" lon="2.45826">
        <ele>83.6</ele>
        <time>2017-11-15T12:25:12Z</time>
      </trkpt>
      <trkpt lat="48.64834" lon="2.45837">
        <ele>84.4</ele>
        <time>2017-11-15T12:25:20Z</time>
      </trkpt>
      <trkpt lat="48.64841" lon="2.45845">
        <ele>84.8</ele>
        <time>2017-11-15T12:25:41Z</time>
      </trkpt>
      <trkpt lat="48.64851" lon="2.45846">
        <ele>84.9</ele>
        <time>2017-11-15T12:25:57Z</time>
      </trkpt>
      <trkpt lat="48.64861" lon="2.45845">
        <ele>84.9</ele>
        <time>2017-11-15T12:26:07Z</time>
      </trkpt>
      <trkpt lat="48.6487" lon="2.45843">
        <ele>85</ele>
        <time>2017-11-15T12:26:16Z</time>
      </trkpt>
      <trkpt lat="48.6488" lon="2.4584">
        <ele>85</ele>
        <time>2017-11-15T12:26:25Z</time>
      </trkpt>
      <trkpt lat="48.64889" lon="2.45836">
        <ele>85.5</ele>
        <time>2017-11-15T12:26:36Z</time>
      </trkpt>
      <trkpt lat="48.64898" lon="2.45834">
        <ele>85.7</ele>
        <time>2017-11-15T12:26:45Z</time>
      </trkpt>
      <trkpt lat="48.64906" lon="2.45829">
        <ele>85.4</ele>
        <time>2017-11-15T12:26:53Z</time>
      </trkpt>
      <trkpt lat="48.64915" lon="2.45821">
        <ele>85.6</ele>
        <time>2017-11-15T12:27:02Z</time>
      </trkpt>
      <trkpt lat="48.64922" lon="2.45813">
        <ele>85.8</ele>
        <time>2017-11-15T12:27:11Z</time>
      </trkpt>
      <trkpt lat="48.6493" lon="2.45803">
        <ele>85.4</ele>
        <time>2017-11-15T12:27:19Z</time>
      </trkpt>
      <trkpt lat="48.64938" lon="2.45795">
        <ele>85.6</ele>
        <time>2017-11-15T12:27:27Z</time>
      </trkpt>
      <trkpt lat="48.64945" lon="2.45785">
        <ele>85.7</ele>
        <time>2017-11-15T12:27:36Z</time>
      </trkpt>
      <trkpt lat="48.64952" lon="2.45776">
        <ele>85.7</ele>
        <time>2017-11-15T12:27:44Z</time>
      </trkpt>
      <trkpt lat="48.64961" lon="2.45771">
        <ele>85.8</ele>
        <time>2017-11-15T12:27:53Z</time>
      </trkpt>
      <trkpt lat="48.64971" lon="2.45776">
        <ele>86</ele>
        <time>2017-11-15T12:28:03Z</time>
      </trkpt>
      <trkpt lat="48.64976" lon="2.45787">
        <ele>86.7</ele>
        <time>2017-11-15T12:28:13Z</time>
      </trkpt>
      <trkpt lat="48.64982" lon="2.45798">
        <ele>88</ele>
        <time>2017-11-15T12:28:28Z</time>
      </trkpt>
      <trkpt lat="48.64982" lon="2.45812">
        <ele>88.2</ele>
        <time>2017-11-15T12:28:39Z</time>
      </trkpt>
      <trkpt lat="48.6498" lon="2.45827">
        <ele>88.2</ele>
        <time>2017-11-15T12:28:50Z</time>
      </trkpt>
      <trkpt lat="48.6498" lon="2.45841">
        <ele>88.3</ele>
        <time>2017-11-15T12:28:58Z</time>
      </trkpt>
      <trkpt lat="48.64982" lon="2.45855">
        <ele>88.3</ele>
        <time>2017-11-15T12:29:06Z</time>
      </trkpt>
      <trkpt lat="48.64983" lon="2.45869">
        <ele>88.4</ele>
        <time>2017-11-15T12:29:14Z</time>
      </trkpt>
      <trkpt lat="48.64986" lon="2.45883">
        <ele>88.6</ele>
        <time>2017-11-15T12:29:22Z</time>
      </trkpt>
      <trkpt lat="48.64987" lon="2.45898">
        <ele>88.8</ele>
        <time>2017-11-15T12:29:30Z</time>
      </trkpt>
      <trkpt lat="48.64989" lon="2.45913">
        <ele>89.2</ele>
        <time>2017-11-15T12:29:38Z</time>
      </trkpt>
      <trkpt lat="48.64991" lon="2.45927">
        <ele>89.2</ele>
        <time>2017-11-15T12:29:45Z</time>
      </trkpt>
      <trkpt lat="48.64994" lon="2.45941">
        <ele>89.4</ele>
        <time>2017-11-15T12:29:53Z</time>
      </trkpt>
      <trkpt lat="48.64995" lon="2.45956">
        <ele>89.8</ele>
        <time>2017-11-15T12:30:01Z</time>
      </trkpt>
      <trkpt lat="48.64992" lon="2.4597">
        <ele>90</ele>
        <time>2017-11-15T12:30:08Z</time>
      </trkpt>
      <trkpt lat="48.64986" lon="2.4598">
        <ele>90.1</ele>
        <time>2017-11-15T12:30:17Z</time>
      </trkpt>
      <trkpt lat="48.6498" lon="2.45992">
        <ele>90.3</ele>
        <time>2017-11-15T12:30:24Z</time>
      </trkpt>
      <trkpt lat="48.64976" lon="2.46006">
        <ele>90.8</ele>
        <time>2017-11-15T12:30:33Z</time>
      </trkpt>
      <trkpt lat="48.64971" lon="2.4602">
        <ele>91</ele>
        <time>2017-11-15T12:30:43Z</time>
      </trkpt>
      <trkpt lat="48.64964" lon="2.4603">
        <ele>91</ele>
        <time>2017-11-15T12:30:51Z</time>
      </trkpt>
      <trkpt lat="48.64957" lon="2.46041">
        <ele>91.1</ele>
        <time>2017-11-15T12:31:00Z</time>
      </trkpt>
      <trkpt lat="48.64948" lon="2.46043">
        <ele>91.3</ele>
        <time>2017-11-15T12:31:07Z</time>
      </trkpt>
      <trkpt lat="48.64939" lon="2.46044">
        <ele>91.5</ele>
        <time>2017-11-15T12:31:16Z</time>
      </trkpt>
      <trkpt lat="48.6493" lon="2.46049">
        <ele>91.6</ele>
        <time>2017-11-15T12:31:24Z</time>
      </trkpt>
      <trkpt lat="48.64921" lon="2.46055">
        <ele>91.6</ele>
        <time>2017-11-15T12:31:31Z</time>
      </trkpt>
      <trkpt lat="48.64912" lon="2.46059">
        <ele>91.8</ele>
        <time>2017-11-15T12:31:38Z</time>
      </trkpt>
      <trkpt lat="48.64903" lon="2.46067">
        <ele>91.8</ele>
        <time>2017-11-15T12:31:46Z</time>
      </trkpt>
      <trkpt lat="48.64896" lon="2.46078">
        <ele>92</ele>
        <time>2017-11-15T12:31:53Z</time>
      </trkpt>
      <trkpt lat="48.64894" lon="2.46092">
        <ele>91.7</ele>
        <time>2017-11-15T12:32:03Z</time>
      </trkpt>
      <trkpt lat="48.64885" lon="2.46095">
        <ele>92</ele>
        <time>2017-11-15T12:32:12Z</time>
      </trkpt>
      <trkpt lat="48.64879" lon="2.46083">
        <ele>92.7</ele>
        <time>2017-11-15T12:32:19Z</time>
      </trkpt>
      <trkpt lat="48.64869" lon="2.46077">
        <ele>93.2</ele>
        <time>2017-11-15T12:32:27Z</time>
      </trkpt>
      <trkpt lat="48.6486" lon="2.46071">
        <ele>92.8</ele>
        <time>2017-11-15T12:32:34Z</time>
      </trkpt>
      <trkpt lat="48.64851" lon="2.46068">
        <ele>92.5</ele>
        <time>2017-11-15T12:32:41Z</time>
      </trkpt>
      <trkpt lat="48.64842" lon="2.46063">
        <ele>92</ele>
        <time>2017-11-15T12:32:50Z</time>
      </trkpt>
      <trkpt lat="48.64833" lon="2.46066">
        <ele>91.8</ele>
        <time>2017-11-15T12:32:58Z</time>
      </trkpt>
      <trkpt lat="48.64825" lon="2.46074">
        <ele>91.6</ele>
        <time>2017-11-15T12:33:05Z</time>
      </trkpt>
      <trkpt lat="48.64818" lon="2.46082">
        <ele>91.8</ele>
        <time>2017-11-15T12:33:14Z</time>
      </trkpt>
      <trkpt lat="48.64811" lon="2.46092">
        <ele>92.1</ele>
        <time>2017-11-15T12:33:21Z</time>
      </trkpt>
      <trkpt lat="48.64811" lon="2.46106">
        <ele>92.5</ele>
        <time>2017-11-15T12:33:29Z</time>
      </trkpt>
      <trkpt lat="48.64816" lon="2.46118">
        <ele>92.6</ele>
        <time>2017-11-15T12:34:15Z</time>
      </trkpt>
      <trkpt lat="48.6481" lon="2.46106">
        <ele>92.7</ele>
        <time>2017-11-15T12:34:44Z</time>
      </trkpt>
      <trkpt lat="48.64814" lon="2.46091">
        <ele>92.6</ele>
        <time>2017-11-15T12:34:58Z</time>
      </trkpt>
      <trkpt lat="48.64821" lon="2.46081">
        <ele>92.3</ele>
        <time>2017-11-15T12:35:06Z</time>
      </trkpt>
      <trkpt lat="48.64829" lon="2.46073">
        <ele>91.9</ele>
        <time>2017-11-15T12:35:16Z</time>
      </trkpt>
      <trkpt lat="48.64838" lon="2.46068">
        <ele>91.8</ele>
        <time>2017-11-15T12:35:27Z</time>
      </trkpt>
      <trkpt lat="48.64847" lon="2.46067">
        <ele>92</ele>
        <time>2017-11-15T12:35:36Z</time>
      </trkpt>
      <trkpt lat="48.64858" lon="2.4607">
        <ele>92.3</ele>
        <time>2017-11-15T12:35:45Z</time>
      </trkpt>
      <trkpt lat="48.64867" lon="2.46074">
        <ele>92.4</ele>
        <time>2017-11-15T12:35:53Z</time>
      </trkpt>
      <trkpt lat="48.64876" lon="2.4608">
        <ele>92.4</ele>
        <time>2017-11-15T12:36:01Z</time>
      </trkpt>
      <trkpt lat="48.64886" lon="2.46076">
        <ele>92.4</ele>
        <time>2017-11-15T12:36:09Z</time>
      </trkpt>
      <trkpt lat="48.64894" lon="2.46071">
        <ele>92</ele>
        <time>2017-11-15T12:36:18Z</time>
      </trkpt>
      <trkpt lat="48.64904" lon="2.46068">
        <ele>91.7</ele>
        <time>2017-11-15T12:36:27Z</time>
      </trkpt>
      <trkpt lat="48.64912" lon="2.46062">
        <ele>91.7</ele>
        <time>2017-11-15T12:36:36Z</time>
      </trkpt>
      <trkpt lat="48.64922" lon="2.46058">
        <ele>91.5</ele>
        <time>2017-11-15T12:36:45Z</time>
      </trkpt>
      <trkpt lat="48.64931" lon="2.46055">
        <ele>91.4</ele>
        <time>2017-11-15T12:36:54Z</time>
      </trkpt>
      <trkpt lat="48.6494" lon="2.46052">
        <ele>91.3</ele>
        <time>2017-11-15T12:37:02Z</time>
      </trkpt>
      <trkpt lat="48.6495" lon="2.46048">
        <ele>90.7</ele>
        <time>2017-11-15T12:37:13Z</time>
      </trkpt>
      <trkpt lat="48.64959" lon="2.46043">
        <ele>90.8</ele>
        <time>2017-11-15T12:37:22Z</time>
      </trkpt>
      <trkpt lat="48.64967" lon="2.46035">
        <ele>90.7</ele>
        <time>2017-11-15T12:37:30Z</time>
      </trkpt>
      <trkpt lat="48.64973" lon="2.46022">
        <ele>90.6</ele>
        <time>2017-11-15T12:37:38Z</time>
      </trkpt>
      <trkpt lat="48.64976" lon="2.46009">
        <ele>90.2</ele>
        <time>2017-11-15T12:37:46Z</time>
      </trkpt>
      <trkpt lat="48.6498" lon="2.45996">
        <ele>89.9</ele>
        <time>2017-11-15T12:37:54Z</time>
      </trkpt>
      <trkpt lat="48.64987" lon="2.45984">
        <ele>89.9</ele>
        <time>2017-11-15T12:38:03Z</time>
      </trkpt>
      <trkpt lat="48.64993" lon="2.45972">
        <ele>90.1</ele>
        <time>2017-11-15T12:38:13Z</time>
      </trkpt>
      <trkpt lat="48.65" lon="2.45964">
        <ele>89.9</ele>
        <time>2017-11-15T12:38:28Z</time>
      </trkpt>
      <trkpt lat="48.65008" lon="2.45973">
        <ele>90</ele>
        <time>2017-11-15T12:38:41Z</time>
      </trkpt>
      <trkpt lat="48.65016" lon="2.45982">
        <ele>90.4</ele>
        <time>2017-11-15T12:38:50Z</time>
      </trkpt>
      <trkpt lat="48.65022" lon="2.45992">
        <ele>90.5</ele>
        <time>2017-11-15T12:38:58Z</time>
      </trkpt>
      <trkpt lat="48.65029" lon="2.46003">
        <ele>90.7</ele>
        <time>2017-11-15T12:39:06Z</time>
      </trkpt>
      <trkpt lat="48.65035" lon="2.46015">
        <ele>90.8</ele>
        <time>2017-11-15T12:39:16Z</time>
      </trkpt>
      <trkpt lat="48.6504" lon="2.46026">
        <ele>91.2</ele>
        <time>2017-11-15T12:39:25Z</time>
      </trkpt>
      <trkpt lat="48.65047" lon="2.46037">
        <ele>91.2</ele>
        <time>2017-11-15T12:39:34Z</time>
      </trkpt>
      <trkpt lat="48.65054" lon="2.46046">
        <ele>91.5</ele>
        <time>2017-11-15T12:39:47Z</time>
      </trkpt>
      <trkpt lat="48.65051" lon="2.46059">
        <ele>91.6</ele>
        <time>2017-11-15T12:40:03Z</time>
      </trkpt>
      <trkpt lat="48.65043" lon="2.46068">
        <ele>91.9</ele>
        <time>2017-11-15T12:40:21Z</time>
      </trkpt>
      <trkpt lat="48.65036" lon="2.46079">
        <ele>91.9</ele>
        <time>2017-11-15T12:40:31Z</time>
      </trkpt>
      <trkpt lat="48.6503" lon="2.46088">
        <ele>91.8</ele>
        <time>2017-11-15T12:40:41Z</time>
      </trkpt>
      <trkpt lat="48.65023" lon="2.46099">
        <ele>92</ele>
        <time>2017-11-15T12:40:51Z</time>
      </trkpt>
      <trkpt lat="48.65017" lon="2.46109">
        <ele>92</ele>
        <time>2017-11-15T12:41:00Z</time>
      </trkpt>
      <trkpt lat="48.6501" lon="2.46118">
        <ele>92.1</ele>
        <time>2017-11-15T12:41:08Z</time>
      </trkpt>
      <trkpt lat="48.65003" lon="2.46128">
        <ele>92.4</ele>
        <time>2017-11-15T12:41:16Z</time>
      </trkpt>
      <trkpt lat="48.64997" lon="2.46139">
        <ele>92.6</ele>
        <time>2017-11-15T12:41:23Z</time>
      </trkpt>
      <trkpt lat="48.64991" lon="2.46151">
        <ele>92.6</ele>
        <time>2017-11-15T12:41:30Z</time>
      </trkpt>
      <trkpt lat="48.64985" lon="2.46163">
        <ele>93</ele>
        <time>2017-11-15T12:41:37Z</time>
      </trkpt>
      <trkpt lat="48.64978" lon="2.46173">
        <ele>93.3</ele>
        <time>2017-11-15T12:41:44Z</time>
      </trkpt>
      <trkpt lat="48.64971" lon="2.46184">
        <ele>93.4</ele>
        <time>2017-11-15T12:41:51Z</time>
      </trkpt>
      <trkpt lat="48.64963" lon="2.46192">
        <ele>93.5</ele>
        <time>2017-11-15T12:41:58Z</time>
      </trkpt>
      <trkpt lat="48.64956" lon="2.46202">
        <ele>93.6</ele>
        <time>2017-11-15T12:42:06Z</time>
      </trkpt>
      <trkpt lat="48.64949" lon="2.46212">
        <ele>94</ele>
        <time>2017-11-15T12:42:14Z</time>
      </trkpt>
      <trkpt lat="48.64944" lon="2.46224">
        <ele>94.2</ele>
        <time>2017-11-15T12:42:22Z</time>
      </trkpt>
      <trkpt lat="48.64937" lon="2.46235">
        <ele>94.6</ele>
        <time>2017-11-15T12:42:30Z</time>
      </trkpt>
      <trkpt lat="48.6493" lon="2.46244">
        <ele>94.7</ele>
        <time>2017-11-15T12:42:38Z</time>
      </trkpt>
      <trkpt lat="48.64924" lon="2.46255">
        <ele>94.8</ele>
        <time>2017-11-15T12:42:46Z</time>
      </trkpt>
      <trkpt lat="48.64916" lon="2.46265">
        <ele>95.1</ele>
        <time>2017-11-15T12:42:55Z</time>
      </trkpt>
      <trkpt lat="48.64909" lon="2.46273">
        <ele>95.1</ele>
        <time>2017-11-15T12:43:02Z</time>
      </trkpt>
      <trkpt lat="48.64903" lon="2.46285">
        <ele>95.4</ele>
        <time>2017-11-15T12:43:10Z</time>
      </trkpt>
      <trkpt lat="48.64896" lon="2.46295">
        <ele>95.5</ele>
        <time>2017-11-15T12:43:19Z</time>
      </trkpt>
      <trkpt lat="48.6489" lon="2.46305">
        <ele>95.7</ele>
        <time>2017-11-15T12:43:27Z</time>
      </trkpt>
      <trkpt lat="48.64883" lon="2.46315">
        <ele>95.6</ele>
        <time>2017-11-15T12:43:36Z</time>
      </trkpt>
      <trkpt lat="48.64877" lon="2.46325">
        <ele>95.8</ele>
        <time>2017-11-15T12:43:44Z</time>
      </trkpt>
      <trkpt lat="48.64869" lon="2.46335">
        <ele>95.6</ele>
        <time>2017-11-15T12:43:53Z</time>
      </trkpt>
      <trkpt lat="48.64863" lon="2.46345">
        <ele>95.8</ele>
        <time>2017-11-15T12:44:02Z</time>
      </trkpt>
      <trkpt lat="48.64855" lon="2.4635">
        <ele>96</ele>
        <time>2017-11-15T12:44:13Z</time>
      </trkpt>
      <trkpt lat="48.64847" lon="2.46343">
        <ele>95.8</ele>
        <time>2017-11-15T12:44:23Z</time>
      </trkpt>
      <trkpt lat="48.64839" lon="2.46334">
        <ele>95.5</ele>
        <time>2017-11-15T12:44:32Z</time>
      </trkpt>
      <trkpt lat="48.6483" lon="2.46341">
        <ele>95.6</ele>
        <time>2017-11-15T12:44:42Z</time>
      </trkpt>
      <trkpt lat="48.64824" lon="2.46351">
        <ele>95.5</ele>
        <time>2017-11-15T12:44:51Z</time>
      </trkpt>
      <trkpt lat="48.64818" lon="2.46362">
        <ele>95.6</ele>
        <time>2017-11-15T12:44:59Z</time>
      </trkpt>
      <trkpt lat="48.64811" lon="2.46373">
        <ele>95.1</ele>
        <time>2017-11-15T12:45:08Z</time>
      </trkpt>
      <trkpt lat="48.64804" lon="2.46383">
        <ele>95.4</ele>
        <time>2017-11-15T12:45:16Z</time>
      </trkpt>
      <trkpt lat="48.64799" lon="2.46396">
        <ele>95.4</ele>
        <time>2017-11-15T12:45:25Z</time>
      </trkpt>
      <trkpt lat="48.64792" lon="2.46407">
        <ele>95.5</ele>
        <time>2017-11-15T12:45:36Z</time>
      </trkpt>
      <trkpt lat="48.64786" lon="2.46416">
        <ele>95.6</ele>
        <time>2017-11-15T12:45:45Z</time>
      </trkpt>
      <trkpt lat="48.6478" lon="2.46427">
        <ele>95.5</ele>
        <time>2017-11-15T12:45:53Z</time>
      </trkpt>
      <trkpt lat="48.64775" lon="2.46438">
        <ele>95.5</ele>
        <time>2017-11-15T12:46:02Z</time>
      </trkpt>
      <trkpt lat="48.64772" lon="2.46453">
        <ele>95.5</ele>
        <time>2017-11-15T12:46:11Z</time>
      </trkpt>
      <trkpt lat="48.64774" lon="2.46466">
        <ele>95.5</ele>
        <time>2017-11-15T12:46:20Z</time>
      </trkpt>
      <trkpt lat="48.64781" lon="2.46477">
        <ele>95.4</ele>
        <time>2017-11-15T12:46:29Z</time>
      </trkpt>
      <trkpt lat="48.64786" lon="2.4649">
        <ele>95.5</ele>
        <time>2017-11-15T12:46:38Z</time>
      </trkpt>
      <trkpt lat="48.64791" lon="2.46501">
        <ele>95.6</ele>
        <time>2017-11-15T12:46:45Z</time>
      </trkpt>
      <trkpt lat="48.64798" lon="2.46512">
        <ele>95.8</ele>
        <time>2017-11-15T12:46:53Z</time>
      </trkpt>
      <trkpt lat="48.64805" lon="2.46523">
        <ele>96</ele>
        <time>2017-11-15T12:47:00Z</time>
      </trkpt>
      <trkpt lat="48.64811" lon="2.46533">
        <ele>95.9</ele>
        <time>2017-11-15T12:47:09Z</time>
      </trkpt>
      <trkpt lat="48.64818" lon="2.46543">
        <ele>96.1</ele>
        <time>2017-11-15T12:47:17Z</time>
      </trkpt>
      <trkpt lat="48.64824" lon="2.46554">
        <ele>96.2</ele>
        <time>2017-11-15T12:47:24Z</time>
      </trkpt>
      <trkpt lat="48.6483" lon="2.46564">
        <ele>96.3</ele>
        <time>2017-11-15T12:47:31Z</time>
      </trkpt>
      <trkpt lat="48.64835" lon="2.46575">
        <ele>96.2</ele>
        <time>2017-11-15T12:47:38Z</time>
      </trkpt>
      <trkpt lat="48.64843" lon="2.46585">
        <ele>96.2</ele>
        <time>2017-11-15T12:47:46Z</time>
      </trkpt>
      <trkpt lat="48.6485" lon="2.46595">
        <ele>96.4</ele>
        <time>2017-11-15T12:47:54Z</time>
      </trkpt>
      <trkpt lat="48.64858" lon="2.46603">
        <ele>96.6</ele>
        <time>2017-11-15T12:48:02Z</time>
      </trkpt>
      <trkpt lat="48.64864" lon="2.46614">
        <ele>96.7</ele>
        <time>2017-11-15T12:48:11Z</time>
      </trkpt>
      <trkpt lat="48.64865" lon="2.46628">
        <ele>96.9</ele>
        <time>2017-11-15T12:48:21Z</time>
      </trkpt>
      <trkpt lat="48.64862" lon="2.46642">
        <ele>97</ele>
        <time>2017-11-15T12:48:31Z</time>
      </trkpt>
      <trkpt lat="48.64858" lon="2.46654">
        <ele>97</ele>
        <time>2017-11-15T12:48:43Z</time>
      </trkpt>
      <trkpt lat="48.64849" lon="2.46658">
        <ele>97.1</ele>
        <time>2017-11-15T12:48:55Z</time>
      </trkpt>
      <trkpt lat="48.64846" lon="2.46671">
        <ele>97.1</ele>
        <time>2017-11-15T12:49:13Z</time>
      </trkpt>
      <trkpt lat="48.64844" lon="2.46686">
        <ele>97</ele>
        <time>2017-11-15T12:49:23Z</time>
      </trkpt>
      <trkpt lat="48.64849" lon="2.46698">
        <ele>97.1</ele>
        <time>2017-11-15T12:49:40Z</time>
      </trkpt>
      <trkpt lat="48.64854" lon="2.46711">
        <ele>96.8</ele>
        <time>2017-11-15T12:49:51Z</time>
      </trkpt>
      <trkpt lat="48.64861" lon="2.46721">
        <ele>97</ele>
        <time>2017-11-15T12:49:59Z</time>
      </trkpt>
      <trkpt lat="48.64868" lon="2.4673">
        <ele>97.1</ele>
        <time>2017-11-15T12:50:09Z</time>
      </trkpt>
      <trkpt lat="48.64875" lon="2.4674">
        <ele>97.1</ele>
        <time>2017-11-15T12:50:18Z</time>
      </trkpt>
      <trkpt lat="48.64882" lon="2.46752">
        <ele>97.1</ele>
        <time>2017-11-15T12:50:26Z</time>
      </trkpt>
      <trkpt lat="48.64889" lon="2.46761">
        <ele>97</ele>
        <time>2017-11-15T12:50:32Z</time>
      </trkpt>
      <trkpt lat="48.64896" lon="2.46771">
        <ele>97.2</ele>
        <time>2017-11-15T12:50:39Z</time>
      </trkpt>
      <trkpt lat="48.64903" lon="2.46781">
        <ele>97.3</ele>
        <time>2017-11-15T12:50:46Z</time>
      </trkpt>
      <trkpt lat="48.64909" lon="2.46791">
        <ele>97.3</ele>
        <time>2017-11-15T12:50:55Z</time>
      </trkpt>
      <trkpt lat="48.64914" lon="2.46803">
        <ele>97.3</ele>
        <time>2017-11-15T12:51:05Z</time>
      </trkpt>
      <trkpt lat="48.64921" lon="2.46815">
        <ele>97.5</ele>
        <time>2017-11-15T12:51:14Z</time>
      </trkpt>
      <trkpt lat="48.64929" lon="2.46824">
        <ele>97.5</ele>
        <time>2017-11-15T12:51:22Z</time>
      </trkpt>
      <trkpt lat="48.64934" lon="2.46835">
        <ele>97.5</ele>
        <time>2017-11-15T12:51:31Z</time>
      </trkpt>
      <trkpt lat="48.64941" lon="2.46845">
        <ele>97.5</ele>
        <time>2017-11-15T12:51:38Z</time>
      </trkpt>
      <trkpt lat="48.64948" lon="2.46855">
        <ele>97.6</ele>
        <time>2017-11-15T12:51:47Z</time>
      </trkpt>
      <trkpt lat="48.64954" lon="2.46866">
        <ele>97.7</ele>
        <time>2017-11-15T12:51:56Z</time>
      </trkpt>
      <trkpt lat="48.6496" lon="2.46877">
        <ele>97.8</ele>
        <time>2017-11-15T12:52:04Z</time>
      </trkpt>
      <trkpt lat="48.64969" lon="2.46887">
        <ele>97.9</ele>
        <time>2017-11-15T12:52:12Z</time>
      </trkpt>
      <trkpt lat="48.64974" lon="2.46898">
        <ele>97.9</ele>
        <time>2017-11-15T12:52:20Z</time>
      </trkpt>
      <trkpt lat="48.64982" lon="2.46906">
        <ele>98</ele>
        <time>2017-11-15T12:52:27Z</time>
      </trkpt>
      <trkpt lat="48.64988" lon="2.46917">
        <ele>97.9</ele>
        <time>2017-11-15T12:52:35Z</time>
      </trkpt>
      <trkpt lat="48.64995" lon="2.46927">
        <ele>98.2</ele>
        <time>2017-11-15T12:52:45Z</time>
      </trkpt>
      <trkpt lat="48.65001" lon="2.46937">
        <ele>98.3</ele>
        <time>2017-11-15T12:52:54Z</time>
      </trkpt>
      <trkpt lat="48.65009" lon="2.46945">
        <ele>98.3</ele>
        <time>2017-11-15T12:53:02Z</time>
      </trkpt>
      <trkpt lat="48.65014" lon="2.46957">
        <ele>98.1</ele>
        <time>2017-11-15T12:53:12Z</time>
      </trkpt>
      <trkpt lat="48.65017" lon="2.46971">
        <ele>97.8</ele>
        <time>2017-11-15T12:53:27Z</time>
      </trkpt>
      <trkpt lat="48.65024" lon="2.46981">
        <ele>97.6</ele>
        <time>2017-11-15T12:53:38Z</time>
      </trkpt>
      <trkpt lat="48.65029" lon="2.46993">
        <ele>97.8</ele>
        <time>2017-11-15T12:53:47Z</time>
      </trkpt>
      <trkpt lat="48.65037" lon="2.47003">
        <ele>97.7</ele>
        <time>2017-11-15T12:53:55Z</time>
      </trkpt>
      <trkpt lat="48.65045" lon="2.47011">
        <ele>98</ele>
        <time>2017-11-15T12:54:16Z</time>
      </trkpt>
      <trkpt lat="48.65052" lon="2.47019">
        <ele>97.8</ele>
        <time>2017-11-15T12:54:41Z</time>
      </trkpt>
      <trkpt lat="48.65058" lon="2.4703">
        <ele>97.9</ele>
        <time>2017-11-15T12:54:55Z</time>
      </trkpt>
      <trkpt lat="48.65065" lon="2.4704">
        <ele>98</ele>
        <time>2017-11-15T12:55:08Z</time>
      </trkpt>
      <trkpt lat="48.65074" lon="2.4704">
        <ele>98.3</ele>
        <time>2017-11-15T12:57:03Z</time>
      </trkpt>
      <trkpt lat="48.65083" lon="2.47042">
        <ele>98.2</ele>
        <time>2017-11-15T12:58:52Z</time>
      </trkpt>
      <trkpt lat="48.65074" lon="2.47042">
        <ele>98.2</ele>
        <time>2017-11-15T12:59:32Z</time>
      </trkpt>
      <trkpt lat="48.6508" lon="2.47032">
        <ele>98.3</ele>
        <time>2017-11-15T13:00:34Z</time>
      </trkpt>
      <trkpt lat="48.65087" lon="2.47023">
        <ele>98.4</ele>
        <time>2017-11-15T13:00:44Z</time>
      </trkpt>
      <trkpt lat="48.65095" lon="2.47015">
        <ele>98.6</ele>
        <time>2017-11-15T13:00:52Z</time>
      </trkpt>
      <trkpt lat="48.65103" lon="2.47007">
        <ele>98.4</ele>
        <time>2017-11-15T13:01:03Z</time>
      </trkpt>
      <trkpt lat="48.65111" lon="2.46998">
        <ele>98.4</ele>
        <time>2017-11-15T13:01:11Z</time>
      </trkpt>
      <trkpt lat="48.65117" lon="2.46987">
        <ele>98.6</ele>
        <time>2017-11-15T13:01:19Z</time>
      </trkpt>
      <trkpt lat="48.65124" lon="2.46977">
        <ele>98.6</ele>
        <time>2017-11-15T13:01:27Z</time>
      </trkpt>
      <trkpt lat="48.65129" lon="2.46966">
        <ele>98.6</ele>
        <time>2017-11-15T13:01:33Z</time>
      </trkpt>
      <trkpt lat="48.65136" lon="2.46956">
        <ele>98.7</ele>
        <time>2017-11-15T13:01:41Z</time>
      </trkpt>
      <trkpt lat="48.65144" lon="2.46946">
        <ele>98.6</ele>
        <time>2017-11-15T13:01:49Z</time>
      </trkpt>
      <trkpt lat="48.65152" lon="2.46936">
        <ele>98.5</ele>
        <time>2017-11-15T13:01:57Z</time>
      </trkpt>
      <trkpt lat="48.6516" lon="2.46928">
        <ele>98.5</ele>
        <time>2017-11-15T13:02:06Z</time>
      </trkpt>
      <trkpt lat="48.65168" lon="2.46918">
        <ele>98.7</ele>
        <time>2017-11-15T13:02:16Z</time>
      </trkpt>
      <trkpt lat="48.65176" lon="2.46909">
        <ele>98.8</ele>
        <time>2017-11-15T13:02:24Z</time>
      </trkpt>
      <trkpt lat="48.65183" lon="2.46898">
        <ele>99</ele>
        <time>2017-11-15T13:02:32Z</time>
      </trkpt>
      <trkpt lat="48.65188" lon="2.46886">
        <ele>98.9</ele>
        <time>2017-11-15T13:02:39Z</time>
      </trkpt>
      <trkpt lat="48.65196" lon="2.46877">
        <ele>98.9</ele>
        <time>2017-11-15T13:02:47Z</time>
      </trkpt>
      <trkpt lat="48.65205" lon="2.46869">
        <ele>98.8</ele>
        <time>2017-11-15T13:02:57Z</time>
      </trkpt>
      <trkpt lat="48.65213" lon="2.46858">
        <ele>98.6</ele>
        <time>2017-11-15T13:03:05Z</time>
      </trkpt>
      <trkpt lat="48.6522" lon="2.4685">
        <ele>98.8</ele>
        <time>2017-11-15T13:03:13Z</time>
      </trkpt>
      <trkpt lat="48.65227" lon="2.46839">
        <ele>98.9</ele>
        <time>2017-11-15T13:03:21Z</time>
      </trkpt>
      <trkpt lat="48.65235" lon="2.46831">
        <ele>98.7</ele>
        <time>2017-11-15T13:03:30Z</time>
      </trkpt>
      <trkpt lat="48.65243" lon="2.46825">
        <ele>98.8</ele>
        <time>2017-11-15T13:03:37Z</time>
      </trkpt>
      <trkpt lat="48.65253" lon="2.46822">
        <ele>98.5</ele>
        <time>2017-11-15T13:03:46Z</time>
      </trkpt>
      <trkpt lat="48.65262" lon="2.46819">
        <ele>98.5</ele>
        <time>2017-11-15T13:03:58Z</time>
      </trkpt>
      <trkpt lat="48.65271" lon="2.46814">
        <ele>98.6</ele>
        <time>2017-11-15T13:04:06Z</time>
      </trkpt>
      <trkpt lat="48.6528" lon="2.4681">
        <ele>98.4</ele>
        <time>2017-11-15T13:04:13Z</time>
      </trkpt>
      <trkpt lat="48.6529" lon="2.4681">
        <ele>98.5</ele>
        <time>2017-11-15T13:04:24Z</time>
      </trkpt>
      <trkpt lat="48.653" lon="2.46806">
        <ele>98.6</ele>
        <time>2017-11-15T13:04:32Z</time>
      </trkpt>
      <trkpt lat="48.65308" lon="2.46798">
        <ele>99</ele>
        <time>2017-11-15T13:04:41Z</time>
      </trkpt>
      <trkpt lat="48.65317" lon="2.46793">
        <ele>99</ele>
        <time>2017-11-15T13:04:51Z</time>
      </trkpt>
      <trkpt lat="48.65326" lon="2.46789">
        <ele>99</ele>
        <time>2017-11-15T13:04:59Z</time>
      </trkpt>
      <trkpt lat="48.65335" lon="2.46794">
        <ele>98.9</ele>
        <time>2017-11-15T13:05:09Z</time>
      </trkpt>
      <trkpt lat="48.65344" lon="2.468">
        <ele>98.8</ele>
        <time>2017-11-15T13:05:20Z</time>
      </trkpt>
      <trkpt lat="48.65353" lon="2.46805">
        <ele>98.9</ele>
        <time>2017-11-15T13:05:31Z</time>
      </trkpt>
      <trkpt lat="48.65362" lon="2.46806">
        <ele>99.3</ele>
        <time>2017-11-15T13:06:07Z</time>
      </trkpt>
      <trkpt lat="48.65371" lon="2.46802">
        <ele>98.9</ele>
        <time>2017-11-15T13:06:15Z</time>
      </trkpt>
      <trkpt lat="48.65381" lon="2.46804">
        <ele>98.9</ele>
        <time>2017-11-15T13:06:41Z</time>
      </trkpt>
      <trkpt lat="48.65391" lon="2.46803">
        <ele>98.7</ele>
        <time>2017-11-15T13:06:53Z</time>
      </trkpt>
      <trkpt lat="48.65399" lon="2.46796">
        <ele>98.7</ele>
        <time>2017-11-15T13:07:01Z</time>
      </trkpt>
      <trkpt lat="48.65407" lon="2.46789">
        <ele>98.7</ele>
        <time>2017-11-15T13:07:10Z</time>
      </trkpt>
      <trkpt lat="48.65412" lon="2.46778">
        <ele>99.1</ele>
        <time>2017-11-15T13:07:22Z</time>
      </trkpt>
      <trkpt lat="48.65421" lon="2.46772">
        <ele>99.1</ele>
        <time>2017-11-15T13:07:34Z</time>
      </trkpt>
      <trkpt lat="48.65428" lon="2.46765">
        <ele>98.9</ele>
        <time>2017-11-15T13:07:43Z</time>
      </trkpt>
      <trkpt lat="48.65437" lon="2.4676">
        <ele>98.9</ele>
        <time>2017-11-15T13:07:54Z</time>
      </trkpt>
      <trkpt lat="48.65447" lon="2.46756">
        <ele>98.9</ele>
        <time>2017-11-15T13:08:01Z</time>
      </trkpt>
      <trkpt lat="48.65456" lon="2.46752">
        <ele>98.8</ele>
        <time>2017-11-15T13:08:09Z</time>
      </trkpt>
      <trkpt lat="48.65465" lon="2.46747">
        <ele>98.8</ele>
        <time>2017-11-15T13:08:18Z</time>
      </trkpt>
      <trkpt lat="48.65474" lon="2.46742">
        <ele>98.7</ele>
        <time>2017-11-15T13:08:26Z</time>
      </trkpt>
      <trkpt lat="48.65482" lon="2.46735">
        <ele>98.7</ele>
        <time>2017-11-15T13:08:33Z</time>
      </trkpt>
      <trkpt lat="48.65492" lon="2.46729">
        <ele>98.7</ele>
        <time>2017-11-15T13:08:43Z</time>
      </trkpt>
      <trkpt lat="48.655" lon="2.46724">
        <ele>98.8</ele>
        <time>2017-11-15T13:08:50Z</time>
      </trkpt>
      <trkpt lat="48.6551" lon="2.46722">
        <ele>98.8</ele>
        <time>2017-11-15T13:09:00Z</time>
      </trkpt>
      <trkpt lat="48.65519" lon="2.46717">
        <ele>98.9</ele>
        <time>2017-11-15T13:09:08Z</time>
      </trkpt>
      <trkpt lat="48.65527" lon="2.46712">
        <ele>99</ele>
        <time>2017-11-15T13:09:16Z</time>
      </trkpt>
      <trkpt lat="48.65536" lon="2.46709">
        <ele>99</ele>
        <time>2017-11-15T13:09:22Z</time>
      </trkpt>
      <trkpt lat="48.65545" lon="2.46707">
        <ele>98.9</ele>
        <time>2017-11-15T13:09:29Z</time>
      </trkpt>
      <trkpt lat="48.65554" lon="2.46702">
        <ele>98.9</ele>
        <time>2017-11-15T13:09:37Z</time>
      </trkpt>
      <trkpt lat="48.65563" lon="2.46699">
        <ele>98.8</ele>
        <time>2017-11-15T13:09:52Z</time>
      </trkpt>
      <trkpt lat="48.65573" lon="2.46696">
        <ele>98.7</ele>
        <time>2017-11-15T13:10:00Z</time>
      </trkpt>
      <trkpt lat="48.65582" lon="2.46695">
        <ele>98.6</ele>
        <time>2017-11-15T13:10:09Z</time>
      </trkpt>
      <trkpt lat="48.6559" lon="2.46701">
        <ele>98.6</ele>
        <time>2017-11-15T13:10:24Z</time>
      </trkpt>
      <trkpt lat="48.65598" lon="2.4671">
        <ele>98.6</ele>
        <time>2017-11-15T13:10:34Z</time>
      </trkpt>
      <trkpt lat="48.65605" lon="2.46717">
        <ele>98.7</ele>
        <time>2017-11-15T13:10:42Z</time>
      </trkpt>
      <trkpt lat="48.65615" lon="2.46721">
        <ele>98.5</ele>
        <time>2017-11-15T13:10:51Z</time>
      </trkpt>
      <trkpt lat="48.65624" lon="2.46717">
        <ele>98.5</ele>
        <time>2017-11-15T13:11:00Z</time>
      </trkpt>
      <trkpt lat="48.65632" lon="2.46711">
        <ele>98.6</ele>
        <time>2017-11-15T13:11:06Z</time>
      </trkpt>
      <trkpt lat="48.65642" lon="2.46708">
        <ele>98.7</ele>
        <time>2017-11-15T13:11:15Z</time>
      </trkpt>
      <trkpt lat="48.6565" lon="2.46702">
        <ele>98.8</ele>
        <time>2017-11-15T13:11:26Z</time>
      </trkpt>
      <trkpt lat="48.6566" lon="2.46698">
        <ele>98.7</ele>
        <time>2017-11-15T13:11:33Z</time>
      </trkpt>
      <trkpt lat="48.6567" lon="2.46696">
        <ele>98.7</ele>
        <time>2017-11-15T13:11:41Z</time>
      </trkpt>
      <trkpt lat="48.6568" lon="2.46695">
        <ele>98.6</ele>
        <time>2017-11-15T13:11:49Z</time>
      </trkpt>
      <trkpt lat="48.65689" lon="2.46699">
        <ele>98.6</ele>
        <time>2017-11-15T13:11:57Z</time>
      </trkpt>
      <trkpt lat="48.65699" lon="2.467">
        <ele>98.6</ele>
        <time>2017-11-15T13:12:06Z</time>
      </trkpt>
      <trkpt lat="48.65708" lon="2.46701">
        <ele>98.4</ele>
        <time>2017-11-15T13:12:14Z</time>
      </trkpt>
      <trkpt lat="48.65717" lon="2.46701">
        <ele>98.5</ele>
        <time>2017-11-15T13:12:22Z</time>
      </trkpt>
      <trkpt lat="48.65727" lon="2.467">
        <ele>98.5</ele>
        <time>2017-11-15T13:12:32Z</time>
      </trkpt>
      <trkpt lat="48.65736" lon="2.46697">
        <ele>98.4</ele>
        <time>2017-11-15T13:12:38Z</time>
      </trkpt>
      <trkpt lat="48.65746" lon="2.46698">
        <ele>98.5</ele>
        <time>2017-11-15T13:12:47Z</time>
      </trkpt>
      <trkpt lat="48.65755" lon="2.46699">
        <ele>98.5</ele>
        <time>2017-11-15T13:12:56Z</time>
      </trkpt>
      <trkpt lat="48.65765" lon="2.46701">
        <ele>98.5</ele>
        <time>2017-11-15T13:13:05Z</time>
      </trkpt>
      <trkpt lat="48.65774" lon="2.46701">
        <ele>98.7</ele>
        <time>2017-11-15T13:13:18Z</time>
      </trkpt>
      <trkpt lat="48.65783" lon="2.46697">
        <ele>98.7</ele>
        <time>2017-11-15T13:13:30Z</time>
      </trkpt>
      <trkpt lat="48.65791" lon="2.46687">
        <ele>98.6</ele>
        <time>2017-11-15T13:13:39Z</time>
      </trkpt>
      <trkpt lat="48.65799" lon="2.46678">
        <ele>98.6</ele>
        <time>2017-11-15T13:13:49Z</time>
      </trkpt>
      <trkpt lat="48.65807" lon="2.46669">
        <ele>98.6</ele>
        <time>2017-11-15T13:13:59Z</time>
      </trkpt>
      <trkpt lat="48.65814" lon="2.46658">
        <ele>98.6</ele>
        <time>2017-11-15T13:14:09Z</time>
      </trkpt>
      <trkpt lat="48.6582" lon="2.46649">
        <ele>98.5</ele>
        <time>2017-11-15T13:14:18Z</time>
      </trkpt>
      <trkpt lat="48.6583" lon="2.46647">
        <ele>98.7</ele>
        <time>2017-11-15T13:14:28Z</time>
      </trkpt>
      <trkpt lat="48.65839" lon="2.46645">
        <ele>98.7</ele>
        <time>2017-11-15T13:14:39Z</time>
      </trkpt>
      <trkpt lat="48.65848" lon="2.46646">
        <ele>98.7</ele>
        <time>2017-11-15T13:14:47Z</time>
      </trkpt>
      <trkpt lat="48.65858" lon="2.46647">
        <ele>98.9</ele>
        <time>2017-11-15T13:14:56Z</time>
      </trkpt>
      <trkpt lat="48.65869" lon="2.46646">
        <ele>98.9</ele>
        <time>2017-11-15T13:15:04Z</time>
      </trkpt>
      <trkpt lat="48.65878" lon="2.46638">
        <ele>99</ele>
        <time>2017-11-15T13:15:12Z</time>
      </trkpt>
      <trkpt lat="48.65885" lon="2.46628">
        <ele>98.7</ele>
        <time>2017-11-15T13:15:21Z</time>
      </trkpt>
      <trkpt lat="48.65893" lon="2.46619">
        <ele>98.8</ele>
        <time>2017-11-15T13:15:29Z</time>
      </trkpt>
      <trkpt lat="48.65902" lon="2.46613">
        <ele>98.8</ele>
        <time>2017-11-15T13:15:36Z</time>
      </trkpt>
      <trkpt lat="48.65912" lon="2.46608">
        <ele>98.8</ele>
        <time>2017-11-15T13:15:44Z</time>
      </trkpt>
      <trkpt lat="48.65921" lon="2.46604">
        <ele>98.8</ele>
        <time>2017-11-15T13:15:56Z</time>
      </trkpt>
      <trkpt lat="48.6593" lon="2.46601">
        <ele>98.7</ele>
        <time>2017-11-15T13:16:09Z</time>
      </trkpt>
      <trkpt lat="48.6594" lon="2.46599">
        <ele>98.6</ele>
        <time>2017-11-15T13:16:17Z</time>
      </trkpt>
      <trkpt lat="48.65949" lon="2.46596">
        <ele>98.7</ele>
        <time>2017-11-15T13:16:25Z</time>
      </trkpt>
      <trkpt lat="48.65957" lon="2.46591">
        <ele>98.7</ele>
        <time>2017-11-15T13:16:38Z</time>
      </trkpt>
      <trkpt lat="48.65966" lon="2.46585">
        <ele>98.8</ele>
        <time>2017-11-15T13:16:45Z</time>
      </trkpt>
      <trkpt lat="48.65974" lon="2.46577">
        <ele>98.7</ele>
        <time>2017-11-15T13:16:54Z</time>
      </trkpt>
      <trkpt lat="48.65979" lon="2.46564">
        <ele>98.6</ele>
        <time>2017-11-15T13:17:02Z</time>
      </trkpt>
      <trkpt lat="48.65986" lon="2.46552">
        <ele>98.6</ele>
        <time>2017-11-15T13:17:11Z</time>
      </trkpt>
      <trkpt lat="48.65991" lon="2.46541">
        <ele>98.7</ele>
        <time>2017-11-15T13:17:19Z</time>
      </trkpt>
      <trkpt lat="48.65996" lon="2.46529">
        <ele>98.7</ele>
        <time>2017-11-15T13:17:28Z</time>
      </trkpt>
      <trkpt lat="48.66002" lon="2.46518">
        <ele>98.6</ele>
        <time>2017-11-15T13:17:36Z</time>
      </trkpt>
      <trkpt lat="48.66007" lon="2.46505">
        <ele>98.6</ele>
        <time>2017-11-15T13:17:45Z</time>
      </trkpt>
      <trkpt lat="48.66012" lon="2.46491">
        <ele>98.6</ele>
        <time>2017-11-15T13:17:53Z</time>
      </trkpt>
      <trkpt lat="48.6602" lon="2.46483">
        <ele>98.6</ele>
        <time>2017-11-15T13:18:00Z</time>
      </trkpt>
      <trkpt lat="48.66028" lon="2.46479">
        <ele>98.6</ele>
        <time>2017-11-15T13:18:08Z</time>
      </trkpt>
      <trkpt lat="48.66037" lon="2.46472">
        <ele>98.6</ele>
        <time>2017-11-15T13:18:20Z</time>
      </trkpt>
      <trkpt lat="48.66048" lon="2.46471">
        <ele>98.7</ele>
        <time>2017-11-15T13:18:28Z</time>
      </trkpt>
      <trkpt lat="48.66057" lon="2.46471">
        <ele>98.6</ele>
        <time>2017-11-15T13:18:37Z</time>
      </trkpt>
      <trkpt lat="48.66066" lon="2.46466">
        <ele>98.5</ele>
        <time>2017-11-15T13:18:44Z</time>
      </trkpt>
      <trkpt lat="48.66073" lon="2.46456">
        <ele>98.7</ele>
        <time>2017-11-15T13:18:52Z</time>
      </trkpt>
      <trkpt lat="48.66082" lon="2.4645">
        <ele>98.8</ele>
        <time>2017-11-15T13:18:59Z</time>
      </trkpt>
      <trkpt lat="48.6609" lon="2.46444">
        <ele>98.8</ele>
        <time>2017-11-15T13:19:05Z</time>
      </trkpt>
      <trkpt lat="48.66099" lon="2.46439">
        <ele>98.9</ele>
        <time>2017-11-15T13:19:15Z</time>
      </trkpt>
      <trkpt lat="48.66108" lon="2.46431">
        <ele>98.8</ele>
        <time>2017-11-15T13:19:23Z</time>
      </trkpt>
      <trkpt lat="48.66113" lon="2.4642">
        <ele>98.7</ele>
        <time>2017-11-15T13:19:31Z</time>
      </trkpt>
      <trkpt lat="48.66119" lon="2.46408">
        <ele>98.5</ele>
        <time>2017-11-15T13:19:42Z</time>
      </trkpt>
      <trkpt lat="48.66127" lon="2.46402">
        <ele>98.5</ele>
        <time>2017-11-15T13:19:49Z</time>
      </trkpt>
      <trkpt lat="48.66136" lon="2.46397">
        <ele>98.5</ele>
        <time>2017-11-15T13:19:56Z</time>
      </trkpt>
      <trkpt lat="48.66145" lon="2.46391">
        <ele>98.5</ele>
        <time>2017-11-15T13:20:04Z</time>
      </trkpt>
      <trkpt lat="48.66151" lon="2.4638">
        <ele>98.4</ele>
        <time>2017-11-15T13:20:12Z</time>
      </trkpt>
      <trkpt lat="48.66157" lon="2.4637">
        <ele>98.6</ele>
        <time>2017-11-15T13:20:19Z</time>
      </trkpt>
      <trkpt lat="48.66157" lon="2.46356">
        <ele>98.8</ele>
        <time>2017-11-15T13:20:28Z</time>
      </trkpt>
      <trkpt lat="48.66154" lon="2.46342">
        <ele>98.8</ele>
        <time>2017-11-15T13:20:35Z</time>
      </trkpt>
      <trkpt lat="48.66151" lon="2.46329">
        <ele>98.8</ele>
        <time>2017-11-15T13:20:41Z</time>
      </trkpt>
      <trkpt lat="48.66147" lon="2.46316">
        <ele>98.8</ele>
        <time>2017-11-15T13:20:49Z</time>
      </trkpt>
      <trkpt lat="48.66142" lon="2.46304">
        <ele>98.6</ele>
        <time>2017-11-15T13:21:01Z</time>
      </trkpt>
      <trkpt lat="48.6614" lon="2.4629">
        <ele>98.4</ele>
        <time>2017-11-15T13:21:14Z</time>
      </trkpt>
      <trkpt lat="48.66138" lon="2.46276">
        <ele>98.4</ele>
        <time>2017-11-15T13:21:24Z</time>
      </trkpt>
      <trkpt lat="48.66133" lon="2.46263">
        <ele>98.4</ele>
        <time>2017-11-15T13:21:33Z</time>
      </trkpt>
      <trkpt lat="48.66129" lon="2.46249">
        <ele>98.4</ele>
        <time>2017-11-15T13:21:44Z</time>
      </trkpt>
      <trkpt lat="48.66125" lon="2.46236">
        <ele>98.4</ele>
        <time>2017-11-15T13:21:53Z</time>
      </trkpt>
      <trkpt lat="48.66122" lon="2.46223">
        <ele>98.3</ele>
        <time>2017-11-15T13:22:00Z</time>
      </trkpt>
      <trkpt lat="48.6612" lon="2.4621">
        <ele>98.4</ele>
        <time>2017-11-15T13:22:09Z</time>
      </trkpt>
      <trkpt lat="48.66115" lon="2.46197">
        <ele>98.5</ele>
        <time>2017-11-15T13:22:19Z</time>
      </trkpt>
      <trkpt lat="48.66114" lon="2.46183">
        <ele>98.4</ele>
        <time>2017-11-15T13:22:28Z</time>
      </trkpt>
      <trkpt lat="48.6611" lon="2.4617">
        <ele>98</ele>
        <time>2017-11-15T13:22:36Z</time>
      </trkpt>
      <trkpt lat="48.66105" lon="2.46158">
        <ele>98</ele>
        <time>2017-11-15T13:22:44Z</time>
      </trkpt>
      <trkpt lat="48.66099" lon="2.46145">
        <ele>98</ele>
        <time>2017-11-15T13:22:52Z</time>
      </trkpt>
      <trkpt lat="48.66094" lon="2.46133">
        <ele>98.1</ele>
        <time>2017-11-15T13:23:01Z</time>
      </trkpt>
      <trkpt lat="48.66091" lon="2.4612">
        <ele>98.2</ele>
        <time>2017-11-15T13:23:09Z</time>
      </trkpt>
      <trkpt lat="48.6609" lon="2.46105">
        <ele>98.1</ele>
        <time>2017-11-15T13:23:17Z</time>
      </trkpt>
      <trkpt lat="48.66087" lon="2.46091">
        <ele>98.1</ele>
        <time>2017-11-15T13:23:25Z</time>
      </trkpt>
      <trkpt lat="48.66085" lon="2.46077">
        <ele>98</ele>
        <time>2017-11-15T13:23:37Z</time>
      </trkpt>
      <trkpt lat="48.66082" lon="2.46062">
        <ele>98</ele>
        <time>2017-11-15T13:23:47Z</time>
      </trkpt>
      <trkpt lat="48.66079" lon="2.46048">
        <ele>98</ele>
        <time>2017-11-15T13:23:56Z</time>
      </trkpt>
      <trkpt lat="48.66078" lon="2.46033">
        <ele>97.9</ele>
        <time>2017-11-15T13:24:06Z</time>
      </trkpt>
      <trkpt lat="48.66075" lon="2.46019">
        <ele>97.8</ele>
        <time>2017-11-15T13:24:19Z</time>
      </trkpt>
      <trkpt lat="48.6607" lon="2.46007">
        <ele>97.9</ele>
        <time>2017-11-15T13:24:27Z</time>
      </trkpt>
      <trkpt lat="48.66066" lon="2.45995">
        <ele>98</ele>
        <time>2017-11-15T13:24:36Z</time>
      </trkpt>
      <trkpt lat="48.66061" lon="2.45981">
        <ele>98</ele>
        <time>2017-11-15T13:24:45Z</time>
      </trkpt>
      <trkpt lat="48.66058" lon="2.45968">
        <ele>98.1</ele>
        <time>2017-11-15T13:24:54Z</time>
      </trkpt>
      <trkpt lat="48.66053" lon="2.45954">
        <ele>98.2</ele>
        <time>2017-11-15T13:25:04Z</time>
      </trkpt>
      <trkpt lat="48.66052" lon="2.45941">
        <ele>98.1</ele>
        <time>2017-11-15T13:25:13Z</time>
      </trkpt>
      <trkpt lat="48.66049" lon="2.45927">
        <ele>98</ele>
        <time>2017-11-15T13:25:23Z</time>
      </trkpt>
      <trkpt lat="48.66046" lon="2.45913">
        <ele>98.1</ele>
        <time>2017-11-15T13:25:34Z</time>
      </trkpt>
      <trkpt lat="48.66044" lon="2.45899">
        <ele>98.1</ele>
        <time>2017-11-15T13:25:45Z</time>
      </trkpt>
      <trkpt lat="48.66042" lon="2.45885">
        <ele>98.1</ele>
        <time>2017-11-15T13:25:56Z</time>
      </trkpt>
      <trkpt lat="48.66039" lon="2.45871">
        <ele>97.9</ele>
        <time>2017-11-15T13:26:06Z</time>
      </trkpt>
      <trkpt lat="48.66035" lon="2.45857">
        <ele>98</ele>
        <time>2017-11-15T13:26:14Z</time>
      </trkpt>
      <trkpt lat="48.66031" lon="2.45844">
        <ele>97.9</ele>
        <time>2017-11-15T13:26:25Z</time>
      </trkpt>
      <trkpt lat="48.66027" lon="2.45831">
        <ele>98</ele>
        <time>2017-11-15T13:26:36Z</time>
      </trkpt>
      <trkpt lat="48.66025" lon="2.45817">
        <ele>98</ele>
        <time>2017-11-15T13:26:49Z</time>
      </trkpt>
      <trkpt lat="48.66024" lon="2.45803">
        <ele>98</ele>
        <time>2017-11-15T13:26:58Z</time>
      </trkpt>
      <trkpt lat="48.66021" lon="2.45789">
        <ele>98</ele>
        <time>2017-11-15T13:27:05Z</time>
      </trkpt>
      <trkpt lat="48.66015" lon="2.45776">
        <ele>97.9</ele>
        <time>2017-11-15T13:27:13Z</time>
      </trkpt>
      <trkpt lat="48.66012" lon="2.45762">
        <ele>97.8</ele>
        <time>2017-11-15T13:27:25Z</time>
      </trkpt>
      <trkpt lat="48.66015" lon="2.45749">
        <ele>97.9</ele>
        <time>2017-11-15T13:29:17Z</time>
      </trkpt>
      <trkpt lat="48.66013" lon="2.45736">
        <ele>98.1</ele>
        <time>2017-11-15T13:31:32Z</time>
      </trkpt>
      <trkpt lat="48.66009" lon="2.45722">
        <ele>98.4</ele>
        <time>2017-11-15T13:32:16Z</time>
      </trkpt>
      <trkpt lat="48.66007" lon="2.45708">
        <ele>98.5</ele>
        <time>2017-11-15T13:32:30Z</time>
      </trkpt>
      <trkpt lat="48.66001" lon="2.45698">
        <ele>98.5</ele>
        <time>2017-11-15T13:32:39Z</time>
      </trkpt>
      <trkpt lat="48.65995" lon="2.45687">
        <ele>98.4</ele>
        <time>2017-11-15T13:32:48Z</time>
      </trkpt>
      <trkpt lat="48.65991" lon="2.45674">
        <ele>98.5</ele>
        <time>2017-11-15T13:32:57Z</time>
      </trkpt>
      <trkpt lat="48.65989" lon="2.4566">
        <ele>98.4</ele>
        <time>2017-11-15T13:33:06Z</time>
      </trkpt>
      <trkpt lat="48.65986" lon="2.45647">
        <ele>98.5</ele>
        <time>2017-11-15T13:33:12Z</time>
      </trkpt>
      <trkpt lat="48.65983" lon="2.45631">
        <ele>98.6</ele>
        <time>2017-11-15T13:33:18Z</time>
      </trkpt>
      <trkpt lat="48.65975" lon="2.45625">
        <ele>98.6</ele>
        <time>2017-11-15T13:33:25Z</time>
      </trkpt>
      <trkpt lat="48.65985" lon="2.45626">
        <ele>98.7</ele>
        <time>2017-11-15T13:33:39Z</time>
      </trkpt>
      <trkpt lat="48.65995" lon="2.45624">
        <ele>98.7</ele>
        <time>2017-11-15T13:33:51Z</time>
      </trkpt>
      <trkpt lat="48.66004" lon="2.45623">
        <ele>98.8</ele>
        <time>2017-11-15T13:34:03Z</time>
      </trkpt>
      <trkpt lat="48.66014" lon="2.45618">
        <ele>99</ele>
        <time>2017-11-15T13:34:14Z</time>
      </trkpt>
      <trkpt lat="48.66022" lon="2.45614">
        <ele>99</ele>
        <time>2017-11-15T13:34:21Z</time>
      </trkpt>
      <trkpt lat="48.66031" lon="2.45609">
        <ele>99</ele>
        <time>2017-11-15T13:34:32Z</time>
      </trkpt>
      <trkpt lat="48.6604" lon="2.45606">
        <ele>98.9</ele>
        <time>2017-11-15T13:34:41Z</time>
      </trkpt>
      <trkpt lat="48.66051" lon="2.45606">
        <ele>99</ele>
        <time>2017-11-15T13:34:49Z</time>
      </trkpt>
      <trkpt lat="48.6606" lon="2.45604">
        <ele>99.1</ele>
        <time>2017-11-15T13:34:58Z</time>
      </trkpt>
      <trkpt lat="48.66069" lon="2.45601">
        <ele>99</ele>
        <time>2017-11-15T13:35:07Z</time>
      </trkpt>
      <trkpt lat="48.66078" lon="2.45596">
        <ele>99.1</ele>
        <time>2017-11-15T13:35:17Z</time>
      </trkpt>
      <trkpt lat="48.66087" lon="2.45592">
        <ele>99.2</ele>
        <time>2017-11-15T13:35:25Z</time>
      </trkpt>
      <trkpt lat="48.66097" lon="2.45591">
        <ele>99.1</ele>
        <time>2017-11-15T13:35:32Z</time>
      </trkpt>
      <trkpt lat="48.66106" lon="2.45589">
        <ele>99.1</ele>
        <time>2017-11-15T13:35:39Z</time>
      </trkpt>
      <trkpt lat="48.66115" lon="2.45587">
        <ele>99.1</ele>
        <time>2017-11-15T13:35:46Z</time>
      </trkpt>
      <trkpt lat="48.66125" lon="2.45587">
        <ele>99.1</ele>
        <time>2017-11-15T13:35:55Z</time>
      </trkpt>
      <trkpt lat="48.66134" lon="2.45581">
        <ele>99.1</ele>
        <time>2017-11-15T13:36:05Z</time>
      </trkpt>
      <trkpt lat="48.66144" lon="2.45578">
        <ele>99</ele>
        <time>2017-11-15T13:36:13Z</time>
      </trkpt>
      <trkpt lat="48.66153" lon="2.45573">
        <ele>99</ele>
        <time>2017-11-15T13:36:20Z</time>
      </trkpt>
      <trkpt lat="48.66162" lon="2.4557">
        <ele>99.2</ele>
        <time>2017-11-15T13:36:29Z</time>
      </trkpt>
      <trkpt lat="48.66172" lon="2.45564">
        <ele>99.3</ele>
        <time>2017-11-15T13:36:38Z</time>
      </trkpt>
      <trkpt lat="48.66182" lon="2.45566">
        <ele>99.1</ele>
        <time>2017-11-15T13:36:47Z</time>
      </trkpt>
      <trkpt lat="48.66191" lon="2.45565">
        <ele>98.9</ele>
        <time>2017-11-15T13:36:58Z</time>
      </trkpt>
      <trkpt lat="48.662" lon="2.45559">
        <ele>99.1</ele>
        <time>2017-11-15T13:37:06Z</time>
      </trkpt>
      <trkpt lat="48.66209" lon="2.45556">
        <ele>99.2</ele>
        <time>2017-11-15T13:37:14Z</time>
      </trkpt>
      <trkpt lat="48.66219" lon="2.45554">
        <ele>99.2</ele>
        <time>2017-11-15T13:37:24Z</time>
      </trkpt>
      <trkpt lat="48.66228" lon="2.45552">
        <ele>99.2</ele>
        <time>2017-11-15T13:37:32Z</time>
      </trkpt>
      <trkpt lat="48.66237" lon="2.45546">
        <ele>99.3</ele>
        <time>2017-11-15T13:37:40Z</time>
      </trkpt>
      <trkpt lat="48.66246" lon="2.45544">
        <ele>99.4</ele>
        <time>2017-11-15T13:37:49Z</time>
      </trkpt>
      <trkpt lat="48.66255" lon="2.45542">
        <ele>99.4</ele>
        <time>2017-11-15T13:37:57Z</time>
      </trkpt>
      <trkpt lat="48.66264" lon="2.45538">
        <ele>99.2</ele>
        <time>2017-11-15T13:38:06Z</time>
      </trkpt>
      <trkpt lat="48.66273" lon="2.45535">
        <ele>99.4</ele>
        <time>2017-11-15T13:38:16Z</time>
      </trkpt>
      <trkpt lat="48.66282" lon="2.45532">
        <ele>99.4</ele>
        <time>2017-11-15T13:38:24Z</time>
      </trkpt>
      <trkpt lat="48.66292" lon="2.4553">
        <ele>99.4</ele>
        <time>2017-11-15T13:38:31Z</time>
      </trkpt>
      <trkpt lat="48.66301" lon="2.45527">
        <ele>99.4</ele>
        <time>2017-11-15T13:38:39Z</time>
      </trkpt>
      <trkpt lat="48.66311" lon="2.45527">
        <ele>99.3</ele>
        <time>2017-11-15T13:38:45Z</time>
      </trkpt>
      <trkpt lat="48.6632" lon="2.45522">
        <ele>99.5</ele>
        <time>2017-11-15T13:38:53Z</time>
      </trkpt>
      <trkpt lat="48.66329" lon="2.45519">
        <ele>99.4</ele>
        <time>2017-11-15T13:39:00Z</time>
      </trkpt>
      <trkpt lat="48.66339" lon="2.4552">
        <ele>99.3</ele>
        <time>2017-11-15T13:39:05Z</time>
      </trkpt>
      <trkpt lat="48.66348" lon="2.45516">
        <ele>99.5</ele>
        <time>2017-11-15T13:39:13Z</time>
      </trkpt>
      <trkpt lat="48.66357" lon="2.45515">
        <ele>99.6</ele>
        <time>2017-11-15T13:39:21Z</time>
      </trkpt>
      <trkpt lat="48.66366" lon="2.45512">
        <ele>99.6</ele>
        <time>2017-11-15T13:39:30Z</time>
      </trkpt>
      <trkpt lat="48.66375" lon="2.45508">
        <ele>99.8</ele>
        <time>2017-11-15T13:39:37Z</time>
      </trkpt>
      <trkpt lat="48.66384" lon="2.45508">
        <ele>99.9</ele>
        <time>2017-11-15T13:39:46Z</time>
      </trkpt>
      <trkpt lat="48.66391" lon="2.45517">
        <ele>99.9</ele>
        <time>2017-11-15T13:39:56Z</time>
      </trkpt>
      <trkpt lat="48.66395" lon="2.4553">
        <ele>100</ele>
        <time>2017-11-15T13:40:06Z</time>
      </trkpt>
      <trkpt lat="48.66397" lon="2.45544">
        <ele>100</ele>
        <time>2017-11-15T13:40:18Z</time>
      </trkpt>
      <trkpt lat="48.664" lon="2.45558">
        <ele>100</ele>
        <time>2017-11-15T13:40:28Z</time>
      </trkpt>
      <trkpt lat="48.66403" lon="2.45573">
        <ele>100</ele>
        <time>2017-11-15T13:40:36Z</time>
      </trkpt>
      <trkpt lat="48.66405" lon="2.45588">
        <ele>100.2</ele>
        <time>2017-11-15T13:40:46Z</time>
      </trkpt>
      <trkpt lat="48.66408" lon="2.45602">
        <ele>100.1</ele>
        <time>2017-11-15T13:40:55Z</time>
      </trkpt>
      <trkpt lat="48.66412" lon="2.45616">
        <ele>100</ele>
        <time>2017-11-15T13:41:04Z</time>
      </trkpt>
      <trkpt lat="48.66416" lon="2.45631">
        <ele>100.1</ele>
        <time>2017-11-15T13:41:14Z</time>
      </trkpt>
      <trkpt lat="48.66421" lon="2.45644">
        <ele>100</ele>
        <time>2017-11-15T13:41:22Z</time>
      </trkpt>
      <trkpt lat="48.66426" lon="2.45658">
        <ele>99.9</ele>
        <time>2017-11-15T13:41:31Z</time>
      </trkpt>
      <trkpt lat="48.66431" lon="2.45669">
        <ele>99.9</ele>
        <time>2017-11-15T13:41:38Z</time>
      </trkpt>
      <trkpt lat="48.66433" lon="2.45683">
        <ele>99.9</ele>
        <time>2017-11-15T13:41:46Z</time>
      </trkpt>
      <trkpt lat="48.66432" lon="2.45698">
        <ele>100.2</ele>
        <time>2017-11-15T13:41:56Z</time>
      </trkpt>
      <trkpt lat="48.66435" lon="2.45713">
        <ele>100.2</ele>
        <time>2017-11-15T13:42:04Z</time>
      </trkpt>
      <trkpt lat="48.66439" lon="2.45726">
        <ele>100.1</ele>
        <time>2017-11-15T13:42:12Z</time>
      </trkpt>
      <trkpt lat="48.66443" lon="2.45741">
        <ele>100.1</ele>
        <time>2017-11-15T13:42:21Z</time>
      </trkpt>
      <trkpt lat="48.66446" lon="2.45754">
        <ele>100</ele>
        <time>2017-11-15T13:42:29Z</time>
      </trkpt>
      <trkpt lat="48.6645" lon="2.45768">
        <ele>100</ele>
        <time>2017-11-15T13:42:37Z</time>
      </trkpt>
      <trkpt lat="48.66452" lon="2.45781">
        <ele>100</ele>
        <time>2017-11-15T13:42:45Z</time>
      </trkpt>
      <trkpt lat="48.66457" lon="2.45794">
        <ele>100</ele>
        <time>2017-11-15T13:42:52Z</time>
      </trkpt>
      <trkpt lat="48.66462" lon="2.45807">
        <ele>99.8</ele>
        <time>2017-11-15T13:43:00Z</time>
      </trkpt>
      <trkpt lat="48.66466" lon="2.4582">
        <ele>99.8</ele>
        <time>2017-11-15T13:43:09Z</time>
      </trkpt>
      <trkpt lat="48.66469" lon="2.45835">
        <ele>100</ele>
        <time>2017-11-15T13:43:20Z</time>
      </trkpt>
      <trkpt lat="48.66472" lon="2.45848">
        <ele>100</ele>
        <time>2017-11-15T13:43:28Z</time>
      </trkpt>
      <trkpt lat="48.66474" lon="2.45862">
        <ele>100.1</ele>
        <time>2017-11-15T13:43:37Z</time>
      </trkpt>
      <trkpt lat="48.66479" lon="2.45875">
        <ele>100.2</ele>
        <time>2017-11-15T13:43:47Z</time>
      </trkpt>
      <trkpt lat="48.66482" lon="2.45888">
        <ele>100.3</ele>
        <time>2017-11-15T13:43:56Z</time>
      </trkpt>
      <trkpt lat="48.66485" lon="2.45902">
        <ele>100.3</ele>
        <time>2017-11-15T13:44:05Z</time>
      </trkpt>
      <trkpt lat="48.66486" lon="2.45916">
        <ele>100.5</ele>
        <time>2017-11-15T13:44:19Z</time>
      </trkpt>
      <trkpt lat="48.66477" lon="2.45917">
        <ele>100.4</ele>
        <time>2017-11-15T13:44:39Z</time>
      </trkpt>
      <trkpt lat="48.66467" lon="2.45918">
        <ele>100.5</ele>
        <time>2017-11-15T13:45:02Z</time>
      </trkpt>
      <trkpt lat="48.66458" lon="2.45917">
        <ele>100.2</ele>
        <time>2017-11-15T13:45:17Z</time>
      </trkpt>
      <trkpt lat="48.66449" lon="2.4591">
        <ele>100.3</ele>
        <time>2017-11-15T13:45:39Z</time>
      </trkpt>
      <trkpt lat="48.66458" lon="2.45912">
        <ele>100.3</ele>
        <time>2017-11-15T13:47:44Z</time>
      </trkpt>
      <trkpt lat="48.66467" lon="2.45912">
        <ele>100.4</ele>
        <time>2017-11-15T13:47:59Z</time>
      </trkpt>
      <trkpt lat="48.66476" lon="2.45917">
        <ele>100.4</ele>
        <time>2017-11-15T13:48:13Z</time>
      </trkpt>
      <trkpt lat="48.66486" lon="2.45919">
        <ele>100.3</ele>
        <time>2017-11-15T13:48:27Z</time>
      </trkpt>
      <trkpt lat="48.66492" lon="2.45928">
        <ele>100.8</ele>
        <time>2017-11-15T13:48:39Z</time>
      </trkpt>
      <trkpt lat="48.66496" lon="2.45942">
        <ele>100.9</ele>
        <time>2017-11-15T13:48:51Z</time>
      </trkpt>
      <trkpt lat="48.66498" lon="2.45956">
        <ele>100.8</ele>
        <time>2017-11-15T13:49:00Z</time>
      </trkpt>
      <trkpt lat="48.665" lon="2.45971">
        <ele>100.7</ele>
        <time>2017-11-15T13:49:11Z</time>
      </trkpt>
      <trkpt lat="48.66504" lon="2.45984">
        <ele>100.8</ele>
        <time>2017-11-15T13:49:21Z</time>
      </trkpt>
      <trkpt lat="48.66507" lon="2.45998">
        <ele>101</ele>
        <time>2017-11-15T13:49:31Z</time>
      </trkpt>
      <trkpt lat="48.66511" lon="2.46011">
        <ele>101</ele>
        <time>2017-11-15T13:49:41Z</time>
      </trkpt>
      <trkpt lat="48.66506" lon="2.46024">
        <ele>101.4</ele>
        <time>2017-11-15T13:52:59Z</time>
      </trkpt>
      <trkpt lat="48.66516" lon="2.46024">
        <ele>101.3</ele>
        <time>2017-11-15T13:54:04Z</time>
      </trkpt>
      <trkpt lat="48.66527" lon="2.46031">
        <ele>101.4</ele>
        <time>2017-11-15T13:54:34Z</time>
      </trkpt>
      <trkpt lat="48.66518" lon="2.46025">
        <ele>101.5</ele>
        <time>2017-11-15T13:55:46Z</time>
      </trkpt>
      <trkpt lat="48.6651" lon="2.46032">
        <ele>101</ele>
        <time>2017-11-15T13:57:23Z</time>
      </trkpt>
      <trkpt lat="48.6651" lon="2.46046">
        <ele>101.1</ele>
        <time>2017-11-15T13:57:43Z</time>
      </trkpt>
      <trkpt lat="48.66514" lon="2.4606">
        <ele>101.1</ele>
        <time>2017-11-15T13:57:55Z</time>
      </trkpt>
      <trkpt lat="48.66519" lon="2.46074">
        <ele>101.1</ele>
        <time>2017-11-15T13:58:05Z</time>
      </trkpt>
      <trkpt lat="48.66524" lon="2.46086">
        <ele>101.3</ele>
        <time>2017-11-15T13:58:15Z</time>
      </trkpt>
      <trkpt lat="48.66528" lon="2.461">
        <ele>101.2</ele>
        <time>2017-11-15T13:58:25Z</time>
      </trkpt>
      <trkpt lat="48.66533" lon="2.46111">
        <ele>101.3</ele>
        <time>2017-11-15T13:58:46Z</time>
      </trkpt>
      <trkpt lat="48.66536" lon="2.46124">
        <ele>101.2</ele>
        <time>2017-11-15T13:58:57Z</time>
      </trkpt>
      <trkpt lat="48.6654" lon="2.46137">
        <ele>101.2</ele>
        <time>2017-11-15T13:59:07Z</time>
      </trkpt>
      <trkpt lat="48.66548" lon="2.46145">
        <ele>101.3</ele>
        <time>2017-11-15T13:59:16Z</time>
      </trkpt>
      <trkpt lat="48.66557" lon="2.4614">
        <ele>101.2</ele>
        <time>2017-11-15T13:59:23Z</time>
      </trkpt>
      <trkpt lat="48.66566" lon="2.46135">
        <ele>101</ele>
        <time>2017-11-15T13:59:34Z</time>
      </trkpt>
      <trkpt lat="48.66574" lon="2.46128">
        <ele>100.9</ele>
        <time>2017-11-15T13:59:44Z</time>
      </trkpt>
      <trkpt lat="48.66581" lon="2.46119">
        <ele>100.8</ele>
        <time>2017-11-15T13:59:58Z</time>
      </trkpt>
      <trkpt lat="48.6659" lon="2.46115">
        <ele>100.9</ele>
        <time>2017-11-15T14:00:09Z</time>
      </trkpt>
      <trkpt lat="48.66599" lon="2.46109">
        <ele>100.9</ele>
        <time>2017-11-15T14:00:18Z</time>
      </trkpt>
      <trkpt lat="48.66607" lon="2.46101">
        <ele>100.9</ele>
        <time>2017-11-15T14:00:27Z</time>
      </trkpt>
      <trkpt lat="48.66615" lon="2.46093">
        <ele>101</ele>
        <time>2017-11-15T14:00:38Z</time>
      </trkpt>
      <trkpt lat="48.6662" lon="2.46081">
        <ele>101</ele>
        <time>2017-11-15T14:00:50Z</time>
      </trkpt>
      <trkpt lat="48.66628" lon="2.46076">
        <ele>101</ele>
        <time>2017-11-15T14:00:58Z</time>
      </trkpt>
      <trkpt lat="48.66636" lon="2.46068">
        <ele>101</ele>
        <time>2017-11-15T14:01:08Z</time>
      </trkpt>
      <trkpt lat="48.66644" lon="2.4606">
        <ele>100.9</ele>
        <time>2017-11-15T14:01:18Z</time>
      </trkpt>
      <trkpt lat="48.66653" lon="2.46057">
        <ele>100.9</ele>
        <time>2017-11-15T14:01:29Z</time>
      </trkpt>
      <trkpt lat="48.66662" lon="2.46054">
        <ele>100.9</ele>
        <time>2017-11-15T14:01:38Z</time>
      </trkpt>
      <trkpt lat="48.66671" lon="2.46051">
        <ele>100.8</ele>
        <time>2017-11-15T14:01:47Z</time>
      </trkpt>
      <trkpt lat="48.6668" lon="2.46046">
        <ele>101</ele>
        <time>2017-11-15T14:01:57Z</time>
      </trkpt>
      <trkpt lat="48.66689" lon="2.46037">
        <ele>101.1</ele>
        <time>2017-11-15T14:02:06Z</time>
      </trkpt>
      <trkpt lat="48.66695" lon="2.46026">
        <ele>101.2</ele>
        <time>2017-11-15T14:02:15Z</time>
      </trkpt>
      <trkpt lat="48.66704" lon="2.46019">
        <ele>101.2</ele>
        <time>2017-11-15T14:02:24Z</time>
      </trkpt>
      <trkpt lat="48.66713" lon="2.46013">
        <ele>101.2</ele>
        <time>2017-11-15T14:02:35Z</time>
      </trkpt>
      <trkpt lat="48.6672" lon="2.46003">
        <ele>101</ele>
        <time>2017-11-15T14:02:46Z</time>
      </trkpt>
      <trkpt lat="48.66729" lon="2.45994">
        <ele>101.1</ele>
        <time>2017-11-15T14:02:56Z</time>
      </trkpt>
      <trkpt lat="48.66738" lon="2.45985">
        <ele>101.3</ele>
        <time>2017-11-15T14:03:05Z</time>
      </trkpt>
      <trkpt lat="48.66746" lon="2.4598">
        <ele>101.3</ele>
        <time>2017-11-15T14:03:14Z</time>
      </trkpt>
      <trkpt lat="48.66755" lon="2.45974">
        <ele>101.3</ele>
        <time>2017-11-15T14:03:21Z</time>
      </trkpt>
      <trkpt lat="48.66761" lon="2.45963">
        <ele>101.3</ele>
        <time>2017-11-15T14:03:29Z</time>
      </trkpt>
      <trkpt lat="48.6677" lon="2.45958">
        <ele>101.2</ele>
        <time>2017-11-15T14:03:38Z</time>
      </trkpt>
      <trkpt lat="48.66778" lon="2.45951">
        <ele>101.2</ele>
        <time>2017-11-15T14:03:46Z</time>
      </trkpt>
      <trkpt lat="48.66786" lon="2.45941">
        <ele>101.2</ele>
        <time>2017-11-15T14:03:56Z</time>
      </trkpt>
      <trkpt lat="48.66794" lon="2.45933">
        <ele>101.3</ele>
        <time>2017-11-15T14:04:05Z</time>
      </trkpt>
      <trkpt lat="48.66801" lon="2.45925">
        <ele>101.4</ele>
        <time>2017-11-15T14:04:14Z</time>
      </trkpt>
      <trkpt lat="48.6681" lon="2.45918">
        <ele>101.3</ele>
        <time>2017-11-15T14:04:22Z</time>
      </trkpt>
      <trkpt lat="48.66819" lon="2.45912">
        <ele>101.3</ele>
        <time>2017-11-15T14:04:29Z</time>
      </trkpt>
      <trkpt lat="48.66825" lon="2.45902">
        <ele>101.5</ele>
        <time>2017-11-15T14:04:39Z</time>
      </trkpt>
      <trkpt lat="48.66834" lon="2.45899">
        <ele>101.7</ele>
        <time>2017-11-15T14:04:46Z</time>
      </trkpt>
      <trkpt lat="48.66844" lon="2.45901">
        <ele>101.8</ele>
        <time>2017-11-15T14:04:53Z</time>
      </trkpt>
      <trkpt lat="48.66846" lon="2.45915">
        <ele>102</ele>
        <time>2017-11-15T14:05:08Z</time>
      </trkpt>
      <trkpt lat="48.66844" lon="2.45929">
        <ele>101.5</ele>
        <time>2017-11-15T14:05:20Z</time>
      </trkpt>
      <trkpt lat="48.66842" lon="2.45943">
        <ele>101.6</ele>
        <time>2017-11-15T14:05:28Z</time>
      </trkpt>
      <trkpt lat="48.66841" lon="2.45957">
        <ele>101.6</ele>
        <time>2017-11-15T14:05:35Z</time>
      </trkpt>
      <trkpt lat="48.66838" lon="2.45972">
        <ele>101.6</ele>
        <time>2017-11-15T14:05:43Z</time>
      </trkpt>
      <trkpt lat="48.66837" lon="2.45987">
        <ele>101.8</ele>
        <time>2017-11-15T14:05:51Z</time>
      </trkpt>
      <trkpt lat="48.66839" lon="2.46">
        <ele>101.8</ele>
        <time>2017-11-15T14:05:58Z</time>
      </trkpt>
      <trkpt lat="48.66835" lon="2.46014">
        <ele>101.7</ele>
        <time>2017-11-15T14:06:07Z</time>
      </trkpt>
      <trkpt lat="48.66835" lon="2.46029">
        <ele>101.6</ele>
        <time>2017-11-15T14:06:16Z</time>
      </trkpt>
      <trkpt lat="48.66833" lon="2.46042">
        <ele>101.4</ele>
        <time>2017-11-15T14:06:24Z</time>
      </trkpt>
      <trkpt lat="48.66831" lon="2.46056">
        <ele>101.4</ele>
        <time>2017-11-15T14:06:32Z</time>
      </trkpt>
      <trkpt lat="48.66832" lon="2.4607">
        <ele>101.3</ele>
        <time>2017-11-15T14:06:39Z</time>
      </trkpt>
      <trkpt lat="48.66837" lon="2.46083">
        <ele>101.1</ele>
        <time>2017-11-15T14:06:47Z</time>
      </trkpt>
      <trkpt lat="48.6684" lon="2.46096">
        <ele>100.8</ele>
        <time>2017-11-15T14:06:55Z</time>
      </trkpt>
      <trkpt lat="48.66843" lon="2.46109">
        <ele>100.7</ele>
        <time>2017-11-15T14:07:05Z</time>
      </trkpt>
      <trkpt lat="48.66846" lon="2.46123">
        <ele>100.5</ele>
        <time>2017-11-15T14:07:16Z</time>
      </trkpt>
      <trkpt lat="48.66848" lon="2.46137">
        <ele>100.5</ele>
        <time>2017-11-15T14:07:26Z</time>
      </trkpt>
      <trkpt lat="48.66852" lon="2.4615">
        <ele>100.5</ele>
        <time>2017-11-15T14:07:34Z</time>
      </trkpt>
      <trkpt lat="48.66856" lon="2.46164">
        <ele>100.4</ele>
        <time>2017-11-15T14:07:42Z</time>
      </trkpt>
      <trkpt lat="48.6686" lon="2.46177">
        <ele>100.1</ele>
        <time>2017-11-15T14:07:49Z</time>
      </trkpt>
      <trkpt lat="48.66865" lon="2.46188">
        <ele>100.2</ele>
        <time>2017-11-15T14:07:56Z</time>
      </trkpt>
      <trkpt lat="48.66871" lon="2.462">
        <ele>100.1</ele>
        <time>2017-11-15T14:08:05Z</time>
      </trkpt>
      <trkpt lat="48.66876" lon="2.46214">
        <ele>100.3</ele>
        <time>2017-11-15T14:08:15Z</time>
      </trkpt>
      <trkpt lat="48.6688" lon="2.46226">
        <ele>100.4</ele>
        <time>2017-11-15T14:08:22Z</time>
      </trkpt>
      <trkpt lat="48.66886" lon="2.46238">
        <ele>100.5</ele>
        <time>2017-11-15T14:08:32Z</time>
      </trkpt>
      <trkpt lat="48.6689" lon="2.4625">
        <ele>100.4</ele>
        <time>2017-11-15T14:08:38Z</time>
      </trkpt>
      <trkpt lat="48.66893" lon="2.46263">
        <ele>100.6</ele>
        <time>2017-11-15T14:08:46Z</time>
      </trkpt>
      <trkpt lat="48.66899" lon="2.46276">
        <ele>100.5</ele>
        <time>2017-11-15T14:08:54Z</time>
      </trkpt>
      <trkpt lat="48.66905" lon="2.46289">
        <ele>100.5</ele>
        <time>2017-11-15T14:09:03Z</time>
      </trkpt>
      <trkpt lat="48.66906" lon="2.46304">
        <ele>100.6</ele>
        <time>2017-11-15T14:09:12Z</time>
      </trkpt>
      <trkpt lat="48.66911" lon="2.46318">
        <ele>100.6</ele>
        <time>2017-11-15T14:09:25Z</time>
      </trkpt>
      <trkpt lat="48.66907" lon="2.46333">
        <ele>100.6</ele>
        <time>2017-11-15T14:09:35Z</time>
      </trkpt>
      <trkpt lat="48.66899" lon="2.46341">
        <ele>100.7</ele>
        <time>2017-11-15T14:09:49Z</time>
      </trkpt>
      <trkpt lat="48.66903" lon="2.46353">
        <ele>100.7</ele>
        <time>2017-11-15T14:10:00Z</time>
      </trkpt>
      <trkpt lat="48.6691" lon="2.46364">
        <ele>100.6</ele>
        <time>2017-11-15T14:10:08Z</time>
      </trkpt>
      <trkpt lat="48.66916" lon="2.46376">
        <ele>100.5</ele>
        <time>2017-11-15T14:10:17Z</time>
      </trkpt>
      <trkpt lat="48.66919" lon="2.4639">
        <ele>100.5</ele>
        <time>2017-11-15T14:10:26Z</time>
      </trkpt>
      <trkpt lat="48.66922" lon="2.46403">
        <ele>100.5</ele>
        <time>2017-11-15T14:10:34Z</time>
      </trkpt>
      <trkpt lat="48.66925" lon="2.46416">
        <ele>100.5</ele>
        <time>2017-11-15T14:10:42Z</time>
      </trkpt>
      <trkpt lat="48.66928" lon="2.46428">
        <ele>100.4</ele>
        <time>2017-11-15T14:10:51Z</time>
      </trkpt>
      <trkpt lat="48.66934" lon="2.4644">
        <ele>100.4</ele>
        <time>2017-11-15T14:10:58Z</time>
      </trkpt>
      <trkpt lat="48.66938" lon="2.46453">
        <ele>100.2</ele>
        <time>2017-11-15T14:11:05Z</time>
      </trkpt>
      <trkpt lat="48.66942" lon="2.46468">
        <ele>100.1</ele>
        <time>2017-11-15T14:11:18Z</time>
      </trkpt>
      <trkpt lat="48.66946" lon="2.46481">
        <ele>100</ele>
        <time>2017-11-15T14:11:25Z</time>
      </trkpt>
      <trkpt lat="48.66949" lon="2.46495">
        <ele>99.9</ele>
        <time>2017-11-15T14:11:33Z</time>
      </trkpt>
      <trkpt lat="48.66954" lon="2.46507">
        <ele>100</ele>
        <time>2017-11-15T14:11:41Z</time>
      </trkpt>
      <trkpt lat="48.66954" lon="2.46521">
        <ele>99.8</ele>
        <time>2017-11-15T14:11:50Z</time>
      </trkpt>
      <trkpt lat="48.66957" lon="2.46534">
        <ele>99.7</ele>
        <time>2017-11-15T14:11:56Z</time>
      </trkpt>
      <trkpt lat="48.6696" lon="2.46547">
        <ele>99.7</ele>
        <time>2017-11-15T14:12:02Z</time>
      </trkpt>
      <trkpt lat="48.66951" lon="2.46554">
        <ele>100</ele>
        <time>2017-11-15T14:12:18Z</time>
      </trkpt>
      <trkpt lat="48.66942" lon="2.46556">
        <ele>100</ele>
        <time>2017-11-15T14:12:31Z</time>
      </trkpt>
      <trkpt lat="48.66932" lon="2.46564">
        <ele>100.1</ele>
        <time>2017-11-15T14:12:38Z</time>
      </trkpt>
      <trkpt lat="48.66924" lon="2.46571">
        <ele>100.1</ele>
        <time>2017-11-15T14:12:45Z</time>
      </trkpt>
      <trkpt lat="48.66916" lon="2.46578">
        <ele>100.1</ele>
        <time>2017-11-15T14:12:52Z</time>
      </trkpt>
      <trkpt lat="48.66907" lon="2.46585">
        <ele>100</ele>
        <time>2017-11-15T14:13:00Z</time>
      </trkpt>
      <trkpt lat="48.66899" lon="2.46592">
        <ele>100.1</ele>
        <time>2017-11-15T14:13:09Z</time>
      </trkpt>
      <trkpt lat="48.66891" lon="2.46601">
        <ele>100</ele>
        <time>2017-11-15T14:13:17Z</time>
      </trkpt>
      <trkpt lat="48.66884" lon="2.46613">
        <ele>100.1</ele>
        <time>2017-11-15T14:13:27Z</time>
      </trkpt>
      <trkpt lat="48.66877" lon="2.46623">
        <ele>100</ele>
        <time>2017-11-15T14:13:35Z</time>
      </trkpt>
      <trkpt lat="48.66871" lon="2.46636">
        <ele>99.9</ele>
        <time>2017-11-15T14:13:44Z</time>
      </trkpt>
      <trkpt lat="48.66864" lon="2.46647">
        <ele>100.2</ele>
        <time>2017-11-15T14:13:54Z</time>
      </trkpt>
      <trkpt lat="48.66857" lon="2.46658">
        <ele>100</ele>
        <time>2017-11-15T14:14:03Z</time>
      </trkpt>
      <trkpt lat="48.66849" lon="2.46665">
        <ele>99.9</ele>
        <time>2017-11-15T14:14:08Z</time>
      </trkpt>
      <trkpt lat="48.66843" lon="2.46675">
        <ele>99.9</ele>
        <time>2017-11-15T14:14:18Z</time>
      </trkpt>
      <trkpt lat="48.66833" lon="2.46681">
        <ele>99.8</ele>
        <time>2017-11-15T14:14:24Z</time>
      </trkpt>
      <trkpt lat="48.66824" lon="2.46686">
        <ele>99.6</ele>
        <time>2017-11-15T14:14:31Z</time>
      </trkpt>
      <trkpt lat="48.66818" lon="2.46697">
        <ele>99.5</ele>
        <time>2017-11-15T14:14:36Z</time>
      </trkpt>
      <trkpt lat="48.66808" lon="2.46702">
        <ele>99.5</ele>
        <time>2017-11-15T14:14:46Z</time>
      </trkpt>
      <trkpt lat="48.66801" lon="2.46711">
        <ele>99.5</ele>
        <time>2017-11-15T14:14:54Z</time>
      </trkpt>
      <trkpt lat="48.668" lon="2.46724">
        <ele>99.4</ele>
        <time>2017-11-15T14:15:02Z</time>
      </trkpt>
      <trkpt lat="48.66799" lon="2.46739">
        <ele>99.4</ele>
        <time>2017-11-15T14:15:10Z</time>
      </trkpt>
      <trkpt lat="48.66801" lon="2.46753">
        <ele>99.5</ele>
        <time>2017-11-15T14:15:17Z</time>
      </trkpt>
      <trkpt lat="48.66797" lon="2.46767">
        <ele>99.6</ele>
        <time>2017-11-15T14:15:27Z</time>
      </trkpt>
      <trkpt lat="48.66798" lon="2.46782">
        <ele>99.8</ele>
        <time>2017-11-15T14:15:36Z</time>
      </trkpt>
      <trkpt lat="48.66802" lon="2.46797">
        <ele>99.9</ele>
        <time>2017-11-15T14:15:45Z</time>
      </trkpt>
      <trkpt lat="48.66801" lon="2.46811">
        <ele>99.8</ele>
        <time>2017-11-15T14:15:55Z</time>
      </trkpt>
      <trkpt lat="48.668" lon="2.46824">
        <ele>99.7</ele>
        <time>2017-11-15T14:16:04Z</time>
      </trkpt>
      <trkpt lat="48.668" lon="2.46839">
        <ele>99.6</ele>
        <time>2017-11-15T14:16:11Z</time>
      </trkpt>
      <trkpt lat="48.66798" lon="2.46852">
        <ele>99.7</ele>
        <time>2017-11-15T14:16:20Z</time>
      </trkpt>
      <trkpt lat="48.66797" lon="2.46867">
        <ele>99.7</ele>
        <time>2017-11-15T14:16:29Z</time>
      </trkpt>
      <trkpt lat="48.66795" lon="2.46881">
        <ele>99.7</ele>
        <time>2017-11-15T14:16:39Z</time>
      </trkpt>
      <trkpt lat="48.66791" lon="2.46894">
        <ele>99.7</ele>
        <time>2017-11-15T14:16:48Z</time>
      </trkpt>
      <trkpt lat="48.66795" lon="2.46907">
        <ele>99.8</ele>
        <time>2017-11-15T14:16:56Z</time>
      </trkpt>
      <trkpt lat="48.66796" lon="2.46921">
        <ele>99.8</ele>
        <time>2017-11-15T14:17:03Z</time>
      </trkpt>
      <trkpt lat="48.66793" lon="2.46934">
        <ele>99.7</ele>
        <time>2017-11-15T14:17:11Z</time>
      </trkpt>
      <trkpt lat="48.66791" lon="2.46949">
        <ele>99.7</ele>
        <time>2017-11-15T14:17:19Z</time>
      </trkpt>
      <trkpt lat="48.6679" lon="2.46963">
        <ele>99.7</ele>
        <time>2017-11-15T14:17:27Z</time>
      </trkpt>
      <trkpt lat="48.66789" lon="2.46977">
        <ele>99.8</ele>
        <time>2017-11-15T14:17:34Z</time>
      </trkpt>
      <trkpt lat="48.66789" lon="2.46991">
        <ele>99.7</ele>
        <time>2017-11-15T14:17:43Z</time>
      </trkpt>
      <trkpt lat="48.66792" lon="2.47004">
        <ele>99.6</ele>
        <time>2017-11-15T14:17:53Z</time>
      </trkpt>
      <trkpt lat="48.66793" lon="2.47019">
        <ele>99.5</ele>
        <time>2017-11-15T14:18:02Z</time>
      </trkpt>
      <trkpt lat="48.66792" lon="2.47033">
        <ele>99.5</ele>
        <time>2017-11-15T14:18:09Z</time>
      </trkpt>
      <trkpt lat="48.66788" lon="2.47047">
        <ele>99.5</ele>
        <time>2017-11-15T14:18:19Z</time>
      </trkpt>
      <trkpt lat="48.66787" lon="2.47061">
        <ele>99.6</ele>
        <time>2017-11-15T14:18:28Z</time>
      </trkpt>
      <trkpt lat="48.66783" lon="2.47074">
        <ele>99.5</ele>
        <time>2017-11-15T14:18:34Z</time>
      </trkpt>
      <trkpt lat="48.66783" lon="2.47089">
        <ele>99.4</ele>
        <time>2017-11-15T14:18:42Z</time>
      </trkpt>
      <trkpt lat="48.66784" lon="2.47105">
        <ele>99.3</ele>
        <time>2017-11-15T14:18:50Z</time>
      </trkpt>
      <trkpt lat="48.6678" lon="2.47118">
        <ele>99.2</ele>
        <time>2017-11-15T14:18:59Z</time>
      </trkpt>
      <trkpt lat="48.66779" lon="2.47132">
        <ele>99.2</ele>
        <time>2017-11-15T14:19:06Z</time>
      </trkpt>
      <trkpt lat="48.6678" lon="2.47146">
        <ele>99.3</ele>
        <time>2017-11-15T14:19:13Z</time>
      </trkpt>
      <trkpt lat="48.6678" lon="2.47161">
        <ele>99.3</ele>
        <time>2017-11-15T14:19:25Z</time>
      </trkpt>
      <trkpt lat="48.66779" lon="2.47176">
        <ele>99.2</ele>
        <time>2017-11-15T14:19:34Z</time>
      </trkpt>
      <trkpt lat="48.66778" lon="2.47192">
        <ele>99.3</ele>
        <time>2017-11-15T14:19:41Z</time>
      </trkpt>
      <trkpt lat="48.66777" lon="2.47206">
        <ele>99.5</ele>
        <time>2017-11-15T14:19:51Z</time>
      </trkpt>
      <trkpt lat="48.66775" lon="2.47221">
        <ele>99.4</ele>
        <time>2017-11-15T14:19:58Z</time>
      </trkpt>
      <trkpt lat="48.66777" lon="2.47236">
        <ele>99.3</ele>
        <time>2017-11-15T14:20:07Z</time>
      </trkpt>
      <trkpt lat="48.66776" lon="2.47251">
        <ele>99.4</ele>
        <time>2017-11-15T14:20:16Z</time>
      </trkpt>
      <trkpt lat="48.66777" lon="2.47265">
        <ele>99.3</ele>
        <time>2017-11-15T14:20:26Z</time>
      </trkpt>
      <trkpt lat="48.66776" lon="2.47279">
        <ele>99.3</ele>
        <time>2017-11-15T14:20:33Z</time>
      </trkpt>
      <trkpt lat="48.66773" lon="2.47295">
        <ele>99.3</ele>
        <time>2017-11-15T14:20:43Z</time>
      </trkpt>
      <trkpt lat="48.66771" lon="2.47309">
        <ele>99.4</ele>
        <time>2017-11-15T14:20:53Z</time>
      </trkpt>
      <trkpt lat="48.66771" lon="2.47323">
        <ele>99.5</ele>
        <time>2017-11-15T14:21:01Z</time>
      </trkpt>
      <trkpt lat="48.66771" lon="2.47337">
        <ele>99.5</ele>
        <time>2017-11-15T14:21:09Z</time>
      </trkpt>
      <trkpt lat="48.66773" lon="2.47351">
        <ele>99.5</ele>
        <time>2017-11-15T14:21:17Z</time>
      </trkpt>
      <trkpt lat="48.6677" lon="2.47365">
        <ele>99.5</ele>
        <time>2017-11-15T14:21:28Z</time>
      </trkpt>
      <trkpt lat="48.66768" lon="2.47381">
        <ele>99.8</ele>
        <time>2017-11-15T14:21:36Z</time>
      </trkpt>
      <trkpt lat="48.66767" lon="2.47395">
        <ele>99.8</ele>
        <time>2017-11-15T14:21:45Z</time>
      </trkpt>
      <trkpt lat="48.66768" lon="2.47409">
        <ele>99.8</ele>
        <time>2017-11-15T14:21:52Z</time>
      </trkpt>
      <trkpt lat="48.66765" lon="2.47425">
        <ele>100</ele>
        <time>2017-11-15T14:22:01Z</time>
      </trkpt>
      <trkpt lat="48.66764" lon="2.47439">
        <ele>99.9</ele>
        <time>2017-11-15T14:22:11Z</time>
      </trkpt>
      <trkpt lat="48.66762" lon="2.47454">
        <ele>99.9</ele>
        <time>2017-11-15T14:22:19Z</time>
      </trkpt>
      <trkpt lat="48.66762" lon="2.47468">
        <ele>100</ele>
        <time>2017-11-15T14:22:26Z</time>
      </trkpt>
      <trkpt lat="48.6676" lon="2.47482">
        <ele>99.9</ele>
        <time>2017-11-15T14:22:33Z</time>
      </trkpt>
      <trkpt lat="48.66762" lon="2.47496">
        <ele>99.9</ele>
        <time>2017-11-15T14:22:43Z</time>
      </trkpt>
      <trkpt lat="48.66762" lon="2.47512">
        <ele>99.9</ele>
        <time>2017-11-15T14:22:53Z</time>
      </trkpt>
      <trkpt lat="48.66762" lon="2.47527">
        <ele>99.8</ele>
        <time>2017-11-15T14:23:02Z</time>
      </trkpt>
      <trkpt lat="48.6676" lon="2.47542">
        <ele>99.8</ele>
        <time>2017-11-15T14:23:09Z</time>
      </trkpt>
      <trkpt lat="48.6676" lon="2.47556">
        <ele>99.8</ele>
        <time>2017-11-15T14:23:18Z</time>
      </trkpt>
      <trkpt lat="48.6676" lon="2.47572">
        <ele>99.9</ele>
        <time>2017-11-15T14:23:26Z</time>
      </trkpt>
      <trkpt lat="48.6676" lon="2.47586">
        <ele>100</ele>
        <time>2017-11-15T14:23:34Z</time>
      </trkpt>
      <trkpt lat="48.66759" lon="2.47602">
        <ele>99.9</ele>
        <time>2017-11-15T14:23:43Z</time>
      </trkpt>
      <trkpt lat="48.66757" lon="2.47616">
        <ele>99.9</ele>
        <time>2017-11-15T14:23:51Z</time>
      </trkpt>
      <trkpt lat="48.66757" lon="2.4763">
        <ele>99.9</ele>
        <time>2017-11-15T14:23:59Z</time>
      </trkpt>
      <trkpt lat="48.66756" lon="2.47646">
        <ele>99.9</ele>
        <time>2017-11-15T14:24:07Z</time>
      </trkpt>
      <trkpt lat="48.66756" lon="2.4766">
        <ele>100.1</ele>
        <time>2017-11-15T14:24:15Z</time>
      </trkpt>
      <trkpt lat="48.66759" lon="2.47675">
        <ele>100.2</ele>
        <time>2017-11-15T14:24:23Z</time>
      </trkpt>
      <trkpt lat="48.66758" lon="2.47689">
        <ele>100.3</ele>
        <time>2017-11-15T14:24:36Z</time>
      </trkpt>
      <trkpt lat="48.6675" lon="2.47698">
        <ele>100.8</ele>
        <time>2017-11-15T14:26:15Z</time>
      </trkpt>
      <trkpt lat="48.66744" lon="2.47708">
        <ele>101.2</ele>
        <time>2017-11-15T14:29:01Z</time>
      </trkpt>
      <trkpt lat="48.66735" lon="2.47714">
        <ele>101</ele>
        <time>2017-11-15T14:29:14Z</time>
      </trkpt>
      <trkpt lat="48.66726" lon="2.47718">
        <ele>101</ele>
        <time>2017-11-15T14:29:25Z</time>
      </trkpt>
      <trkpt lat="48.66718" lon="2.47725">
        <ele>100.9</ele>
        <time>2017-11-15T14:29:33Z</time>
      </trkpt>
      <trkpt lat="48.66709" lon="2.47732">
        <ele>100.9</ele>
        <time>2017-11-15T14:29:42Z</time>
      </trkpt>
      <trkpt lat="48.66701" lon="2.47738">
        <ele>100.8</ele>
        <time>2017-11-15T14:29:50Z</time>
      </trkpt>
      <trkpt lat="48.66694" lon="2.47747">
        <ele>100.8</ele>
        <time>2017-11-15T14:29:58Z</time>
      </trkpt>
      <trkpt lat="48.66686" lon="2.47754">
        <ele>100.8</ele>
        <time>2017-11-15T14:30:08Z</time>
      </trkpt>
      <trkpt lat="48.66679" lon="2.47763">
        <ele>100.8</ele>
        <time>2017-11-15T14:30:15Z</time>
      </trkpt>
      <trkpt lat="48.6667" lon="2.47772">
        <ele>100.8</ele>
        <time>2017-11-15T14:30:23Z</time>
      </trkpt>
      <trkpt lat="48.66661" lon="2.47779">
        <ele>100.8</ele>
        <time>2017-11-15T14:30:32Z</time>
      </trkpt>
      <trkpt lat="48.66653" lon="2.47784">
        <ele>100.5</ele>
        <time>2017-11-15T14:30:40Z</time>
      </trkpt>
      <trkpt lat="48.66645" lon="2.47794">
        <ele>100.7</ele>
        <time>2017-11-15T14:30:50Z</time>
      </trkpt>
      <trkpt lat="48.66637" lon="2.47803">
        <ele>100.7</ele>
        <time>2017-11-15T14:30:57Z</time>
      </trkpt>
      <trkpt lat="48.66628" lon="2.4781">
        <ele>100.8</ele>
        <time>2017-11-15T14:31:05Z</time>
      </trkpt>
      <trkpt lat="48.66621" lon="2.47819">
        <ele>100.9</ele>
        <time>2017-11-15T14:31:13Z</time>
      </trkpt>
      <trkpt lat="48.66612" lon="2.47826">
        <ele>100.8</ele>
        <time>2017-11-15T14:31:21Z</time>
      </trkpt>
      <trkpt lat="48.66606" lon="2.47836">
        <ele>100.8</ele>
        <time>2017-11-15T14:31:30Z</time>
      </trkpt>
      <trkpt lat="48.66598" lon="2.47846">
        <ele>100.8</ele>
        <time>2017-11-15T14:31:38Z</time>
      </trkpt>
      <trkpt lat="48.66591" lon="2.47855">
        <ele>100.7</ele>
        <time>2017-11-15T14:31:48Z</time>
      </trkpt>
      <trkpt lat="48.66582" lon="2.47864">
        <ele>100.7</ele>
        <time>2017-11-15T14:31:55Z</time>
      </trkpt>
      <trkpt lat="48.66575" lon="2.47874">
        <ele>100.7</ele>
        <time>2017-11-15T14:32:02Z</time>
      </trkpt>
      <trkpt lat="48.66567" lon="2.4788">
        <ele>100.5</ele>
        <time>2017-11-15T14:32:09Z</time>
      </trkpt>
      <trkpt lat="48.6656" lon="2.47889">
        <ele>100.5</ele>
        <time>2017-11-15T14:32:16Z</time>
      </trkpt>
      <trkpt lat="48.66554" lon="2.47898">
        <ele>100.5</ele>
        <time>2017-11-15T14:32:23Z</time>
      </trkpt>
      <trkpt lat="48.66552" lon="2.47913">
        <ele>100.8</ele>
        <time>2017-11-15T14:32:30Z</time>
      </trkpt>
      <trkpt lat="48.66555" lon="2.47927">
        <ele>100.9</ele>
        <time>2017-11-15T14:32:37Z</time>
      </trkpt>
      <trkpt lat="48.66558" lon="2.47941">
        <ele>100.8</ele>
        <time>2017-11-15T14:32:44Z</time>
      </trkpt>
      <trkpt lat="48.66559" lon="2.47956">
        <ele>100.6</ele>
        <time>2017-11-15T14:32:51Z</time>
      </trkpt>
      <trkpt lat="48.66562" lon="2.4797">
        <ele>100.5</ele>
        <time>2017-11-15T14:32:59Z</time>
      </trkpt>
      <trkpt lat="48.66565" lon="2.47984">
        <ele>100.4</ele>
        <time>2017-11-15T14:33:06Z</time>
      </trkpt>
      <trkpt lat="48.6657" lon="2.47998">
        <ele>100.4</ele>
        <time>2017-11-15T14:33:13Z</time>
      </trkpt>
      <trkpt lat="48.66573" lon="2.48011">
        <ele>100.5</ele>
        <time>2017-11-15T14:33:20Z</time>
      </trkpt>
      <trkpt lat="48.66581" lon="2.48021">
        <ele>100.5</ele>
        <time>2017-11-15T14:33:35Z</time>
      </trkpt>
      <trkpt lat="48.66587" lon="2.48031">
        <ele>100.6</ele>
        <time>2017-11-15T14:33:43Z</time>
      </trkpt>
      <trkpt lat="48.66592" lon="2.48045">
        <ele>100.7</ele>
        <time>2017-11-15T14:33:52Z</time>
      </trkpt>
      <trkpt lat="48.66593" lon="2.48059">
        <ele>100.6</ele>
        <time>2017-11-15T14:34:00Z</time>
      </trkpt>
      <trkpt lat="48.66596" lon="2.48072">
        <ele>100.5</ele>
        <time>2017-11-15T14:34:07Z</time>
      </trkpt>
      <trkpt lat="48.66596" lon="2.48088">
        <ele>100.5</ele>
        <time>2017-11-15T14:34:14Z</time>
      </trkpt>
      <trkpt lat="48.66598" lon="2.48103">
        <ele>100.6</ele>
        <time>2017-11-15T14:34:22Z</time>
      </trkpt>
      <trkpt lat="48.666" lon="2.48118">
        <ele>100.5</ele>
        <time>2017-11-15T14:34:30Z</time>
      </trkpt>
      <trkpt lat="48.66602" lon="2.48132">
        <ele>100.7</ele>
        <time>2017-11-15T14:34:38Z</time>
      </trkpt>
      <trkpt lat="48.66604" lon="2.48146">
        <ele>100.7</ele>
        <time>2017-11-15T14:34:44Z</time>
      </trkpt>
      <trkpt lat="48.66608" lon="2.48159">
        <ele>100.8</ele>
        <time>2017-11-15T14:34:52Z</time>
      </trkpt>
      <trkpt lat="48.66612" lon="2.48172">
        <ele>100.7</ele>
        <time>2017-11-15T14:34:59Z</time>
      </trkpt>
      <trkpt lat="48.66614" lon="2.48187">
        <ele>100.7</ele>
        <time>2017-11-15T14:35:07Z</time>
      </trkpt>
      <trkpt lat="48.66619" lon="2.48198">
        <ele>100.7</ele>
        <time>2017-11-15T14:35:14Z</time>
      </trkpt>
      <trkpt lat="48.66622" lon="2.48212">
        <ele>100.7</ele>
        <time>2017-11-15T14:35:23Z</time>
      </trkpt>
      <trkpt lat="48.66624" lon="2.48226">
        <ele>100.8</ele>
        <time>2017-11-15T14:35:30Z</time>
      </trkpt>
      <trkpt lat="48.66627" lon="2.48239">
        <ele>100.8</ele>
        <time>2017-11-15T14:35:38Z</time>
      </trkpt>
      <trkpt lat="48.66631" lon="2.48252">
        <ele>100.7</ele>
        <time>2017-11-15T14:35:45Z</time>
      </trkpt>
      <trkpt lat="48.66635" lon="2.48267">
        <ele>100.5</ele>
        <time>2017-11-15T14:35:52Z</time>
      </trkpt>
      <trkpt lat="48.66638" lon="2.4828">
        <ele>100.6</ele>
        <time>2017-11-15T14:35:59Z</time>
      </trkpt>
      <trkpt lat="48.66642" lon="2.48293">
        <ele>100.6</ele>
        <time>2017-11-15T14:36:06Z</time>
      </trkpt>
      <trkpt lat="48.66647" lon="2.48307">
        <ele>100.5</ele>
        <time>2017-11-15T14:36:14Z</time>
      </trkpt>
      <trkpt lat="48.66649" lon="2.48321">
        <ele>100.6</ele>
        <time>2017-11-15T14:36:23Z</time>
      </trkpt>
      <trkpt lat="48.66652" lon="2.48335">
        <ele>100.5</ele>
        <time>2017-11-15T14:36:31Z</time>
      </trkpt>
      <trkpt lat="48.66654" lon="2.48349">
        <ele>100.6</ele>
        <time>2017-11-15T14:36:38Z</time>
      </trkpt>
      <trkpt lat="48.66658" lon="2.48362">
        <ele>100.7</ele>
        <time>2017-11-15T14:36:49Z</time>
      </trkpt>
      <trkpt lat="48.66665" lon="2.4837">
        <ele>100.8</ele>
        <time>2017-11-15T14:37:41Z</time>
      </trkpt>
      <trkpt lat="48.66667" lon="2.48384">
        <ele>100.9</ele>
        <time>2017-11-15T14:41:20Z</time>
      </trkpt>
      <trkpt lat="48.66669" lon="2.48398">
        <ele>100.7</ele>
        <time>2017-11-15T14:41:31Z</time>
      </trkpt>
      <trkpt lat="48.66673" lon="2.48411">
        <ele>100.6</ele>
        <time>2017-11-15T14:41:42Z</time>
      </trkpt>
      <trkpt lat="48.66677" lon="2.48424">
        <ele>100.6</ele>
        <time>2017-11-15T14:41:51Z</time>
      </trkpt>
      <trkpt lat="48.66679" lon="2.48438">
        <ele>100.7</ele>
        <time>2017-11-15T14:42:00Z</time>
      </trkpt>
      <trkpt lat="48.66684" lon="2.48451">
        <ele>100.7</ele>
        <time>2017-11-15T14:42:09Z</time>
      </trkpt>
      <trkpt lat="48.66686" lon="2.48465">
        <ele>100.7</ele>
        <time>2017-11-15T14:42:16Z</time>
      </trkpt>
      <trkpt lat="48.66691" lon="2.48477">
        <ele>100.8</ele>
        <time>2017-11-15T14:42:23Z</time>
      </trkpt>
      <trkpt lat="48.66695" lon="2.48491">
        <ele>100.8</ele>
        <time>2017-11-15T14:42:31Z</time>
      </trkpt>
      <trkpt lat="48.66699" lon="2.48504">
        <ele>100.8</ele>
        <time>2017-11-15T14:42:39Z</time>
      </trkpt>
      <trkpt lat="48.66703" lon="2.48518">
        <ele>100.9</ele>
        <time>2017-11-15T14:42:47Z</time>
      </trkpt>
      <trkpt lat="48.66704" lon="2.48532">
        <ele>101</ele>
        <time>2017-11-15T14:42:59Z</time>
      </trkpt>
      <trkpt lat="48.66696" lon="2.4854">
        <ele>100.9</ele>
        <time>2017-11-15T14:43:16Z</time>
      </trkpt>
      <trkpt lat="48.66688" lon="2.48533">
        <ele>101</ele>
        <time>2017-11-15T14:44:02Z</time>
      </trkpt>
      <trkpt lat="48.66679" lon="2.48528">
        <ele>101</ele>
        <time>2017-11-15T14:44:11Z</time>
      </trkpt>
      <trkpt lat="48.66669" lon="2.48523">
        <ele>100.9</ele>
        <time>2017-11-15T14:44:21Z</time>
      </trkpt>
      <trkpt lat="48.6666" lon="2.48516">
        <ele>100.8</ele>
        <time>2017-11-15T14:44:31Z</time>
      </trkpt>
      <trkpt lat="48.66652" lon="2.4851">
        <ele>100.6</ele>
        <time>2017-11-15T14:44:40Z</time>
      </trkpt>
      <trkpt lat="48.66642" lon="2.48506">
        <ele>100.6</ele>
        <time>2017-11-15T14:44:51Z</time>
      </trkpt>
      <trkpt lat="48.66633" lon="2.48504">
        <ele>100.5</ele>
        <time>2017-11-15T14:45:00Z</time>
      </trkpt>
      <trkpt lat="48.66624" lon="2.485">
        <ele>100.5</ele>
        <time>2017-11-15T14:45:10Z</time>
      </trkpt>
      <trkpt lat="48.66615" lon="2.48496">
        <ele>100.6</ele>
        <time>2017-11-15T14:45:18Z</time>
      </trkpt>
      <trkpt lat="48.66606" lon="2.48494">
        <ele>100.6</ele>
        <time>2017-11-15T14:45:26Z</time>
      </trkpt>
      <trkpt lat="48.66597" lon="2.4849">
        <ele>100.6</ele>
        <time>2017-11-15T14:45:33Z</time>
      </trkpt>
      <trkpt lat="48.66588" lon="2.48487">
        <ele>100.7</ele>
        <time>2017-11-15T14:45:40Z</time>
      </trkpt>
      <trkpt lat="48.66578" lon="2.48486">
        <ele>100.7</ele>
        <time>2017-11-15T14:45:47Z</time>
      </trkpt>
      <trkpt lat="48.6657" lon="2.48481">
        <ele>100.7</ele>
        <time>2017-11-15T14:45:56Z</time>
      </trkpt>
      <trkpt lat="48.66561" lon="2.48477">
        <ele>100.6</ele>
        <time>2017-11-15T14:46:05Z</time>
      </trkpt>
      <trkpt lat="48.66552" lon="2.48473">
        <ele>100.7</ele>
        <time>2017-11-15T14:46:15Z</time>
      </trkpt>
      <trkpt lat="48.66542" lon="2.4847">
        <ele>100.7</ele>
        <time>2017-11-15T14:46:25Z</time>
      </trkpt>
      <trkpt lat="48.66534" lon="2.48466">
        <ele>100.7</ele>
        <time>2017-11-15T14:46:33Z</time>
      </trkpt>
      <trkpt lat="48.66525" lon="2.48463">
        <ele>100.7</ele>
        <time>2017-11-15T14:46:42Z</time>
      </trkpt>
      <trkpt lat="48.66515" lon="2.48459">
        <ele>100.5</ele>
        <time>2017-11-15T14:46:52Z</time>
      </trkpt>
      <trkpt lat="48.66506" lon="2.48455">
        <ele>100.4</ele>
        <time>2017-11-15T14:47:00Z</time>
      </trkpt>
      <trkpt lat="48.66497" lon="2.48449">
        <ele>100.4</ele>
        <time>2017-11-15T14:47:09Z</time>
      </trkpt>
      <trkpt lat="48.66487" lon="2.48449">
        <ele>100.4</ele>
        <time>2017-11-15T14:47:19Z</time>
      </trkpt>
      <trkpt lat="48.66478" lon="2.48444">
        <ele>100.4</ele>
        <time>2017-11-15T14:47:29Z</time>
      </trkpt>
      <trkpt lat="48.66469" lon="2.48441">
        <ele>100.4</ele>
        <time>2017-11-15T14:47:38Z</time>
      </trkpt>
      <trkpt lat="48.66459" lon="2.48438">
        <ele>100.5</ele>
        <time>2017-11-15T14:47:46Z</time>
      </trkpt>
      <trkpt lat="48.6645" lon="2.48433">
        <ele>100.4</ele>
        <time>2017-11-15T14:47:55Z</time>
      </trkpt>
      <trkpt lat="48.66441" lon="2.48429">
        <ele>100.5</ele>
        <time>2017-11-15T14:48:05Z</time>
      </trkpt>
      <trkpt lat="48.66431" lon="2.48426">
        <ele>100.4</ele>
        <time>2017-11-15T14:48:14Z</time>
      </trkpt>
      <trkpt lat="48.66422" lon="2.48422">
        <ele>100.3</ele>
        <time>2017-11-15T14:48:23Z</time>
      </trkpt>
      <trkpt lat="48.66414" lon="2.48416">
        <ele>100.4</ele>
        <time>2017-11-15T14:48:32Z</time>
      </trkpt>
      <trkpt lat="48.66404" lon="2.48416">
        <ele>100.5</ele>
        <time>2017-11-15T14:48:44Z</time>
      </trkpt>
      <trkpt lat="48.66395" lon="2.48415">
        <ele>100.8</ele>
        <time>2017-11-15T14:48:55Z</time>
      </trkpt>
      <trkpt lat="48.66386" lon="2.48411">
        <ele>100.5</ele>
        <time>2017-11-15T14:49:05Z</time>
      </trkpt>
      <trkpt lat="48.66377" lon="2.48406">
        <ele>100.7</ele>
        <time>2017-11-15T14:49:18Z</time>
      </trkpt>
      <trkpt lat="48.66368" lon="2.48406">
        <ele>100.9</ele>
        <time>2017-11-15T14:49:39Z</time>
      </trkpt>
      <trkpt lat="48.66359" lon="2.48402">
        <ele>100.9</ele>
        <time>2017-11-15T14:49:46Z</time>
      </trkpt>
      <trkpt lat="48.66349" lon="2.48399">
        <ele>100.9</ele>
        <time>2017-11-15T14:49:54Z</time>
      </trkpt>
      <trkpt lat="48.66339" lon="2.48395">
        <ele>101</ele>
        <time>2017-11-15T14:50:07Z</time>
      </trkpt>
      <trkpt lat="48.6633" lon="2.4839">
        <ele>101</ele>
        <time>2017-11-15T14:50:15Z</time>
      </trkpt>
      <trkpt lat="48.66323" lon="2.48383">
        <ele>101</ele>
        <time>2017-11-15T14:50:24Z</time>
      </trkpt>
      <trkpt lat="48.66313" lon="2.48377">
        <ele>101</ele>
        <time>2017-11-15T14:50:31Z</time>
      </trkpt>
      <trkpt lat="48.66304" lon="2.48373">
        <ele>100.9</ele>
        <time>2017-11-15T14:50:40Z</time>
      </trkpt>
      <trkpt lat="48.66294" lon="2.4837">
        <ele>100.9</ele>
        <time>2017-11-15T14:50:48Z</time>
      </trkpt>
      <trkpt lat="48.66285" lon="2.48367">
        <ele>101</ele>
        <time>2017-11-15T14:50:56Z</time>
      </trkpt>
      <trkpt lat="48.66275" lon="2.48365">
        <ele>101.1</ele>
        <time>2017-11-15T14:51:03Z</time>
      </trkpt>
      <trkpt lat="48.66266" lon="2.48362">
        <ele>101.1</ele>
        <time>2017-11-15T14:51:11Z</time>
      </trkpt>
      <trkpt lat="48.66257" lon="2.48357">
        <ele>101.1</ele>
        <time>2017-11-15T14:51:21Z</time>
      </trkpt>
      <trkpt lat="48.66248" lon="2.48353">
        <ele>101.2</ele>
        <time>2017-11-15T14:51:30Z</time>
      </trkpt>
      <trkpt lat="48.66238" lon="2.4835">
        <ele>101.3</ele>
        <time>2017-11-15T14:51:38Z</time>
      </trkpt>
      <trkpt lat="48.66229" lon="2.48346">
        <ele>101.2</ele>
        <time>2017-11-15T14:51:48Z</time>
      </trkpt>
      <trkpt lat="48.66219" lon="2.48343">
        <ele>101.2</ele>
        <time>2017-11-15T14:51:54Z</time>
      </trkpt>
      <trkpt lat="48.6621" lon="2.48339">
        <ele>101.2</ele>
        <time>2017-11-15T14:52:01Z</time>
      </trkpt>
      <trkpt lat="48.66201" lon="2.48337">
        <ele>101.2</ele>
        <time>2017-11-15T14:52:09Z</time>
      </trkpt>
      <trkpt lat="48.66192" lon="2.48335">
        <ele>101.3</ele>
        <time>2017-11-15T14:52:17Z</time>
      </trkpt>
      <trkpt lat="48.66182" lon="2.48332">
        <ele>101.4</ele>
        <time>2017-11-15T14:52:25Z</time>
      </trkpt>
      <trkpt lat="48.66174" lon="2.48327">
        <ele>101.3</ele>
        <time>2017-11-15T14:52:32Z</time>
      </trkpt>
      <trkpt lat="48.66164" lon="2.48326">
        <ele>101.2</ele>
        <time>2017-11-15T14:52:40Z</time>
      </trkpt>
      <trkpt lat="48.66155" lon="2.48324">
        <ele>101.2</ele>
        <time>2017-11-15T14:52:48Z</time>
      </trkpt>
      <trkpt lat="48.66146" lon="2.48329">
        <ele>101</ele>
        <time>2017-11-15T14:52:56Z</time>
      </trkpt>
      <trkpt lat="48.66138" lon="2.48336">
        <ele>101.1</ele>
        <time>2017-11-15T14:53:05Z</time>
      </trkpt>
      <trkpt lat="48.6613" lon="2.48346">
        <ele>101.1</ele>
        <time>2017-11-15T14:53:13Z</time>
      </trkpt>
      <trkpt lat="48.66127" lon="2.48359">
        <ele>101.1</ele>
        <time>2017-11-15T14:53:31Z</time>
      </trkpt>
      <trkpt lat="48.66118" lon="2.48362">
        <ele>101.2</ele>
        <time>2017-11-15T14:54:43Z</time>
      </trkpt>
      <trkpt lat="48.66109" lon="2.48362">
        <ele>101.2</ele>
        <time>2017-11-15T14:55:30Z</time>
      </trkpt>
      <trkpt lat="48.66102" lon="2.48371">
        <ele>101.2</ele>
        <time>2017-11-15T14:55:39Z</time>
      </trkpt>
      <trkpt lat="48.66094" lon="2.48381">
        <ele>101.2</ele>
        <time>2017-11-15T14:55:49Z</time>
      </trkpt>
      <trkpt lat="48.66086" lon="2.48387">
        <ele>101.1</ele>
        <time>2017-11-15T14:55:57Z</time>
      </trkpt>
      <trkpt lat="48.66079" lon="2.48396">
        <ele>101</ele>
        <time>2017-11-15T14:56:06Z</time>
      </trkpt>
      <trkpt lat="48.66071" lon="2.48402">
        <ele>100.9</ele>
        <time>2017-11-15T14:56:16Z</time>
      </trkpt>
      <trkpt lat="48.66063" lon="2.48411">
        <ele>98.9</ele>
        <time>2017-11-15T14:56:24Z</time>
      </trkpt>
      <trkpt lat="48.66056" lon="2.4842">
        <ele>100.6</ele>
        <time>2017-11-15T14:56:33Z</time>
      </trkpt>
      <trkpt lat="48.66048" lon="2.48429">
        <ele>100.9</ele>
        <time>2017-11-15T14:56:43Z</time>
      </trkpt>
      <trkpt lat="48.66042" lon="2.48438">
        <ele>100.9</ele>
        <time>2017-11-15T14:56:50Z</time>
      </trkpt>
      <trkpt lat="48.66034" lon="2.48447">
        <ele>100.9</ele>
        <time>2017-11-15T14:56:58Z</time>
      </trkpt>
      <trkpt lat="48.66027" lon="2.48454">
        <ele>100.9</ele>
        <time>2017-11-15T14:57:05Z</time>
      </trkpt>
      <trkpt lat="48.66019" lon="2.48463">
        <ele>100.9</ele>
        <time>2017-11-15T14:57:14Z</time>
      </trkpt>
      <trkpt lat="48.66011" lon="2.48469">
        <ele>100.9</ele>
        <time>2017-11-15T14:57:22Z</time>
      </trkpt>
      <trkpt lat="48.66002" lon="2.48475">
        <ele>100.9</ele>
        <time>2017-11-15T14:57:30Z</time>
      </trkpt>
      <trkpt lat="48.65995" lon="2.48484">
        <ele>100.9</ele>
        <time>2017-11-15T14:57:38Z</time>
      </trkpt>
      <trkpt lat="48.65987" lon="2.48493">
        <ele>100.9</ele>
        <time>2017-11-15T14:57:46Z</time>
      </trkpt>
      <trkpt lat="48.65979" lon="2.48502">
        <ele>100.9</ele>
        <time>2017-11-15T14:57:54Z</time>
      </trkpt>
      <trkpt lat="48.65971" lon="2.48511">
        <ele>100.8</ele>
        <time>2017-11-15T14:58:02Z</time>
      </trkpt>
      <trkpt lat="48.65963" lon="2.48517">
        <ele>100.8</ele>
        <time>2017-11-15T14:58:09Z</time>
      </trkpt>
      <trkpt lat="48.65956" lon="2.48527">
        <ele>100.8</ele>
        <time>2017-11-15T14:58:17Z</time>
      </trkpt>
      <trkpt lat="48.65949" lon="2.48536">
        <ele>100.8</ele>
        <time>2017-11-15T14:58:25Z</time>
      </trkpt>
      <trkpt lat="48.65941" lon="2.48545">
        <ele>100.9</ele>
        <time>2017-11-15T14:58:34Z</time>
      </trkpt>
      <trkpt lat="48.65933" lon="2.48554">
        <ele>100.9</ele>
        <time>2017-11-15T14:58:42Z</time>
      </trkpt>
      <trkpt lat="48.65925" lon="2.48562">
        <ele>100.9</ele>
        <time>2017-11-15T14:58:51Z</time>
      </trkpt>
      <trkpt lat="48.65917" lon="2.4857">
        <ele>100.9</ele>
        <time>2017-11-15T14:58:59Z</time>
      </trkpt>
      <trkpt lat="48.65908" lon="2.48577">
        <ele>100.9</ele>
        <time>2017-11-15T14:59:07Z</time>
      </trkpt>
      <trkpt lat="48.659" lon="2.48586">
        <ele>100.8</ele>
        <time>2017-11-15T14:59:16Z</time>
      </trkpt>
      <trkpt lat="48.65892" lon="2.48593">
        <ele>100.7</ele>
        <time>2017-11-15T14:59:25Z</time>
      </trkpt>
      <trkpt lat="48.65885" lon="2.48602">
        <ele>100.7</ele>
        <time>2017-11-15T14:59:33Z</time>
      </trkpt>
      <trkpt lat="48.65877" lon="2.48609">
        <ele>100.7</ele>
        <time>2017-11-15T14:59:43Z</time>
      </trkpt>
      <trkpt lat="48.6587" lon="2.48616">
        <ele>100.8</ele>
        <time>2017-11-15T14:59:50Z</time>
      </trkpt>
      <trkpt lat="48.65862" lon="2.48624">
        <ele>100.8</ele>
        <time>2017-11-15T14:59:58Z</time>
      </trkpt>
      <trkpt lat="48.65857" lon="2.48636">
        <ele>100.7</ele>
        <time>2017-11-15T15:00:07Z</time>
      </trkpt>
      <trkpt lat="48.65852" lon="2.48649">
        <ele>100.7</ele>
        <time>2017-11-15T15:00:15Z</time>
      </trkpt>
      <trkpt lat="48.65843" lon="2.48656">
        <ele>100.7</ele>
        <time>2017-11-15T15:00:23Z</time>
      </trkpt>
      <trkpt lat="48.65835" lon="2.48665">
        <ele>100.6</ele>
        <time>2017-11-15T15:00:32Z</time>
      </trkpt>
      <trkpt lat="48.65827" lon="2.48673">
        <ele>100.6</ele>
        <time>2017-11-15T15:00:37Z</time>
      </trkpt>
      <trkpt lat="48.65818" lon="2.4868">
        <ele>100.8</ele>
        <time>2017-11-15T15:00:44Z</time>
      </trkpt>
      <trkpt lat="48.65809" lon="2.48686">
        <ele>100.8</ele>
        <time>2017-11-15T15:00:51Z</time>
      </trkpt>
      <trkpt lat="48.65803" lon="2.48695">
        <ele>100.8</ele>
        <time>2017-11-15T15:01:00Z</time>
      </trkpt>
      <trkpt lat="48.65795" lon="2.48703">
        <ele>100.8</ele>
        <time>2017-11-15T15:01:34Z</time>
      </trkpt>
      <trkpt lat="48.65788" lon="2.48712">
        <ele>100.9</ele>
        <time>2017-11-15T15:06:50Z</time>
      </trkpt>
      <trkpt lat="48.65784" lon="2.48725">
        <ele>100.9</ele>
        <time>2017-11-15T15:07:05Z</time>
      </trkpt>
      <trkpt lat="48.65782" lon="2.48738">
        <ele>100.9</ele>
        <time>2017-11-15T15:07:17Z</time>
      </trkpt>
      <trkpt lat="48.65779" lon="2.48753">
        <ele>100.7</ele>
        <time>2017-11-15T15:07:27Z</time>
      </trkpt>
      <trkpt lat="48.65777" lon="2.48766">
        <ele>100.7</ele>
        <time>2017-11-15T15:07:38Z</time>
      </trkpt>
      <trkpt lat="48.65776" lon="2.4878">
        <ele>100.7</ele>
        <time>2017-11-15T15:08:06Z</time>
      </trkpt>
      <trkpt lat="48.65773" lon="2.48794">
        <ele>100.5</ele>
        <time>2017-11-15T15:08:17Z</time>
      </trkpt>
      <trkpt lat="48.65768" lon="2.48806">
        <ele>100.4</ele>
        <time>2017-11-15T15:08:26Z</time>
      </trkpt>
      <trkpt lat="48.65766" lon="2.4882">
        <ele>100.4</ele>
        <time>2017-11-15T15:08:34Z</time>
      </trkpt>
      <trkpt lat="48.65764" lon="2.48834">
        <ele>100.4</ele>
        <time>2017-11-15T15:08:40Z</time>
      </trkpt>
      <trkpt lat="48.65761" lon="2.48846">
        <ele>100.3</ele>
        <time>2017-11-15T15:08:47Z</time>
      </trkpt>
      <trkpt lat="48.65756" lon="2.4886">
        <ele>100.3</ele>
        <time>2017-11-15T15:08:54Z</time>
      </trkpt>
      <trkpt lat="48.65752" lon="2.48873">
        <ele>100.1</ele>
        <time>2017-11-15T15:09:01Z</time>
      </trkpt>
      <trkpt lat="48.65749" lon="2.48886">
        <ele>100.1</ele>
        <time>2017-11-15T15:09:10Z</time>
      </trkpt>
      <trkpt lat="48.65744" lon="2.48899">
        <ele>100</ele>
        <time>2017-11-15T15:09:17Z</time>
      </trkpt>
      <trkpt lat="48.65743" lon="2.48913">
        <ele>100</ele>
        <time>2017-11-15T15:09:25Z</time>
      </trkpt>
      <trkpt lat="48.65741" lon="2.48928">
        <ele>100</ele>
        <time>2017-11-15T15:09:33Z</time>
      </trkpt>
      <trkpt lat="48.65739" lon="2.48943">
        <ele>99.9</ele>
        <time>2017-11-15T15:09:41Z</time>
      </trkpt>
      <trkpt lat="48.65736" lon="2.48957">
        <ele>100</ele>
        <time>2017-11-15T15:09:49Z</time>
      </trkpt>
      <trkpt lat="48.65733" lon="2.48971">
        <ele>99.9</ele>
        <time>2017-11-15T15:09:57Z</time>
      </trkpt>
      <trkpt lat="48.6573" lon="2.48985">
        <ele>99.9</ele>
        <time>2017-11-15T15:10:07Z</time>
      </trkpt>
      <trkpt lat="48.65726" lon="2.48999">
        <ele>99.8</ele>
        <time>2017-11-15T15:10:15Z</time>
      </trkpt>
      <trkpt lat="48.65721" lon="2.49011">
        <ele>99.5</ele>
        <time>2017-11-15T15:10:24Z</time>
      </trkpt>
      <trkpt lat="48.65714" lon="2.49021">
        <ele>99.5</ele>
        <time>2017-11-15T15:10:34Z</time>
      </trkpt>
      <trkpt lat="48.65707" lon="2.4903">
        <ele>99.5</ele>
        <time>2017-11-15T15:10:43Z</time>
      </trkpt>
      <trkpt lat="48.65702" lon="2.49042">
        <ele>99.4</ele>
        <time>2017-11-15T15:10:52Z</time>
      </trkpt>
      <trkpt lat="48.657" lon="2.49056">
        <ele>99.3</ele>
        <time>2017-11-15T15:11:01Z</time>
      </trkpt>
      <trkpt lat="48.65694" lon="2.49067">
        <ele>99.3</ele>
        <time>2017-11-15T15:11:11Z</time>
      </trkpt>
      <trkpt lat="48.65691" lon="2.49079">
        <ele>99.1</ele>
        <time>2017-11-15T15:11:22Z</time>
      </trkpt>
      <trkpt lat="48.65688" lon="2.49093">
        <ele>99</ele>
        <time>2017-11-15T15:11:33Z</time>
      </trkpt>
      <trkpt lat="48.65687" lon="2.49107">
        <ele>99</ele>
        <time>2017-11-15T15:11:40Z</time>
      </trkpt>
      <trkpt lat="48.65685" lon="2.4912">
        <ele>99</ele>
        <time>2017-11-15T15:11:46Z</time>
      </trkpt>
      <trkpt lat="48.65686" lon="2.49135">
        <ele>99</ele>
        <time>2017-11-15T15:11:52Z</time>
      </trkpt>
      <trkpt lat="48.65687" lon="2.4915">
        <ele>99</ele>
        <time>2017-11-15T15:11:58Z</time>
      </trkpt>
      <trkpt lat="48.65686" lon="2.49164">
        <ele>98.9</ele>
        <time>2017-11-15T15:12:06Z</time>
      </trkpt>
      <trkpt lat="48.65684" lon="2.4918">
        <ele>98.9</ele>
        <time>2017-11-15T15:12:13Z</time>
      </trkpt>
      <trkpt lat="48.6568" lon="2.49193">
        <ele>98.9</ele>
        <time>2017-11-15T15:12:21Z</time>
      </trkpt>
      <trkpt lat="48.65676" lon="2.49206">
        <ele>99.1</ele>
        <time>2017-11-15T15:12:28Z</time>
      </trkpt>
      <trkpt lat="48.65672" lon="2.49219">
        <ele>99.1</ele>
        <time>2017-11-15T15:12:34Z</time>
      </trkpt>
      <trkpt lat="48.65665" lon="2.49228">
        <ele>99.3</ele>
        <time>2017-11-15T15:12:41Z</time>
      </trkpt>
      <trkpt lat="48.65656" lon="2.49231">
        <ele>99.3</ele>
        <time>2017-11-15T15:12:48Z</time>
      </trkpt>
      <trkpt lat="48.65649" lon="2.4924">
        <ele>99.4</ele>
        <time>2017-11-15T15:12:56Z</time>
      </trkpt>
      <trkpt lat="48.65641" lon="2.49248">
        <ele>99.6</ele>
        <time>2017-11-15T15:13:06Z</time>
      </trkpt>
      <trkpt lat="48.65634" lon="2.49258">
        <ele>99.5</ele>
        <time>2017-11-15T15:13:14Z</time>
      </trkpt>
      <trkpt lat="48.65627" lon="2.49268">
        <ele>99.7</ele>
        <time>2017-11-15T15:13:22Z</time>
      </trkpt>
      <trkpt lat="48.6562" lon="2.49276">
        <ele>99.8</ele>
        <time>2017-11-15T15:13:31Z</time>
      </trkpt>
      <trkpt lat="48.6561" lon="2.49279">
        <ele>99.7</ele>
        <time>2017-11-15T15:13:40Z</time>
      </trkpt>
      <trkpt lat="48.65601" lon="2.49282">
        <ele>99.6</ele>
        <time>2017-11-15T15:13:48Z</time>
      </trkpt>
      <trkpt lat="48.65592" lon="2.49283">
        <ele>99.7</ele>
        <time>2017-11-15T15:13:57Z</time>
      </trkpt>
      <trkpt lat="48.65583" lon="2.49288">
        <ele>99.7</ele>
        <time>2017-11-15T15:14:06Z</time>
      </trkpt>
      <trkpt lat="48.65574" lon="2.49291">
        <ele>99.7</ele>
        <time>2017-11-15T15:14:15Z</time>
      </trkpt>
      <trkpt lat="48.65565" lon="2.49292">
        <ele>99.6</ele>
        <time>2017-11-15T15:14:25Z</time>
      </trkpt>
      <trkpt lat="48.65556" lon="2.49295">
        <ele>100.2</ele>
        <time>2017-11-15T15:14:36Z</time>
      </trkpt>
      <trkpt lat="48.65552" lon="2.49296">
        <ele>100.1</ele>
        <time>2017-11-15T15:14:57Z</time>
      </trkpt>
    </trkseg>
  </trk>
</gpx>